[[{"header":{"parameterUnit":"m.s-1","parameterCategory":1,"la1":31.0,"la2":29.5877,"lo1":-88.7671,"lo2":-86.6584,"dy":0.0162,"dx":0.0185,"nx":115,"ny":88,"refTime":"2024-04-10T06:00:00:Z","depth":0,"parameterNumber":2,"parameterNumberName":"U-component_of_WINDS"},"data":[0.0,0.0,0.0,0.0,0.0,0.0,0.0,0.0,0.0,0.0,0.0,0.0,0.0,0.0,0.0,0.0,0.0,0.0,0.0,0.0,0.0,0.0,0.0,0.0,0.0,0.0,0.0,0.0,0.0,0.0,0.0,0.0,0.0,0.0,0.0,0.0,0.0,0.0,0.0,0.0,0.0,0.0,0.0,0.0,0.0,0.0,0.0,0.0,0.0,0.0,0.0,0.0,0.0,0.0,0.0,0.0,0.0,0.0,0.0,0.0,0.0,0.0,0.0,0.0,0.0,0.0,0.0,0.0,0.0,0.0,0.0,0.0,0.0,0.0,0.0,0.0,0.0,0.0,0.0,0.0,0.0,0.0,0.0,0.0,0.0,0.0,0.0,0.0,0.0,0.0,0.0,0.0,0.0,0.0,0.0,0.0,0.0,0.0,0.0,0.0,0.0,0.0,0.0,0.0,0.0,0.0,0.0,0.0,0.0,0.0,0.0,0.0,0.0,0.0,0.0,0.0,0.0,0.0,0.0,0.0,0.0,0.0,0.0,0.0,0.0,0.0,0.0,0.0,0.0,0.0,0.0,0.0,0.0,0.0,0.0,0.0,0.0,0.0,0.0,0.0,0.0,0.0,0.0,0.0,0.0,0.0,0.0,0.0,0.0,0.0,0.0,0.0,0.0,0.0,0.0,0.0,0.0,0.0,0.0,0.0,0.0,0.0,0.0,0.0,0.0,0.0,0.0,0.0,0.0,0.0,0.0,0.0,0.0,0.0,0.0,0.0,0.0,0.0,0.0,0.0,0.0,0.0,0.0,0.0,0.0,0.0,0.0,0.0,0.0,0.0,0.0,0.0,0.0,0.0,0.0,0.0,0.0,0.0,0.0,0.0,0.0,0.0,0.0,0.0,0.0,0.0,0.0,0.0,0.0,0.0,0.0,0.0,0.0,0.0,0.0,0.0,0.0,0.0,0.0,0.0,0.0,0.0,0.0,0.0,0.0,0.0,0.0,0.0,0.0,0.0,0.0,0.0,0.0,0.0,0.0,0.0,0.0,0.0,0.0,0.0,0.0,0.0,0.0,0.0,0.0,0.0,0.0,0.0,0.0,0.0,0.0,0.0,0.0,0.0,0.0,0.0,0.0,0.0,0.0,0.0,0.0,0.0,0.0,0.0,0.0,0.0,0.0,0.0,0.0,0.0,0.0,0.0,0.0,0.0,0.0,0.0,0.0,0.0,0.0,0.0,0.0,0.0,0.0,0.0,0.0,0.0,0.0,0.0,0.0,0.0,0.0,0.0,0.0,0.0,0.0,0.0,0.0,0.0,0.0,0.0,0.0,0.0,0.0,0.0,0.0,0.0,0.0,0.0,0.0,0.0,0.0,0.0,0.0,0.0,0.0,0.0,0.0,0.0,0.0,0.0,0.0,0.0,0.0,0.0,0.0,0.0,0.0,0.0,0.0,0.0,0.0,0.0,0.0,0.0,0.0,0.0,0.0,0.0,0.0,0.0,0.0,0.0,0.0,0.0,0.0,0.0,0.0,0.0,0.0,0.0,0.0,0.0,0.0,0.0,0.0,0.0,0.0,0.0,0.0,0.0,0.0,0.0,0.0,0.0,0.0,0.0,0.0,0.0,0.0,0.0,0.0,0.0,0.0,0.0,0.0,0.0,0.0,0.0,0.0,0.0,0.0,0.0,0.0,0.0,0.0,0.0,0.0,0.0,0.0,0.0,0.0,0.0,0.0,0.0,0.0,0.0,0.0,0.0,0.0,0.0,0.0,0.0,0.0,0.0,0.0,0.0,0.0,0.0,0.0,0.0,0.0,0.0,0.0,0.0,0.0,0.0,0.0,0.0,0.0,0.0,0.0,0.0,0.0,0.0,0.0,0.0,0.0,0.0,0.0,0.0,0.0,0.0,0.0,0.0,0.0,0.0,0.0,0.0,0.0,0.0,0.0,0.0,0.0,0.0,0.0,0.0,0.0,0.0,0.0,0.0,0.0,0.0,0.0,0.0,0.0,0.0,0.0,0.0,0.0,0.0,0.0,0.0,0.0,0.0,0.0,0.0,0.0,0.0,0.0,0.0,0.0,0.0,0.0,0.0,0.0,0.0,0.0,0.0,0.0,0.0,0.0,0.0,0.0,0.0,0.0,0.0,0.0,0.0,0.0,0.0,0.0,0.0,0.0,0.0,0.0,0.0,0.0,0.0,0.0,0.0,0.0,0.0,0.0,0.0,0.0,0.0,0.0,0.0,0.0,0.0,0.0,0.0,0.0,0.0,0.0,0.0,0.0,0.0,0.0,0.0,0.0,0.0,0.0,0.0,0.0,0.0,0.0,0.0,0.0,0.0,0.0,0.0,0.0,0.0,0.0,0.0,0.0,0.0,0.0,0.0,0.0,0.0,0.0,0.0,0.0,0.0,0.0,0.0,0.0,0.0,0.0,0.0,0.0,0.0,0.0,0.0,0.0,0.0,0.0,0.0,0.0,0.0,0.0,0.0,0.0,0.0,0.0,0.0,0.0,0.0,0.0,0.0,0.0,0.0,0.0,0.0,0.0,0.0,0.0,0.0,0.0,0.0,0.0,0.0,0.0,0.0,0.0,0.0,0.0,0.0,0.0,0.0,0.0,0.0,0.0,0.0,0.0,0.0,0.0,0.0,0.0,0.0,0.0,0.0,0.0,0.0,0.0,0.0,0.0,0.0,0.0,0.0,0.0,0.0,0.0,0.0,0.0,0.0,0.0,0.0,0.0,0.0,0.0,0.0,0.0,0.0,0.0,0.0,0.0,0.0,0.0,0.0,0.0,0.0,0.0,0.0,0.0,0.0,0.0,0.0,0.0,0.0,0.0,0.0,0.0,0.0,0.0,0.0,0.0,0.0,0.0,0.0,0.0,0.0,0.0,0.0,0.0,0.0,0.0,0.0,0.0,0.0,0.0,0.0,0.0,0.0,0.0,0.0,0.0,0.0,0.0,0.0,0.0,0.0,0.0,0.0,0.0,0.0,0.0,0.0,0.0,0.0,0.0,0.0,0.0,0.0,0.0,0.0,0.0,0.0,0.0,0.0,0.0,0.0,0.0,0.0,0.0,0.0,0.0,0.0,0.0,0.0,0.0,0.0,0.0,0.0,0.0,0.0,0.0,0.0,0.0,0.0,0.0,0.0,0.0,0.0,0.0,0.0,0.0,0.0,0.0,0.0,0.0,0.0,0.0,0.0,0.0,0.0,0.0,0.0,0.0,0.0,0.0,0.0,0.0,0.0,0.0,0.0,0.0,0.0,0.0,0.0,0.0,0.0,0.0,0.0,0.0,0.0,0.0,0.0,0.0,0.0,0.0,0.0,0.0,0.0,0.0,0.0,0.0,0.0,0.0,0.0,0.0,0.0,0.0,0.0,0.0,0.0,0.0,0.0,0.0,0.0,0.0,0.0,0.0,0.0,0.0,0.0,0.0,0.0,0.0,0.0,0.0,0.0,0.0,0.0,0.0,0.0,0.0,0.0,0.0,0.0,0.0,0.0,0.0,0.0,0.0,0.0,0.0,0.0,0.0,0.0,0.0,0.0,0.0,0.0,0.0,0.0,0.0,0.0,0.0,0.0,0.0,0.0,0.0,0.0,0.0,0.0,0.0,0.0,0.0,0.0,0.0,0.0,0.0,0.0,0.0,0.0,0.0,0.0,0.0,0.0,0.0,0.0,0.0,0.0,0.0,0.0,0.0,0.0,0.0,0.0,0.0,0.0,0.0,0.0,0.0,0.0,0.0,0.0,0.0,0.0,0.0,0.0,0.0,0.0,0.0,0.0,0.0,0.0,0.0,0.0,0.0,0.0,0.0,0.0,0.0,0.0,0.0,0.0,0.0,0.0,0.0,0.0,0.0,0.0,0.0,0.0,0.0,0.0,0.0,0.0,0.0,0.0,0.0,0.0,0.0,0.0,0.0,0.0,0.0,0.0,0.0,0.0,0.0,0.0,0.0,0.0,0.0,0.0,0.0,0.0,0.0,0.0,0.0,0.0,0.0,0.0,0.0,0.0,0.0,0.0,0.0,0.0,0.0,0.0,0.0,0.0,0.0,0.0,0.0,0.0,0.0,0.0,0.0,0.0,0.0,0.0,0.0,0.0,0.0,0.0,0.0,0.0,0.0,0.0,0.0,0.0,0.0,0.0,0.0,0.0,0.0,0.0,0.0,0.0,0.0,0.0,0.0,0.0,0.0,0.0,0.0,0.0,0.0,0.0,0.0,0.0,0.0,0.0,0.0,0.0,0.0,0.0,0.0,0.0,3.1452,0.0,0.0,0.0,0.0,0.0,0.0,0.0,0.0,0.0,0.0,0.0,0.0,0.0,0.0,0.0,0.0,0.0,0.0,0.0,0.0,0.0,0.0,0.0,0.0,0.0,0.0,0.0,0.0,0.0,0.0,0.0,0.0,0.0,0.0,0.0,0.0,0.0,0.0,0.0,0.0,0.0,0.0,0.0,0.0,0.0,0.0,0.0,0.0,0.0,0.0,0.0,0.0,0.0,0.0,0.0,0.0,0.0,0.0,0.0,0.0,0.0,0.0,0.0,0.0,0.0,0.0,0.0,0.0,0.0,0.0,0.0,0.0,0.0,0.0,0.0,0.0,0.0,0.0,0.0,0.0,0.0,0.0,0.0,0.0,0.0,0.0,0.0,0.0,0.0,0.0,0.0,0.0,0.0,0.0,0.0,0.0,0.0,0.0,0.0,0.0,0.0,0.0,0.0,0.0,0.0,0.0,0.0,0.0,0.0,0.0,3.1467,3.1467,3.1467,3.1467,3.1452,0.0,0.0,0.0,0.0,0.0,0.0,0.0,0.0,0.0,0.0,0.0,0.0,0.0,0.0,0.0,0.0,0.0,0.0,0.0,0.0,0.0,0.0,0.0,0.0,0.0,0.0,0.0,0.0,0.0,0.0,0.0,0.0,0.0,0.0,0.0,0.0,0.0,0.0,0.0,0.0,0.0,0.0,0.0,0.0,0.0,0.0,0.0,0.0,0.0,0.0,0.0,0.0,0.0,0.0,0.0,0.0,0.0,0.0,0.0,0.0,0.0,0.0,0.0,0.0,0.0,0.0,0.0,0.0,0.0,0.0,0.0,0.0,0.0,0.0,0.0,0.0,0.0,0.0,0.0,0.0,0.0,0.0,0.0,0.0,0.0,0.0,0.0,0.0,0.0,0.0,0.0,0.0,0.0,0.0,0.0,0.0,0.0,0.0,0.0,0.0,0.0,0.0,0.0,0.0,0.0,0.0,0.0,0.0,0.0,0.0,0.0,0.0,3.1424,3.1332,3.0991,0.0,0.0,0.0,0.0,0.0,0.0,0.0,0.0,0.0,0.0,0.0,0.0,0.0,0.0,0.0,0.0,0.0,0.0,0.0,0.0,0.0,0.0,0.0,0.0,0.0,0.0,0.0,0.0,0.0,0.0,0.0,0.0,0.0,0.0,0.0,0.0,0.0,0.0,0.0,0.0,0.0,0.0,0.0,0.0,0.0,0.0,0.0,0.0,0.0,0.0,0.0,0.0,0.0,0.0,0.0,0.0,0.0,0.0,0.0,0.0,0.0,0.0,0.0,0.0,0.0,0.0,0.0,0.0,0.0,0.0,0.0,0.0,0.0,0.0,0.0,0.0,0.0,0.0,0.0,0.0,0.0,0.0,0.0,0.0,0.0,0.0,0.0,0.0,0.0,0.0,0.0,0.0,0.0,0.0,0.0,0.0,0.0,0.0,0.0,0.0,0.0,0.0,0.0,0.0,0.0,0.0,0.0,0.0,0.0,0.0,3.1439,3.1249,3.1307,0.0,2.9659,0.0,0.0,0.0,0.0,0.0,0.0,0.0,0.0,0.0,0.0,0.0,0.0,0.0,0.0,0.0,0.0,0.0,0.0,0.0,0.0,0.0,0.0,0.0,0.0,0.0,0.0,0.0,0.0,0.0,0.0,0.0,0.0,0.0,0.0,0.0,0.0,0.0,0.0,0.0,0.0,0.0,0.0,0.0,0.0,0.0,0.0,0.0,0.0,0.0,0.0,0.0,0.0,0.0,0.0,0.0,0.0,0.0,0.0,0.0,0.0,0.0,0.0,0.0,0.0,0.0,0.0,0.0,0.0,0.0,0.0,0.0,0.0,0.0,0.0,0.0,0.0,0.0,0.0,0.0,0.0,0.0,0.0,0.0,0.0,0.0,0.0,0.0,0.0,0.0,0.0,0.0,0.0,0.0,0.0,0.0,0.0,0.0,0.0,0.0,0.0,0.0,0.0,0.0,0.0,0.0,0.0,0.0,0.0,0.0,0.0,3.1322,3.1191,3.1102,3.0352,0.0,0.0,0.0,0.0,0.0,0.0,0.0,0.0,0.0,0.0,0.0,0.0,0.0,0.0,0.0,0.0,0.0,0.0,0.0,0.0,0.0,0.0,0.0,0.0,0.0,0.0,0.0,0.0,0.0,0.0,0.0,0.0,0.0,0.0,0.0,0.0,0.0,0.0,0.0,0.0,0.0,0.0,0.0,0.0,0.0,0.0,0.0,0.0,0.0,0.0,0.0,0.0,0.0,0.0,0.0,0.0,0.0,0.0,0.0,0.0,0.0,0.0,0.0,0.0,0.0,0.0,0.0,0.0,0.0,0.0,0.0,0.0,0.0,0.0,0.0,0.0,0.0,0.0,0.0,0.0,0.0,0.0,0.0,0.0,0.0,0.0,0.0,0.0,0.0,0.0,0.0,0.0,0.0,0.0,0.0,0.0,0.0,0.0,0.0,0.0,0.0,0.0,0.0,0.0,0.0,0.0,0.0,0.0,0.0,0.0,3.1278,3.1249,3.1043,3.0616,2.974,2.8597,0.0,0.0,0.0,0.0,0.0,0.0,0.0,0.0,0.0,0.0,0.0,0.0,0.0,0.0,0.0,0.0,0.0,0.0,0.0,0.0,0.0,0.0,0.0,0.0,0.0,0.0,0.0,0.0,0.0,0.0,0.0,0.0,0.0,0.0,0.0,0.0,0.0,0.0,0.0,0.0,0.0,0.0,0.0,0.0,0.0,0.0,0.0,0.0,0.0,0.0,0.0,0.0,0.0,0.0,0.0,0.0,0.0,0.0,0.0,0.0,0.0,0.0,0.0,0.0,0.0,0.0,0.0,0.0,0.0,0.0,0.0,0.0,0.0,0.0,0.0,0.0,0.0,0.0,0.0,0.0,0.0,0.0,0.0,0.0,0.0,0.0,0.0,0.0,0.0,0.0,0.0,0.0,0.0,0.0,0.0,0.0,0.0,0.0,0.0,0.0,0.0,0.0,0.0,0.0,0.0,0.0,0.0,0.0,3.1132,3.1234,3.1102,3.0762,2.9617,2.8927,0.0,0.0,0.0,0.0,0.0,0.0,0.0,0.0,0.0,0.0,0.0,0.0,0.0,0.0,0.0,0.0,0.0,0.0,0.0,0.0,0.0,0.0,0.0,0.0,0.0,0.0,0.0,0.0,0.0,0.0,0.0,0.0,0.0,0.0,0.0,0.0,0.0,0.0,0.0,0.0,0.0,0.0,0.0,0.0,0.0,0.0,0.0,0.0,0.0,0.0,0.0,0.0,0.0,0.0,0.0,0.0,0.0,0.0,0.0,0.0,0.0,0.0,0.0,0.0,0.0,0.0,0.0,0.0,0.0,0.0,0.0,0.0,0.0,0.0,0.0,0.0,0.0,0.0,0.0,0.0,0.0,0.0,0.0,0.0,0.0,0.0,0.0,0.0,0.0,0.0,0.0,0.0,0.0,0.0,0.0,0.0,0.0,0.0,0.0,0.0,0.0,0.0,0.0,0.0,0.0,0.0,0.0,0.0,0.0,3.1087,3.0628,2.9993,2.9233,2.9039,2.8638,0.0,0.0,0.0,0.0,0.0,0.0,0.0,0.0,0.0,0.0,0.0,0.0,0.0,0.0,0.0,0.0,0.0,0.0,0.0,0.0,0.0,0.0,0.0,0.0,0.0,0.0,0.0,0.0,0.0,0.0,0.0,0.0,0.0,0.0,0.0,0.0,0.0,0.0,0.0,0.0,0.0,0.0,0.0,0.0,0.0,0.0,0.0,0.0,0.0,0.0,0.0,0.0,0.0,0.0,0.0,0.0,0.0,0.0,0.0,0.0,0.0,0.0,0.0,0.0,0.0,0.0,0.0,0.0,0.0,0.0,0.0,0.0,0.0,0.0,0.0,0.0,0.0,0.0,0.0,0.0,0.0,0.0,0.0,0.0,0.0,0.0,0.0,0.0,0.0,0.0,0.0,0.0,0.0,0.0,0.0,0.0,0.0,0.0,0.0,0.0,0.0,0.0,0.0,0.0,0.0,0.0,0.0,0.0,0.0,3.0762,0.0,2.9071,2.861,2.8498,2.8112,0.0,0.0,0.0,0.0,0.0,0.0,0.0,0.0,0.0,0.0,0.0,0.0,0.0,0.0,0.0,0.0,0.0,0.0,0.0,0.0,0.0,0.0,0.0,0.0,0.0,0.0,0.0,0.0,0.0,0.0,0.0,0.0,0.0,0.0,0.0,0.0,0.0,0.0,0.0,0.0,0.0,0.0,0.0,0.0,0.0,0.0,0.0,0.0,0.0,0.0,0.0,0.0,0.0,0.0,0.0,0.0,0.0,0.0,0.0,0.0,0.0,0.0,0.0,0.0,0.0,0.0,0.0,0.0,0.0,0.0,0.0,0.0,0.0,0.0,0.0,0.0,0.0,0.0,0.0,0.0,0.0,0.0,0.0,0.0,0.0,0.0,0.0,0.0,0.0,0.0,0.0,0.0,0.0,0.0,0.0,0.0,0.0,0.0,0.0,0.0,0.0,0.0,0.0,0.0,0.0,0.0,0.0,0.0,3.0866,3.0083,2.8972,2.8627,2.9035,2.7994,2.7296,0.0,0.0,0.0,0.0,0.0,0.0,0.0,0.0,0.0,0.0,0.0,0.0,0.0,0.0,0.0,0.0,0.0,0.0,0.0,0.0,0.0,0.0,0.0,0.0,0.0,0.0,0.0,0.0,0.0,0.0,0.0,0.0,0.0,0.0,0.0,0.0,0.0,0.0,0.0,0.0,0.0,0.0,0.0,0.0,0.0,0.0,0.0,0.0,0.0,0.0,0.0,0.0,0.0,0.0,0.0,0.0,0.0,0.0,0.0,0.0,0.0,0.0,0.0,0.0,0.0,0.0,0.0,0.0,0.0,0.0,0.0,0.0,0.0,0.0,0.0,0.0,0.0,0.0,0.0,0.0,0.0,0.0,0.0,0.0,0.0,0.0,0.0,0.0,0.0,0.0,0.0,0.0,0.0,0.0,0.0,0.0,0.0,0.0,0.0,0.0,0.0,0.0,0.0,0.0,0.0,0.0,0.0,0.0,0.0,2.9614,2.955,2.9187,2.8665,2.8278,2.7655,0.0,0.0,0.0,0.0,0.0,0.0,0.0,0.0,0.0,0.0,0.0,0.0,0.0,0.0,0.0,0.0,0.0,0.0,0.0,0.0,0.0,0.0,0.0,0.0,0.0,0.0,0.0,0.0,0.0,0.0,0.0,0.0,0.0,0.0,0.0,0.0,0.0,0.0,0.0,0.0,0.0,0.0,0.0,0.0,0.0,0.0,0.0,0.0,0.0,0.0,0.0,0.0,0.0,0.0,0.0,0.0,0.0,0.0,0.0,0.0,0.0,0.0,0.0,0.0,0.0,0.0,0.0,0.0,0.0,0.0,0.0,0.0,0.0,0.0,0.0,0.0,0.0,0.0,0.0,0.0,0.0,0.0,0.0,0.0,0.0,0.0,0.0,0.0,0.0,0.0,0.0,0.0,0.0,0.0,0.0,0.0,0.0,0.0,0.0,0.0,0.0,0.0,0.0,0.0,0.0,0.0,0.0,0.0,0.0,2.9336,2.9777,2.9746,2.9052,2.883,2.8129,2.69,0.0,0.0,0.0,0.0,0.0,0.0,0.0,0.0,0.0,0.0,0.0,0.0,0.0,0.0,0.0,0.0,0.0,0.0,0.0,0.0,0.0,0.0,0.0,0.0,0.0,0.0,0.0,0.0,0.0,0.0,0.0,0.0,0.0,0.0,0.0,0.0,0.0,0.0,0.0,0.0,0.0,0.0,0.0,0.0,0.0,0.0,0.0,0.0,0.0,0.0,0.0,0.0,0.0,0.0,0.0,0.0,0.0,0.0,0.0,0.0,0.0,0.0,0.0,0.0,0.0,0.0,0.0,0.0,0.0,0.0,0.0,0.0,0.0,0.0,0.0,0.0,0.0,0.0,0.0,0.0,0.0,0.0,0.0,0.0,0.0,0.0,0.0,0.0,0.0,0.0,0.0,0.0,0.0,0.0,0.0,0.0,0.0,0.0,0.0,0.0,0.0,0.0,0.0,0.0,0.0,0.0,0.0,0.0,2.9101,2.9774,3.0095,2.993,2.9568,2.8708,0.0,0.0,0.0,0.0,0.0,0.0,0.0,0.0,0.0,0.0,0.0,0.0,0.0,0.0,0.0,0.0,0.0,0.0,0.0,0.0,0.0,0.0,0.0,0.0,0.0,0.0,0.0,0.0,0.0,0.0,0.0,0.0,0.0,0.0,0.0,0.0,0.0,0.0,0.0,0.0,0.0,0.0,0.0,0.0,0.0,0.0,0.0,0.0,0.0,0.0,0.0,0.0,0.0,0.0,0.0,0.0,0.0,0.0,0.0,0.0,0.0,0.0,0.0,0.0,0.0,0.0,0.0,0.0,0.0,0.0,0.0,0.0,0.0,0.0,0.0,0.0,0.0,0.0,0.0,0.0,0.0,0.0,0.0,0.0,0.0,0.0,0.0,0.0,0.0,0.0,0.0,0.0,0.0,0.0,0.0,0.0,0.0,0.0,0.0,0.0,0.0,0.0,0.0,0.0,0.0,0.0,0.0,0.0,0.0,2.9158,3.0193,3.0049,2.8897,2.9366,2.8613,0.0,0.0,0.0,0.0,0.0,0.0,0.0,0.0,0.0,0.0,0.0,0.0,0.0,0.0,0.0,0.0,0.0,0.0,0.0,0.0,0.0,0.0,0.0,0.0,0.0,0.0,0.0,0.0,0.0,0.0,0.0,0.0,0.0,0.0,0.0,0.0,0.0,0.0,0.0,0.0,0.0,0.0,0.0,0.0,0.0,0.0,0.0,0.0,0.0,0.0,0.0,0.0,0.0,0.0,0.0,0.0,0.0,0.0,0.0,0.0,0.0,0.0,0.0,0.0,0.0,0.0,0.0,0.0,0.0,0.0,0.0,0.0,0.0,0.0,0.0,0.0,0.0,0.0,0.0,0.0,0.0,0.0,0.0,0.0,0.0,0.0,0.0,0.0,0.0,0.0,0.0,0.0,0.0,0.0,0.0,0.0,0.0,0.0,0.0,0.0,0.0,0.0,0.0,0.0,0.0,0.0,0.0,0.0,2.8039,2.8414,2.8961,2.8799,2.7637,2.8651,2.84,0.0,0.0,0.0,0.0,0.0,0.0,0.0,0.0,0.0,0.0,0.0,0.0,0.0,0.0,0.0,0.0,0.0,0.0,0.0,0.0,0.0,0.0,0.0,0.0,0.0,0.0,0.0,0.0,0.0,0.0,0.0,0.0,0.0,0.0,0.0,0.0,0.0,0.0,0.0,0.0,0.0,0.0,0.0,0.0,0.0,0.0,0.0,0.0,0.0,0.0,0.0,0.0,0.0,0.0,0.0,0.0,0.0,0.0,0.0,0.0,0.0,0.0,0.0,0.0,0.0,0.0,0.0,0.0,0.0,0.0,0.0,0.0,0.0,0.0,0.0,0.0,0.0,0.0,0.0,0.0,0.0,0.0,0.0,0.0,0.0,0.0,0.0,0.0,0.0,0.0,0.0,0.0,0.0,0.0,0.0,0.0,0.0,0.0,0.0,0.0,0.0,0.0,0.0,0.0,0.0,0.0,0.0,0.0,2.7303,2.7274,2.722,2.6973,2.6476,2.7484,2.7849,0.0,0.0,0.0,0.0,0.0,0.0,0.0,0.0,0.0,0.0,0.0,0.0,0.0,0.0,0.0,0.0,0.0,0.0,0.0,0.0,0.0,0.0,0.0,0.0,0.0,0.0,0.0,0.0,0.0,0.0,0.0,0.0,0.0,0.0,0.0,0.0,0.0,0.0,0.0,0.0,0.0,0.0,0.0,0.0,0.0,0.0,0.0,0.0,0.0,0.0,0.0,0.0,0.0,0.0,0.0,0.0,0.0,0.0,0.0,0.0,0.0,0.0,0.0,0.0,0.0,0.0,0.0,0.0,0.0,0.0,0.0,0.0,0.0,0.0,0.0,0.0,0.0,0.0,0.0,0.0,0.0,0.0,0.0,0.0,0.0,0.0,0.0,0.0,0.0,0.0,0.0,0.0,0.0,0.0,0.0,0.0,0.0,0.0,0.0,0.0,0.0,0.0,0.0,0.0,0.0,0.0,0.0,0.0,2.6705,2.6782,2.6997,2.6645,2.5564,2.502,2.5206,0.0,0.0,0.0,0.0,0.0,0.0,0.0,0.0,0.0,0.0,0.0,0.0,0.0,0.0,0.0,0.0,0.0,0.0,0.0,0.0,0.0,0.0,0.0,0.0,0.0,0.0,0.0,0.0,0.0,0.0,0.0,0.0,0.0,0.0,0.0,0.0,0.0,0.0,0.0,0.0,0.0,0.0,0.0,0.0,0.0,0.0,0.0,0.0,3.1378,0.0,0.0,0.0,0.0,0.0,0.0,0.0,0.0,0.0,0.0,0.0,0.0,0.0,0.0,0.0,0.0,0.0,0.0,0.0,0.0,0.0,0.0,0.0,0.0,0.0,0.0,0.0,0.0,0.0,0.0,0.0,0.0,0.0,0.0,0.0,0.0,0.0,0.0,0.0,0.0,0.0,0.0,0.0,0.0,0.0,0.0,0.0,0.0,0.0,0.0,0.0,0.0,0.0,0.0,0.0,0.0,0.0,0.0,0.0,2.6504,2.6553,2.6588,2.6261,2.5551,2.4658,2.4661,0.0,0.0,0.0,0.0,0.0,0.0,0.0,0.0,0.0,0.0,0.0,0.0,0.0,0.0,0.0,0.0,0.0,0.0,0.0,0.0,0.0,0.0,0.0,0.0,0.0,0.0,0.0,0.0,0.0,0.0,0.0,0.0,0.0,0.0,0.0,0.0,0.0,0.0,0.0,0.0,0.0,0.0,0.0,0.0,0.0,0.0,0.0,0.0,0.0,0.0,0.0,0.0,0.0,0.0,0.0,0.0,0.0,0.0,0.0,0.0,0.0,0.0,0.0,0.0,0.0,0.0,0.0,0.0,0.0,0.0,0.0,0.0,0.0,0.0,0.0,0.0,0.0,0.0,0.0,0.0,0.0,0.0,0.0,0.0,0.0,0.0,0.0,0.0,0.0,0.0,0.0,0.0,0.0,0.0,0.0,0.0,0.0,0.0,0.0,0.0,0.0,0.0,0.0,0.0,0.0,0.0,0.0,2.5837,2.6267,2.605,2.6106,2.5913,2.5549,2.4794,2.4766,2.5581,0.0,0.0,0.0,0.0,0.0,0.0,0.0,0.0,0.0,0.0,0.0,0.0,0.0,0.0,0.0,0.0,0.0,0.0,0.0,0.0,0.0,0.0,0.0,0.0,0.0,0.0,0.0,0.0,0.0,0.0,0.0,0.0,0.0,0.0,0.0,0.0,0.0,0.0,3.1951,3.2149,0.0,0.0,0.0,0.0,0.0,0.0,0.0,0.0,3.392,0.0,0.0,0.0,0.0,0.0,0.0,0.0,0.0,0.0,0.0,0.0,0.0,0.0,0.0,0.0,0.0,0.0,0.0,0.0,0.0,0.0,0.0,0.0,0.0,0.0,0.0,0.0,0.0,0.0,0.0,0.0,0.0,0.0,0.0,0.0,0.0,0.0,0.0,0.0,0.0,0.0,0.0,0.0,0.0,0.0,0.0,0.0,0.0,0.0,0.0,0.0,0.0,0.0,0.0,0.0,0.0,2.3849,2.513,2.5327,2.4343,2.6051,2.6116,2.4272,2.3957,2.4225,2.4803,0.0,0.0,0.0,0.0,0.0,0.0,0.0,0.0,0.0,0.0,0.0,0.0,0.0,0.0,0.0,0.0,0.0,0.0,0.0,0.0,0.0,0.0,0.0,0.0,0.0,0.0,0.0,0.0,0.0,0.0,0.0,0.0,0.0,0.0,0.0,0.0,0.0,0.0,0.0,3.3674,3.4066,0.0,0.0,0.0,0.0,0.0,0.0,0.0,0.0,3.3549,0.0,0.0,0.0,0.0,0.0,0.0,0.0,0.0,0.0,0.0,0.0,0.0,0.0,0.0,0.0,0.0,0.0,0.0,0.0,0.0,0.0,0.0,0.0,0.0,0.0,0.0,0.0,0.0,0.0,0.0,0.0,0.0,0.0,0.0,0.0,0.0,0.0,0.0,0.0,0.0,0.0,0.0,0.0,0.0,0.0,0.0,0.0,0.0,0.0,0.0,0.0,0.0,0.0,0.0,0.0,2.3289,2.3775,2.4031,2.3916,2.5135,2.5084,2.3627,2.3716,2.3648,0.0,0.0,0.0,0.0,0.0,0.0,0.0,0.0,0.0,0.0,0.0,0.0,0.0,0.0,0.0,0.0,0.0,0.0,0.0,0.0,0.0,0.0,0.0,0.0,0.0,0.0,0.0,0.0,0.0,0.0,0.0,0.0,0.0,0.0,0.0,0.0,0.0,0.0,0.0,0.0,3.4436,3.4512,3.5445,0.0,0.0,0.0,0.0,0.0,0.0,3.3134,3.2885,0.0,0.0,0.0,0.0,0.0,0.0,0.0,0.0,0.0,0.0,0.0,0.0,0.0,0.0,0.0,0.0,0.0,0.0,0.0,0.0,0.0,0.0,0.0,0.0,0.0,0.0,0.0,0.0,0.0,0.0,0.0,0.0,0.0,0.0,0.0,0.0,0.0,0.0,0.0,0.0,0.0,0.0,0.0,0.0,0.0,0.0,0.0,0.0,0.0,0.0,0.0,0.0,0.0,0.0,0.0,2.2622,2.2573,2.2734,2.3243,2.4065,2.4021,2.3057,2.3241,2.291,0.0,0.0,0.0,0.0,0.0,0.0,0.0,0.0,0.0,0.0,0.0,0.0,0.0,0.0,0.0,0.0,0.0,0.0,0.0,0.0,0.0,0.0,0.0,0.0,0.0,0.0,0.0,0.0,0.0,0.0,0.0,0.0,0.0,0.0,0.0,0.0,0.0,0.0,0.0,0.0,0.0,3.5027,3.5126,3.5544,0.0,0.0,0.0,0.0,3.2712,3.2789,0.0,0.0,0.0,0.0,0.0,0.0,0.0,0.0,0.0,0.0,0.0,0.0,0.0,0.0,0.0,0.0,0.0,0.0,0.0,0.0,0.0,0.0,0.0,0.0,0.0,0.0,0.0,0.0,0.0,0.0,0.0,0.0,0.0,0.0,0.0,0.0,0.0,0.0,0.0,0.0,0.0,0.0,0.0,0.0,0.0,0.0,0.0,0.0,0.0,0.0,0.0,0.0,0.0,0.0,0.0,0.0,2.1771,2.2268,2.2089,2.1321,2.3365,2.3673,2.1924,2.189,2.1949,0.0,0.0,0.0,0.0,0.0,0.0,0.0,0.0,0.0,0.0,0.0,0.0,0.0,0.0,0.0,0.0,0.0,0.0,0.0,0.0,0.0,0.0,0.0,0.0,0.0,0.0,0.0,0.0,0.0,0.0,0.0,0.0,0.0,0.0,0.0,0.0,0.0,0.0,0.0,0.0,0.0,3.6006,3.6066,3.6641,3.6271,0.0,0.0,3.3947,3.2597,3.2779,0.0,0.0,0.0,0.0,0.0,0.0,0.0,0.0,0.0,0.0,0.0,0.0,0.0,0.0,0.0,0.0,0.0,0.0,0.0,0.0,0.0,0.0,0.0,0.0,0.0,0.0,0.0,0.0,0.0,0.0,0.0,0.0,0.0,0.0,0.0,0.0,0.0,0.0,0.0,0.0,0.0,0.0,0.0,0.0,0.0,0.0,0.0,0.0,0.0,0.0,0.0,0.0,0.0,0.0,0.0,2.109,2.0555,2.0525,2.032,2.0,2.1199,2.1398,2.0497,2.0568,2.0671,0.0,0.0,0.0,0.0,0.0,0.0,0.0,0.0,0.0,0.0,0.0,0.0,0.0,0.0,0.0,0.0,0.0,0.0,0.0,0.0,0.0,0.0,0.0,0.0,0.0,0.0,0.0,0.0,0.0,0.0,0.0,0.0,0.0,0.0,0.0,0.0,0.0,0.0,0.0,0.0,0.0,0.0,3.4569,3.5573,0.0,0.0,0.0,3.3465,3.2245,0.0,0.0,0.0,0.0,0.0,0.0,0.0,0.0,0.0,0.0,0.0,0.0,0.0,0.0,0.0,0.0,0.0,0.0,0.0,0.0,0.0,0.0,0.0,0.0,0.0,0.0,0.0,0.0,0.0,0.0,0.0,0.0,0.0,0.0,0.0,0.0,0.0,0.0,0.0,0.0,0.0,0.0,0.0,0.0,0.0,0.0,0.0,0.0,0.0,0.0,0.0,0.0,0.0,0.0,0.0,0.0,0.0,1.9165,1.8793,1.858,1.8699,1.9182,1.9274,1.8902,1.8994,0.0,0.0,0.0,0.0,0.0,0.0,0.0,0.0,0.0,0.0,0.0,0.0,0.0,0.0,0.0,0.0,0.0,0.0,0.0,0.0,0.0,0.0,0.0,0.0,0.0,0.0,0.0,2.2494,0.0,0.0,0.0,0.0,0.0,0.0,0.0,0.0,0.0,0.0,0.0,0.0,0.0,0.0,3.4193,3.3084,3.4414,3.4578,0.0,0.0,3.2867,3.1698,3.1678,3.1307,0.0,0.0,0.0,0.0,0.0,0.0,0.0,0.0,0.0,0.0,0.0,0.0,0.0,0.0,0.0,0.0,0.0,0.0,0.0,0.0,0.0,0.0,0.0,0.0,0.0,0.0,0.0,0.0,0.0,0.0,0.0,0.0,0.0,0.0,0.0,0.0,0.0,0.0,0.0,0.0,0.0,0.0,0.0,0.0,0.0,0.0,0.0,0.0,0.0,0.0,0.0,0.0,0.0,0.0,1.9064,1.773,1.7595,1.7274,1.6885,1.8099,1.8255,1.7109,1.7084,1.715,0.0,0.0,0.0,0.0,0.0,0.0,0.0,0.0,0.0,0.0,0.0,0.0,0.0,0.0,0.0,0.0,0.0,0.0,0.0,0.0,0.0,0.0,0.0,0.0,0.0,0.0,0.0,0.0,0.0,0.0,0.0,0.0,0.0,0.0,0.0,0.0,0.0,0.0,0.0,0.0,0.0,3.4209,3.3027,3.3625,3.36,0.0,3.2521,3.2276,3.0591,3.1031,3.0878,2.8676,0.0,0.0,0.0,0.0,0.0,0.0,0.0,0.0,0.0,0.0,0.0,0.0,0.0,0.0,0.0,0.0,0.0,0.0,0.0,0.0,0.0,0.0,0.0,0.0,0.0,0.0,0.0,0.0,0.0,0.0,0.0,0.0,0.0,0.0,0.0,0.0,0.0,0.0,0.0,0.0,0.0,0.0,0.0,0.0,0.0,0.0,0.0,0.0,0.0,0.0,0.0,0.0,0.0,1.7688,1.7199,1.6628,1.6263,1.6203,1.7031,1.7193,1.6521,1.5375,1.5479,0.0,0.0,0.0,0.0,0.0,0.0,0.0,0.0,0.0,0.0,0.0,0.0,0.0,0.0,0.0,0.0,0.0,0.0,0.0,0.0,0.0,0.0,0.0,0.0,0.0,0.0,0.0,0.0,2.2026,2.2327,2.2447,0.0,0.0,0.0,0.0,0.0,0.0,0.0,0.0,0.0,0.0,3.2577,3.2448,3.2783,0.0,0.0,3.0598,3.0447,2.9115,2.904,2.9101,2.895,2.8511,0.0,0.0,0.0,0.0,0.0,0.0,0.0,0.0,0.0,0.0,0.0,0.0,0.0,0.0,0.0,0.0,0.0,0.0,0.0,0.0,0.0,0.0,0.0,0.0,0.0,0.0,0.0,0.0,0.0,0.0,0.0,0.0,0.0,0.0,0.0,0.0,0.0,0.0,0.0,0.0,0.0,0.0,0.0,0.0,0.0,0.0,0.0,0.0,0.0,0.0,0.0,0.0,1.6577,1.6287,1.5594,1.5155,1.5133,1.5574,1.5721,1.5493,1.4389,1.4426,0.0,0.0,0.0,0.0,0.0,0.0,0.0,0.0,0.0,0.0,0.0,0.0,0.0,0.0,0.0,0.0,0.0,0.0,0.0,0.0,0.0,0.0,0.0,0.0,0.0,0.0,0.0,0.0,2.151,2.1897,2.2197,0.0,0.0,0.0,0.0,0.0,0.0,0.0,0.0,0.0,0.0,3.0732,3.137,3.1092,3.0533,2.9603,2.948,2.9075,2.799,2.7659,2.7584,2.7886,0.0,0.0,0.0,0.0,0.0,0.0,0.0,0.0,0.0,0.0,0.0,0.0,0.0,0.0,0.0,0.0,0.0,0.0,0.0,0.0,0.0,0.0,0.0,0.0,0.0,0.0,0.0,1.7657,0.0,0.0,1.9228,0.0,0.0,0.0,0.0,0.0,0.0,0.0,0.0,0.0,0.0,0.0,0.0,0.0,0.0,0.0,0.0,0.0,0.0,0.0,0.0,0.0,0.0,1.5931,1.4547,1.422,1.3898,1.3574,1.3531,1.3749,1.3969,1.4122,1.409,1.3621,0.0,0.0,0.0,0.0,0.0,0.0,0.0,0.0,0.0,0.0,0.0,0.0,0.0,0.0,0.0,0.0,0.0,0.0,0.0,0.0,0.0,0.0,0.0,0.0,0.0,0.0,2.1951,2.1397,2.1335,0.0,0.0,0.0,0.0,0.0,0.0,0.0,0.0,0.0,2.8836,2.8697,2.8907,2.9773,2.8319,2.7834,2.9646,2.942,2.8578,2.7308,2.7188,2.66,0.0,0.0,0.0,0.0,0.0,0.0,0.0,0.0,0.0,0.0,0.0,0.0,0.0,0.0,0.0,0.0,0.0,0.0,0.0,0.0,0.0,0.0,0.0,0.0,0.0,0.0,0.0,1.7176,1.8052,0.0,0.0,0.0,0.0,0.0,0.0,0.0,0.0,0.0,0.0,0.0,1.7752,1.7406,0.0,0.0,0.0,0.0,0.0,0.0,0.0,0.0,0.0,0.0,0.0,0.0,1.4387,1.3782,1.3147,1.3047,1.3489,1.3829,1.3969,1.39,1.3847,1.3679,1.3464,0.0,0.0,0.0,0.0,0.0,0.0,0.0,0.0,0.0,0.0,0.0,0.0,0.0,0.0,0.0,0.0,0.0,0.0,0.0,0.0,0.0,0.0,0.0,0.0,0.0,2.2278,0.0,0.0,0.0,0.0,0.0,0.0,0.0,0.0,0.0,0.0,0.0,2.7871,2.8028,2.8157,2.8331,2.868,2.7886,2.7096,0.0,0.0,0.0,0.0,0.0,0.0,0.0,0.0,0.0,0.0,0.0,0.0,0.0,0.0,2.1487,2.3342,2.3909,2.3965,2.3965,0.0,0.0,0.0,0.0,0.0,0.0,0.0,0.0,0.0,0.0,0.0,0.0,0.0,0.0,1.5878,0.0,1.7398,0.0,0.0,0.0,0.0,0.0,0.0,0.0,0.0,1.6636,1.654,1.6561,1.6315,1.6331,0.0,1.6719,1.6984,0.0,0.0,0.0,0.0,0.0,0.0,0.0,0.0,1.2886,1.2679,1.1911,1.1791,1.2355,1.3614,1.3944,1.3292,1.3197,1.3221,1.3195,1.3358,1.3514,0.0,0.0,0.0,0.0,0.0,0.0,0.0,0.0,0.0,0.0,0.0,0.0,0.0,0.0,0.0,0.0,0.0,0.0,0.0,0.0,0.0,0.0,0.0,2.1342,0.0,0.0,0.0,0.0,0.0,0.0,0.0,0.0,0.0,2.5228,2.59,2.628,2.6582,2.6607,2.6793,2.6912,0.0,0.0,0.0,0.0,0.0,0.0,0.0,2.2168,2.2628,2.2289,2.1858,2.1276,2.0392,1.9794,1.9893,0.0,0.0,2.1677,2.2027,2.2096,2.1856,2.1458,2.1033,2.0323,2.009,1.9724,0.0,0.0,0.0,0.0,0.0,0.0,0.0,0.0,1.3167,1.3732,0.0,1.564,0.0,0.0,0.0,0.0,1.4443,1.4837,0.0,0.0,1.5432,1.577,1.5948,1.5977,1.591,1.5651,1.5569,1.5466,1.5362,1.5345,0.0,0.0,0.0,0.0,0.0,0.0,1.1516,1.1335,1.0373,1.0017,1.0433,1.2797,1.3487,1.2118,1.2382,1.2643,1.2699,1.2876,1.2916,1.2779,1.396,0.0,0.0,0.0,0.0,0.0,0.0,0.0,0.0,0.0,0.0,0.0,0.0,0.0,0.0,0.0,0.0,0.0,0.0,0.0,0.0,1.9696,0.0,0.0,0.0,0.0,0.0,0.0,0.0,0.0,0.0,0.0,2.3601,2.4212,2.4418,2.4508,0.0,0.0,0.0,0.0,2.2838,2.3983,2.3863,2.3295,2.2515,2.1593,2.0687,1.9917,0.0,0.0,1.8777,1.8917,1.8885,1.8785,1.9029,1.9305,1.9004,1.8987,1.8722,1.8074,1.7924,1.7463,1.6868,1.6943,1.6823,0.9074,0.0,0.0,0.0,0.0,1.0695,1.1134,1.1655,1.1061,1.1609,1.2727,1.2803,0.0,0.0,0.0,0.0,0.0,0.0,1.2826,1.2313,1.2481,1.2483,1.2188,1.2357,1.2439,1.2352,1.2425,1.2334,1.1995,1.1805,1.265,1.4462,0.0,0.0,0.0,0.0,1.0818,1.0088,0.9728,0.9794,1.0239,1.088,1.1071,1.0905,1.092,1.1217,1.1839,1.188,1.2283,1.2998,1.3389,0.0,0.0,0.0,0.0,0.0,0.0,0.0,0.0,0.0,0.0,0.0,0.0,0.0,0.0,0.0,0.0,0.0,0.0,0.0,1.8744,1.8468,1.8524,0.0,0.0,0.0,0.0,0.0,0.0,0.0,0.0,0.0,2.0841,2.2088,2.3112,0.0,0.0,2.3402,2.3113,2.2046,2.1339,2.1479,2.0501,0.0,1.9618,1.9299,1.908,1.8861,1.8046,1.7433,1.7715,1.7334,1.6808,1.6402,1.6414,1.6355,1.5929,1.7354,1.8207,1.755,1.7248,1.6997,1.6268,1.6028,1.5617,0.6311,0.726,0.8916,0.9371,0.9084,0.9059,0.944,0.9997,0.9541,0.9973,1.1109,1.1086,1.1126,1.1066,1.0711,0.0,0.0,0.0,1.106,1.085,1.0855,1.08,1.0643,1.0772,1.0877,1.0953,1.1001,1.0934,1.0758,1.0295,1.1066,1.2807,0.0,0.0,1.0353,1.0054,0.9514,0.8856,0.8597,0.874,0.9055,0.9298,0.938,0.9296,0.9922,1.0548,1.1005,1.1101,1.1551,1.2468,1.2603,1.2994,0.0,0.0,0.0,0.0,0.0,0.0,0.0,0.0,0.0,0.0,0.0,1.7742,1.7913,0.0,0.0,0.0,1.7969,1.7561,1.7368,1.7379,0.0,0.0,0.0,0.0,0.0,0.0,0.0,1.9261,1.8814,1.8556,1.8442,1.9406,2.0304,2.0681,2.1017,2.1079,2.067,0.0,1.9444,1.9312,1.8492,1.7994,1.8154,1.783,1.7523,1.7175,1.6908,1.672,1.6759,1.6387,1.5862,1.5294,1.5241,1.5022,1.407,1.5072,1.5893,1.5674,1.5504,1.5135,1.4399,1.4275,1.3999,0.4212,0.4084,0.6691,0.7761,0.7724,0.758,0.79,0.8401,0.8301,0.8771,0.9731,1.001,0.9801,0.9161,0.9076,0.0,0.962,0.945,0.9557,1.0002,0.9989,1.0167,1.0343,1.0362,1.0464,1.0635,1.0492,1.0496,1.0513,1.009,0.9899,1.0027,0.931,0.8868,0.8804,0.8291,0.7947,0.7796,0.733,0.7139,0.7143,0.8162,0.8317,0.7681,0.9221,1.0172,1.0283,1.0283,1.0639,1.1394,1.176,1.2236,1.3008,0.0,0.0,0.0,0.0,0.0,0.0,0.0,0.0,0.0,0.0,0.0,0.0,0.0,0.0,1.8525,1.7401,0.0,1.5921,1.638,0.0,0.0,0.0,1.8816,1.7985,1.7973,1.751,1.6407,0.0,0.0,1.6592,1.6624,1.6813,1.7331,1.7925,1.8185,1.7721,1.7556,1.747,1.7415,1.7272,1.716,1.6821,1.6243,1.5641,1.5046,1.5271,1.5513,1.5418,1.5565,1.5386,1.449,1.4735,1.4304,1.2899,1.2121,1.1928,1.2636,1.2789,1.2572,1.1925,1.1829,1.1857,0.2251,0.2318,0.4238,0.4762,0.454,0.6459,0.7189,0.691,0.691,0.7198,0.7677,0.7774,0.762,0.7436,0.7399,0.7382,0.7567,0.7478,0.7495,0.7616,0.7506,0.7559,0.7692,0.7716,0.7788,0.7834,0.8129,0.8215,0.8106,0.8131,0.8063,0.7816,0.7694,0.7899,0.85,0.8076,0.7666,0.7264,0.7122,0.7139,0.7139,0.7351,0.7513,0.7633,0.7945,0.8578,0.9444,0.9457,1.0026,1.1255,1.1272,1.1577,1.2557,1.2414,0.0,0.0,0.0,0.0,0.0,0.0,0.0,0.0,0.0,1.6308,1.6365,0.0,1.6651,0.0,1.6178,1.5913,1.5429,1.5749,0.0,0.0,1.5967,1.6384,1.6434,1.657,1.6613,1.6596,1.6529,1.6337,1.5879,1.5773,1.5612,1.5098,1.641,1.7392,1.7354,1.6087,1.5252,1.5287,1.4049,1.297,1.3193,1.2903,1.2785,1.2499,1.2462,1.2397,1.2397,1.2185,1.1837,1.1198,1.11,1.0745,0.9995,0.9648,0.9658,0.9767,1.0131,1.0176,0.9847,0.9953,1.0082,0.1171,0.1645,0.2054,0.2073,0.1891,0.3386,0.4401,0.4941,0.4941,0.514,0.5331,0.6325,0.6822,0.6834,0.6584,0.6652,0.675,0.6652,0.6652,0.6838,0.6768,0.6737,0.6833,0.6629,0.6694,0.6849,0.703,0.7221,0.7324,0.7253,0.7201,0.7068,0.7068,0.73,0.7841,0.7581,0.7323,0.7139,0.7139,0.7139,0.7143,0.7207,0.7559,0.8295,0.8081,0.8428,0.9359,0.9457,0.9994,1.1295,1.1158,1.146,1.2463,1.2267,1.237,0.0,0.0,0.0,0.0,0.0,0.0,0.0,0.0,0.0,0.0,0.0,1.5333,1.5026,1.5033,1.5082,1.4909,1.5087,1.5192,1.4975,1.5395,1.557,1.5534,1.5701,1.5828,1.566,1.5571,1.5464,1.4934,1.4928,1.4493,1.3521,1.4375,1.5035,1.5026,1.4198,1.3414,1.3021,1.197,1.1177,1.1228,1.1256,1.1169,1.1121,1.1075,1.1,1.1,1.0876,1.0635,0.9923,0.9805,0.9562,0.8958,0.8471,0.823,0.8139,0.8065,0.8155,0.8874,0.9068,0.9148,0.0488,0.1268,0.0392,-0.0,-0.0,-0.0,0.1081,0.28,0.2792,0.2795,0.2897,0.5314,0.6566,0.6875,0.6376,0.6325,0.6709,0.6513,0.6504,0.6777,0.6786,0.6685,0.6378,0.6097,0.6067,0.6276,0.6263,0.6655,0.7359,0.7031,0.6898,0.6958,0.6857,0.6872,0.7091,0.6992,0.6982,0.7139,0.7139,0.7139,0.7143,0.7361,0.7985,0.9005,0.885,0.9007,0.9565,0.9565,1.0104,1.1257,1.1174,1.1472,1.2397,1.2337,1.2357,0.0,1.258,0.0,0.0,0.0,0.0,0.0,0.0,0.0,0.0,1.4536,1.4324,1.4153,1.4204,1.433,1.4471,1.4528,1.4741,1.5114,1.5407,1.5383,1.5047,1.5199,1.5035,1.4304,1.4196,1.4196,1.4196,1.4083,1.3527,1.2639,1.2422,1.2288,1.2113,1.2036,1.1624,1.0898,1.0489,1.0067,0.9928,1.0066,1.0117,0.9905,0.9905,1.0244,1.0023,1.003,0.9909,0.9316,0.9076,0.8955,0.8471,0.7739,0.7253,0.7133,0.6602,0.6636,0.7907,0.8275,0.8497,0.0095,0.0282,0.0097,-0.0,-0.0,-0.0,0.0189,0.0578,0.0568,0.0569,0.0865,0.4703,0.6452,0.6528,0.6412,0.6401,0.6504,0.6401,0.6448,0.6454,0.6454,0.5516,0.371,0.3612,0.3554,0.3619,0.3799,0.4778,0.658,0.6949,0.7062,0.6832,0.6059,0.6089,0.6989,0.0,0.0,0.0,0.7139,0.7139,0.7139,0.7701,0.8255,0.8617,0.8895,0.0,0.9257,0.9168,0.9454,1.0167,1.0288,0.0,0.0,0.0,0.0,0.0,0.0,0.0,0.0,0.0,0.0,0.0,1.3481,1.3777,1.3879,1.4091,1.425,1.4523,1.4671,1.4539,1.4118,1.4213,1.4172,1.359,1.383,1.3973,1.4002,1.4248,1.4407,1.4191,1.4196,1.4191,1.4083,1.3418,1.2639,1.2304,1.1546,1.0741,0.9894,0.9767,0.9673,0.9394,0.8787,0.8055,0.7735,0.7854,0.7886,0.7538,0.722,0.7271,0.7347,0.7128,0.6888,0.6771,0.6648,0.6648,0.6526,0.6283,0.6283,0.616,0.6054,0.606,0.6412,0.6467,0.6522,-0.0951,-0.0,-0.0,-0.0,0.0,-0.0,-0.0,-0.0,-0.0,-0.0,-0.0,0.2284,0.3796,0.4847,0.4847,0.4847,0.4847,0.4847,0.482,0.4879,0.5887,0.5758,0.4516,0.245,0.1477,0.1491,0.1588,0.2183,0.3276,0.4573,0.5194,0.5047,0.4512,0.4631,0.5272,0.5538,0.623,0.7051,0.7139,0.7173,0.7251,0.7617,0.8065,0.8609,0.8775,0.0,0.0,0.0,0.0,0.0,0.0,0.0,0.0,1.1764,0.0,1.2487,1.2141,1.2064,1.2318,1.2222,1.2192,1.2283,1.2661,1.3036,1.3393,1.3341,1.3391,1.3855,1.3922,1.3952,1.3794,1.3813,1.3786,1.3398,1.3502,1.3696,1.3714,1.3495,1.33,1.3192,1.2758,1.2432,1.2432,1.1987,1.1324,1.0781,1.0233,0.9386,0.8453,0.8693,0.8825,0.8332,0.7721,0.7104,0.6915,0.6645,0.6539,0.6282,0.6109,0.6032,0.6079,0.6008,0.5919,0.5919,0.5919,0.5919,0.5919,0.5919,0.5919,0.5919,0.5919,0.5919,0.5919,0.5955,0.5988,-0.2702,-0.1076,-0.0289,-0.0,-0.0,-0.0,-0.0,-0.0,0.0,0.0,0.0,-0.0,0.0969,0.2619,0.262,0.262,0.262,0.2619,0.262,0.272,0.4448,0.5267,0.5063,0.1711,-0.0,-0.0,0.0201,0.0301,0.0301,0.1905,0.2759,0.277,0.2897,0.3126,0.3602,0.5188,0.634,0.7051,0.7139,0.7204,0.7326,0.751,0.7876,0.8701,0.8599,0.8787,0.9152,0.9148,0.9248,0.9542,1.0086,1.0758,1.1551,1.2197,1.2802,1.3393,1.2981,1.2604,1.2261,1.2087,1.1876,1.1542,1.2118,1.2658,1.3025,1.2696,1.2694,1.3077,1.3179,1.3297,1.3464,1.3523,1.3437,1.323,1.3393,1.3404,1.3244,1.2632,1.2091,1.1982,1.1324,1.0672,1.0781,1.0562,1.0014,0.914,0.8809,0.826,0.7487,0.7937,0.8196,0.7387,0.7074,0.6772,0.6601,0.6343,0.5992,0.5869,0.5829,0.5885,0.5808,0.5865,0.591,0.5919,0.5919,0.5919,0.5916,0.59,0.59,0.5912,0.5888,0.5876,0.589,0.5894,0.59,-0.5681,-0.5212,-0.1563,-0.0,-0.0,-0.0,-0.0,-0.0,-0.0,-0.0,-0.0,-0.0,0.0192,0.0404,0.0404,0.0505,0.0404,0.0404,0.0505,0.0505,0.0808,0.0909,0.0908,0.0298,-0.0,-0.0,0.0894,0.1282,0.1183,0.1084,0.1071,0.1146,0.1529,0.2547,0.4223,0.5947,0.6962,0.7139,0.7139,0.7149,0.717,0.7794,0.8151,0.8328,0.8761,0.9091,0.9148,0.8973,0.9054,0.9123,0.9468,1.0107,1.0969,1.1473,1.2109,1.2992,1.2703,1.2483,1.266,1.2342,1.2167,1.2258,1.2544,1.2813,1.2813,1.2894,1.3034,1.312,1.347,1.3647,1.3518,1.3663,1.3351,1.2394,1.2312,1.2075,1.1363,1.1084,1.0891,1.0891,1.0781,1.0562,1.0343,0.9688,0.903,0.8813,0.8149,0.7265,0.7046,0.7154,0.7271,0.6956,0.6738,0.6636,0.6444,0.6315,0.6157,0.6089,0.6014,0.609,0.5857,0.5898,0.5912,0.5912,0.5914,0.5916,0.591,0.5851,0.5845,0.5882,0.5808,0.5733,0.5796,0.5812,0.5833,-0.6325,-0.5986,-0.3052,-0.1054,-0.0,-0.0,-0.0,-0.0,-0.0,-0.0,-0.0,-0.0,-0.0,-0.0,-0.0,-0.0,-0.0,-0.0,-0.0,-0.0,-0.0,-0.0,-0.0,-0.0,0.0301,0.0908,0.1288,0.1474,0.1472,0.1166,0.1053,0.1126,0.2041,0.3595,0.5715,0.614,0.6609,0.7051,0.7139,0.718,0.7265,0.7624,0.7803,0.7803,0.8065,0.8193,0.8101,0.8017,0.7963,0.8042,0.8484,0.905,0.9786,1.0964,1.1975,1.2694,1.2814,1.2865,1.298,1.2521,1.2344,1.2587,1.27,1.2818,1.2937,1.3044,1.3211,1.3459,1.3701,1.3514,1.2991,1.2976,1.2602,1.1419,1.1307,1.1129,1.0765,1.0014,0.9688,0.9688,0.9023,0.8585,0.8585,0.7928,0.7598,0.7595,0.7376,0.7154,0.6935,0.7046,0.7043,0.6715,0.6604,0.6495,0.6497,0.6434,0.6277,0.6027,0.6246,0.622,0.596,0.5998,0.6012,0.5857,0.5882,0.5892,0.5861,0.5812,0.5808,0.5816,0.579,0.5747,0.5774,0.5816,0.5867,-0.632,-0.6187,-0.4634,-0.2397,-0.0,-0.0,-0.0,-0.0,-0.0,-0.0,-0.0,-0.0,-0.0,-0.0,-0.0,-0.0,-0.0,-0.0,-0.0,-0.0,-0.0,-0.0,-0.0,-0.0,0.0505,0.1512,0.1486,0.147,0.1461,0.1435,0.15,0.1838,0.3162,0.4874,0.6697,0.6311,0.6343,0.7051,0.7139,0.7197,0.7312,0.7319,0.7319,0.7319,0.7316,0.7261,0.7149,0.7139,0.7156,0.7183,0.7694,0.8281,0.8927,1.049,1.1642,1.2082,1.2836,1.3274,1.3136,1.2769,1.2571,1.2743,1.2759,1.2856,1.3071,1.3163,1.3362,1.3744,1.3546,1.3113,1.2586,1.2191,1.1546,1.0453,1.0343,1.0116,0.99,0.903,0.8478,0.8367,0.7487,0.6935,0.6824,0.6604,0.6715,0.6935,0.6935,0.7046,0.7046,0.7043,0.6937,0.6715,0.6495,0.6495,0.6609,0.6551,0.6386,0.6191,0.6577,0.6448,0.6146,0.622,0.6252,0.5966,0.5872,0.589,0.5829,0.5794,0.5798,0.5814,0.5778,0.5747,0.5776,0.5802,0.5872,-0.6236,-0.6376,-0.6066,-0.3748,-0.0,-0.0,-0.0,-0.0,-0.0,-0.0,-0.0,-0.0,-0.0,-0.0,-0.0,-0.0,-0.0,-0.0,-0.0,-0.0,-0.0,-0.0,-0.0,-0.0,0.0606,0.1511,0.1485,0.1458,0.153,0.15,0.1929,0.2882,0.4565,0.5549,0.5916,0.6615,0.7054,0.7139,0.7139,0.7149,0.7156,0.716,0.7074,0.716,0.7163,0.7156,0.7139,0.7139,0.7207,0.7333,0.7416,0.7942,0.9107,1.0149,1.0726,1.0964,1.2456,1.3343,1.308,1.292,1.2732,1.2759,1.277,1.2867,1.3087,1.3319,1.3545,1.3682,1.3036,1.2601,1.2304,1.1433,1.0343,0.9251,0.9027,0.8699,0.7925,0.7487,0.7376,0.7376,0.7265,0.7154,0.7043,0.7043,0.7043,0.7046,0.6826,0.6715,0.6826,0.6715,0.6604,0.6712,0.6715,0.672,0.672,0.672,0.6694,0.6772,0.6879,0.6771,0.651,0.6341,0.6272,0.6109,0.6023,0.6029,0.6,0.5845,0.5804,0.5814,0.5763,0.5686,0.5745,0.5749,0.5767,-0.519,-0.623,-0.472,-0.2486,-0.0,-0.0,-0.0,-0.0,-0.0,-0.0,-0.0,-0.0,-0.0,-0.0,-0.0,-0.0,-0.0,-0.0,-0.0,-0.0,-0.0,0.0303,0.0909,0.0909,0.1206,0.1589,0.1559,0.1528,0.1592,0.2018,0.307,0.4476,0.5364,0.5985,0.652,0.6871,0.7139,0.7139,0.7139,0.7139,0.7139,0.7139,0.7139,0.7139,0.7139,0.7139,0.7139,0.7139,0.717,0.7231,0.7234,0.7441,0.7948,0.9038,0.9697,0.9912,1.1542,1.2459,1.2262,1.2565,1.2759,1.2759,1.2894,1.3007,1.3109,1.3448,1.3723,1.3609,1.2949,1.2195,1.1433,1.0343,0.914,0.8146,0.7928,0.7706,0.7265,0.7154,0.7154,0.7154,0.7043,0.6935,0.6935,0.6935,0.6935,0.6935,0.6824,0.6824,0.6935,0.6935,0.6935,0.6943,0.699,0.7001,0.6966,0.7066,0.7031,0.6995,0.7254,0.7273,0.6812,0.6855,0.6879,0.6456,0.6363,0.6368,0.6442,0.6368,0.6191,0.6107,0.5739,0.5671,0.5763,0.5794,0.5843,-0.339,-0.4045,-0.218,-0.0765,0.0192,0.0188,0.0188,0.0188,0.0185,0.0185,0.0186,0.0094,-0.0,-0.0,-0.0,-0.0,-0.0,-0.0,0.0196,0.0396,0.0402,0.0808,0.1313,0.1516,0.1601,0.157,0.1541,0.16,0.2021,0.316,0.4383,0.5539,0.5985,0.6432,0.7051,0.7139,0.7139,0.7139,0.7139,0.7139,0.7139,0.7139,0.7139,0.7139,0.7139,0.7139,0.7139,0.7139,0.7139,0.7139,0.7139,0.7139,0.7146,0.8263,0.9092,0.9605,1.045,1.1327,1.1678,1.2073,1.2462,1.278,1.2974,1.3098,1.3179,1.354,1.3798,1.373,1.2949,1.1978,1.0777,0.9357,0.8149,0.7265,0.7154,0.7154,0.7154,0.7154,0.7154,0.7154,0.7046,0.6824,0.6824,0.6826,0.6715,0.6935,0.6932,0.7154,0.7154,0.7154,0.7154,0.7157,0.7233,0.7255,0.7225,0.7361,0.7383,0.7325,0.756,0.7548,0.7096,0.7215,0.721,0.6661,0.681,0.6793,0.6609,0.6518,0.6624,0.6273,0.604,0.5937,0.6126,0.6092,0.6145,-0.0732,0.0362,0.1032,0.0962,0.0685,0.0671,0.0659,0.0651,0.0636,0.0713,0.0622,0.0274,-0.0,-0.0,-0.0,-0.0,-0.0,-0.0,0.0487,0.1305,0.1413,0.1212,0.0909,0.1313,0.16,0.1665,0.1732,0.2056,0.297,0.4652,0.563,0.5716,0.652,0.7054,0.7139,0.7139,0.7139,0.7139,0.7139,0.7139,0.7139,0.7139,0.7139,0.7139,0.7139,0.7139,0.7139,0.7139,0.7139,0.7139,0.7139,0.7139,0.7245,0.8181,0.9347,1.0319,0.954,0.9824,1.1551,1.1673,1.1873,1.2699,1.3007,1.3114,1.3168,1.3583,1.383,1.382,1.2949,1.1982,1.0672,0.8916,0.7485,0.7265,0.7154,0.7154,0.7154,0.7154,0.7154,0.7154,0.7154,0.7157,0.7154,0.6935,0.6935,0.7046,0.6935,0.6824,0.7157,0.7154,0.7157,0.7171,0.7192,0.7209,0.7315,0.7426,0.7502,0.7458,0.7549,0.7605,0.7347,0.722,0.6978,0.6836,0.68,0.6766,0.6622,0.6639,0.6681,0.6579,0.6586,0.6492,0.6497,0.6708,0.6764,0.0632,0.1169,0.1387,0.141,0.1228,0.1126,0.1126,0.113,0.12,0.1103,0.1107,0.0925,0.0734,0.0453,0.046,0.0743,0.0937,0.0663,0.0677,0.1091,0.1406,0.1516,0.1313,0.1515,0.1986,0.2414,0.2486,0.3263,0.4578,0.5453,0.5988,0.6517,0.6877,0.7139,0.7139,0.7139,0.7139,0.7139,0.7139,0.7139,0.7139,0.7139,0.7139,0.7139,0.7139,0.7139,0.7139,0.7139,0.7139,0.7139,0.7139,0.745,0.8185,0.8798,0.9005,0.8948,0.9538,1.0414,1.1165,1.197,1.2623,1.3177,1.3306,1.334,1.3421,1.3766,1.3992,1.3689,1.2949,1.1973,1.0781,0.9247,0.7928,0.7374,0.7154,0.7154,0.7154,0.7154,0.7154,0.7154,0.7154,0.7154,0.7154,0.7043,0.7043,0.7154,0.7046,0.7046,0.7157,0.7154,0.7176,0.7263,0.7339,0.7429,0.7554,0.7521,0.7543,0.7641,0.7722,0.7739,0.7616,0.744,0.7308,0.7225,0.7044,0.7039,0.7041,0.6935,0.6997,0.7032,0.6929,0.6858,0.6741,0.695,0.7001,0.1441,0.1453,0.1472,0.148,0.148,0.148,0.1393,0.1401,0.1383,0.1391,0.1409,0.1396,0.1202,0.1111,0.1489,0.186,0.204,0.1417,0.1257,0.178,0.2095,0.2407,0.2618,0.2608,0.2851,0.3526,0.3752,0.4603,0.5695,0.6005,0.6542,0.7125,0.7166,0.7139,0.7139,0.7139,0.7139,0.7139,0.7139,0.7139,0.7139,0.7139,0.7139,0.7139,0.7139,0.7139,0.7139,0.7139,0.7166,0.7204,0.7478,0.8102,0.897,0.9296,0.9076,0.8657,0.9539,1.0681,1.1268,1.2257,1.2954,1.359,1.3639,1.3707,1.3708,1.4066,1.4073,1.3805,1.3414,1.2536,1.1328,1.0237,0.892,0.7595,0.7154,0.7154,0.7154,0.7154,0.7154,0.7154,0.7154,0.7154,0.7154,0.7154,0.7154,0.7154,0.7154,0.7154,0.7154,0.7157,0.7198,0.7312,0.7385,0.7502,0.7595,0.7578,0.7616,0.7712,0.7698,0.7725,0.7698,0.7646,0.7576,0.7489,0.7451,0.7459,0.7348,0.7238,0.7275,0.7205,0.7272,0.722,0.7255,0.719,0.7238,0.1452,0.1474,0.148,0.1477,0.1476,0.1476,0.1463,0.1447,0.1442,0.1462,0.149,0.1577,0.1577,0.1764,0.2922,0.3579,0.3163,0.227,0.2431,0.3498,0.3663,0.397,0.4518,0.4352,0.4371,0.4653,0.5304,0.5801,0.6051,0.669,0.7141,0.7312,0.7204,0.7149,0.7149,0.7153,0.7139,0.7139,0.7139,0.7139,0.7139,0.7139,0.7139,0.7139,0.7139,0.7146,0.7149,0.7146,0.7207,0.7427,0.8238,0.8962,0.9403,0.9619,0.9614,0.9555,0.9505,1.0386,1.2047,1.2247,1.285,1.3723,1.3959,1.399,1.4251,1.4265,1.4288,1.4164,1.4062,1.364,1.2417,1.1324,0.9794,0.7703,0.7265,0.7154,0.7154,0.7154,0.7154,0.7154,0.7154,0.7154,0.7154,0.7154,0.7154,0.7154,0.7154,0.7165,0.7182,0.7187,0.722,0.732,0.7404,0.75,0.7565,0.7619,0.7701,0.7761,0.7701,0.7671,0.7592,0.7532,0.7437,0.735,0.7293,0.7307,0.7483,0.7383,0.7442,0.7496,0.7549,0.7608,0.753,0.758,0.7726,0.1441,0.1449,0.1449,0.1449,0.1449,0.1449,0.1454,0.1466,0.1466,0.1484,0.1602,0.2263,0.2528,0.2801,0.3818,0.4284,0.3985,0.3816,0.4004,0.4343,0.447,0.4595,0.4802,0.4734,0.4938,0.5608,0.6566,0.6955,0.6998,0.7131,0.7333,0.7333,0.7217,0.7204,0.7275,0.7197,0.7139,0.7139,0.7139,0.7139,0.7139,0.7139,0.7139,0.7139,0.7139,0.7187,0.7285,0.7197,0.7221,0.7458,0.8162,0.9144,1.0134,1.1101,1.1385,1.0867,1.1268,1.1755,1.2441,1.305,1.3624,1.4271,1.4247,1.4389,1.4747,1.4776,1.4617,1.4504,1.4498,1.3948,1.2635,1.2087,1.0882,0.8585,0.7706,0.7265,0.7154,0.7154,0.7154,0.7154,0.7154,0.7154,0.7154,0.7154,0.7154,0.7154,0.7154,0.7173,0.7252,0.7255,0.7372,0.7535,0.7527,0.7481,0.7562,0.7576,0.7576,0.7622,0.7595,0.7565,0.7491,0.7413,0.7315,0.7277,0.7211,0.7271,0.7442,0.7543,0.7603,0.7701,0.7785,0.7815,0.782,0.7839,0.7864,0.1436,0.1436,0.1436,0.1436,0.1436,0.1436,0.1446,0.1553,0.1829,0.2036,0.2254,0.3102,0.3565,0.376,0.482,0.5181,0.5064,0.5627,0.5902,0.5779,0.5436,0.5586,0.5897,0.5774,0.5937,0.6485,0.7076,0.7444,0.7455,0.7343,0.7312,0.7336,0.7217,0.718,0.7272,0.7193,0.7139,0.7139,0.7139,0.7139,0.7139,0.7139,0.7139,0.7139,0.7139,0.7187,0.7275,0.7596,0.7858,0.8298,0.9254,1.0327,1.1228,1.2057,1.2346,1.2037,1.2339,1.2829,1.3227,1.3825,1.4341,1.4713,1.4675,1.4804,1.5056,1.5148,1.4928,1.4821,1.4713,1.4379,1.3511,1.2856,1.1869,1.0562,0.8806,0.7706,0.7376,0.7154,0.7154,0.7154,0.7154,0.7154,0.7154,0.7154,0.7154,0.7154,0.7157,0.7201,0.7285,0.7285,0.7429,0.7524,0.7486,0.7497,0.7584,0.7546,0.7459,0.7456,0.7456,0.7432,0.7388,0.7315,0.7228,0.7307,0.729,0.741,0.757,0.7597,0.7649,0.7769,0.7869,0.7861,0.785,0.7856,0.7872,0.144,0.1438,0.1528,0.153,0.1619,0.1705,0.1801,0.1805,0.2618,0.3018,0.3148,0.4023,0.4506,0.4856,0.5825,0.6299,0.6418,0.7189,0.7638,0.7359,0.6875,0.6833,0.7461,0.7401,0.7247,0.727,0.7252,0.738,0.7556,0.7377,0.7238,0.7346,0.7241,0.716,0.719,0.7153,0.7139,0.7143,0.7143,0.7143,0.7143,0.7071,0.7163,0.7258,0.7549,0.767,0.7725,0.8623,0.9347,0.9716,1.1101,1.1957,1.2334,1.2371,1.2601,1.2807,1.2829,1.334,1.4081,1.4448,1.4724,1.5029,1.5106,1.5164,1.5358,1.5186,1.5074,1.4973,1.5018,1.5041,1.4606,1.3835,1.3068,1.2635,1.0449,0.8699,0.7485,0.7376,0.7376,0.7265,0.7154,0.7154,0.7154,0.7154,0.7154,0.7154,0.7157,0.7214,0.7282,0.7304,0.7317,0.7366,0.7434,0.7434,0.7497,0.7472,0.7388,0.735,0.7375,0.7407,0.7375,0.7307,0.7279,0.735,0.7421,0.7551,0.7633,0.7655,0.7712,0.7818,0.7867,0.7869,0.7986,0.8097,0.8085,0.2046,0.2113,0.2385,0.2566,0.274,0.3243,0.3643,0.3735,0.4021,0.4116,0.4261,0.5347,0.58,0.5821,0.6973,0.7453,0.7442,0.771,0.7957,0.7848,0.774,0.7625,0.7811,0.7913,0.7828,0.7695,0.7692,0.7729,0.7614,0.7594,0.7526,0.737,0.743,0.7309,0.7299,0.7207,0.7234,0.7415,0.7418,0.7514,0.7616,0.7337,0.7389,0.7956,0.944,0.9754,0.9303,1.0576,1.1303,1.1141,1.1574,1.24,1.3072,1.3304,1.3502,1.3736,1.38,1.3996,1.446,1.4678,1.4932,1.5312,1.5191,1.5227,1.5473,1.5398,1.5287,1.5211,1.5234,1.5261,1.5041,1.46,1.4056,1.3073,1.1546,0.9904,0.8806,0.8481,0.8149,0.7374,0.7376,0.7376,0.7265,0.7265,0.7265,0.7265,0.7165,0.7198,0.7279,0.7301,0.7304,0.7388,0.7437,0.7391,0.7369,0.7358,0.732,0.7266,0.7323,0.7453,0.7434,0.741,0.7423,0.7478,0.7521,0.7627,0.7665,0.7693,0.7782,0.7969,0.8088,0.8201,0.8306,0.8415,0.8515,0.3103,0.3144,0.3723,0.3996,0.4057,0.4589,0.4811,0.4969,0.5298,0.538,0.5672,0.6579,0.7109,0.7225,0.7764,0.7997,0.8011,0.796,0.7984,0.794,0.8093,0.8014,0.7804,0.7868,0.7865,0.7743,0.7911,0.7976,0.7896,0.8006,0.79,0.778,0.7738,0.7738,0.7646,0.7661,0.7692,0.7887,0.788,0.797,0.8068,0.7657,0.7924,0.8873,1.0774,1.1641,1.1392,1.2093,1.2512,1.2422,1.2445,1.271,1.3273,1.3489,1.3749,1.4081,1.4135,1.425,1.4521,1.4733,1.5016,1.527,1.5258,1.5421,1.5584,1.5578,1.5407,1.5469,1.5606,1.5565,1.547,1.5256,1.4821,1.4164,1.3073,1.176,1.0225,0.9904,0.9574,0.9023,0.8696,0.8367,0.8039,0.7928,0.7598,0.7376,0.7154,0.7222,0.7301,0.729,0.7406,0.7587,0.7495,0.7442,0.7567,0.7575,0.7961,0.7894,0.8136,0.8162,0.7948,0.7837,0.7666,0.7707,0.7751,0.7784,0.8048,0.8199,0.813,0.8415,0.8412,0.8846,0.9155,0.9625,0.9612,0.4438,0.4455,0.5287,0.5553,0.5496,0.574,0.5922,0.5879,0.6529,0.6783,0.7009,0.7667,0.8126,0.8594,0.8351,0.8311,0.8414,0.8223,0.8131,0.8219,0.8315,0.8199,0.7903,0.8014,0.8011,0.7917,0.8033,0.8104,0.825,0.8368,0.8291,0.8157,0.825,0.8236,0.8098,0.8199,0.8326,0.8362,0.8366,0.8556,0.8648,0.8463,0.8717,1.0163,1.1728,1.3008,1.3246,1.332,1.326,1.3605,1.3309,1.3194,1.3288,1.3236,1.3465,1.3888,1.4045,1.4141,1.4419,1.4877,1.5155,1.5276,1.5433,1.5584,1.5686,1.5559,1.5505,1.5734,1.5843,1.5843,1.5785,1.569,1.5369,1.5035,1.4922,1.404,1.2507,1.1642,1.1324,1.1101,1.0887,1.0229,0.9574,0.9137,0.8916,0.8906,0.8579,0.8735,0.8677,0.8775,0.8463,0.807,0.7954,0.7699,0.7748,0.792,0.8447,0.882,0.9283,0.9361,0.9033,0.8718,0.8349,0.828,0.8937,0.9186,0.901,0.9051,0.9058,0.938,0.9801,1.0307,1.0697,1.1197,1.1433,0.5886,0.5976,0.648,0.6765,0.6926,0.7523,0.7823,0.79,0.8034,0.8058,0.8092,0.849,0.8657,0.8601,0.8713,0.87,0.8722,0.863,0.863,0.8627,0.8627,0.8626,0.8404,0.8496,0.8543,0.8499,0.8612,0.8578,0.8527,0.865,0.8586,0.8393,0.8478,0.8415,0.8236,0.8524,0.8463,0.8479,0.8652,0.9295,0.9872,0.946,0.9951,1.1745,1.2997,1.4002,1.4657,1.4581,1.4324,1.4257,1.3983,1.3773,1.3919,1.3773,1.3842,1.4108,1.4189,1.4395,1.4829,1.5022,1.5288,1.5596,1.5535,1.5523,1.5541,1.5378,1.536,1.5523,1.559,1.5716,1.5861,1.5891,1.5785,1.5678,1.5571,1.5458,1.4798,1.3609,1.263,1.186,1.1529,1.1197,1.0983,1.0874,1.0655,1.0542,1.0437,1.0558,1.0343,1.0127,0.9724,0.9116,0.913,0.9015,0.8884,0.9191,0.9735,1.0133,1.0501,1.0636,1.0316,1.0211,1.0051,1.0303,1.0638,1.0563,1.013,1.0544,1.0747,1.1053,1.1248,1.1527,1.1938,1.2634,1.2999,0.7343,0.7324,0.7969,0.8254,0.829,0.8764,0.8964,0.8991,0.8874,0.8902,0.8917,0.9022,0.8977,0.9006,0.8989,0.9031,0.8931,0.8829,0.8829,0.8931,0.9031,0.8981,0.9131,0.906,0.9099,0.8845,0.8894,0.8966,0.8951,0.9064,0.9033,0.8787,0.9053,0.9304,0.9415,0.9552,1.0048,1.0566,1.0495,1.0934,1.1333,1.1167,1.1793,1.3537,1.4389,1.4916,1.5411,1.5311,1.5232,1.5055,1.4728,1.443,1.4299,1.4151,1.4203,1.4309,1.4319,1.4479,1.4775,1.5059,1.5276,1.5674,1.5572,1.5608,1.5584,1.5445,1.5439,1.5608,1.5704,1.5759,1.5867,1.5885,1.5885,1.5885,1.5885,1.5885,1.5672,1.4922,1.4164,1.3496,1.3388,1.295,1.262,1.2507,1.1851,1.1415,1.1193,1.1202,1.1093,1.0878,1.0874,1.059,1.063,1.0584,1.0366,1.0701,1.1376,1.1638,1.1862,1.1994,1.1897,1.1897,1.2016,1.202,1.1795,1.1586,1.1376,1.1875,1.2375,1.2447,1.2524,1.2828,1.3262,1.3943,1.4202,0.855,0.8434,0.9268,0.9535,0.9433,0.9555,0.9531,0.9441,0.9265,0.9331,0.9348,0.9276,0.9324,0.9525,0.9324,0.9232,0.9232,0.913,0.9126,0.9232,0.9624,0.9706,0.9891,1.0083,1.0049,0.9324,0.9547,0.9604,0.9706,0.992,1.028,0.9899,1.0002,1.0498,1.0997,1.1346,1.1559,1.2161,1.2214,1.256,1.2758,1.2726,1.3492,1.5063,1.5457,1.5444,1.5745,1.569,1.5798,1.5812,1.5591,1.516,1.4695,1.4404,1.4422,1.4447,1.4471,1.4684,1.4904,1.5065,1.5306,1.5529,1.5572,1.5662,1.5765,1.565,1.5626,1.5753,1.5855,1.5855,1.5885,1.5885,1.5885,1.5885,1.5885,1.5885,1.5891,1.5684,1.5363,1.5363,1.4809,1.4363,1.404,1.3825,1.3053,1.2394,1.2172,1.2064,1.2064,1.2064,1.2285,1.2232,1.2192,1.2252,1.2158,1.2073,1.2777,1.3194,1.3438,1.3341,1.3458,1.3613,1.3689,1.2899,1.2588,1.2683,1.2871,1.3364,1.3628,1.3688,1.3889,1.4213,1.4653,1.5327,1.5348,0.941,0.9387,0.9513,0.9608,0.9583,0.9616,0.9608,0.9592,0.9509,0.9513,0.9587,0.9513,0.9529,0.9529,0.9628,0.9529,0.9624,0.9719,0.9719,0.9916,1.0404,1.0886,1.0979,1.1463,1.1823,1.1818,1.1361,1.0984,1.1077,1.1658,1.176,1.1955,1.1955,1.2078,1.2193,1.2406,1.2544,1.2953,1.3036,1.3403,1.3692,1.3544,1.382,1.5622,1.5738,1.5758,1.5792,1.5825,1.5825,1.5818,1.5785,1.5624,1.5404,1.5047,1.4926,1.4962,1.4948,1.5077,1.5294,1.5354,1.5535,1.5753,1.5801,1.5807,1.5813,1.5686,1.5686,1.5795,1.5885,1.5885,1.5885,1.5885,1.5885,1.5885,1.5885,1.5885,1.5891,1.5785,1.5791,1.5791,1.5678,1.5565,1.5131,1.4917,1.4578,1.4137,1.4137,1.4132,1.4137,1.425,1.4476,1.4239,1.3905,1.3973,1.3951,1.392,1.4282,1.4702,1.4903,1.4903,1.5001,1.536,1.5167,1.4235,1.4229,1.4696,1.4881,1.4783,1.4767,1.4847,1.5155,1.5474,1.5625,1.5893,1.6298,0.9571,0.9502,0.9583,0.9575,0.9514,0.9587,0.9624,0.9624,0.9624,0.9624,0.9624,0.9624,0.9624,0.9624,0.9624,0.9916,1.04,1.1086,1.1179,1.1375,1.176,1.195,1.195,1.2533,1.263,1.2727,1.2635,1.2441,1.2047,1.2436,1.2823,1.2635,1.2732,1.2956,1.3379,1.3448,1.382,1.4034,1.4208,1.4472,1.4968,1.4423,1.5026,1.5425,1.5825,1.5825,1.5825,1.5825,1.5825,1.5825,1.5825,1.5825,1.5684,1.5556,1.5461,1.5518,1.5402,1.5461,1.5745,1.576,1.5652,1.6037,1.5992,1.5885,1.5867,1.5795,1.5759,1.5843,1.5885,1.5885,1.5885,1.5885,1.5885,1.5885,1.5885,1.5885,1.5885,1.5885,1.5885,1.5885,1.5779,1.5779,1.5779,1.5672,1.5779,1.5885,1.5885,1.5885,1.5885,1.5779,1.5571,1.5398,1.4939,1.4864,1.492,1.492,1.5023,1.554,1.5885,1.5885,1.5885,1.5897,1.5708,1.5263,1.5618,1.5891,1.5803,1.5331,1.5606,1.5684,1.5731,1.5821,1.6053,1.6402,1.6809,0.9433,0.9315,0.9462,0.9437,0.9344,0.9498,0.9567,0.9575,0.9612,0.9624,0.9628,0.9821,1.0015,1.0015,1.0306,1.0792,1.156,1.2344,1.2441,1.2538,1.2926,1.3022,1.3022,1.321,1.3499,1.3794,1.4088,1.4094,1.3312,1.3403,1.3403,1.3601,1.3409,1.3703,1.4478,1.4567,1.5159,1.554,1.5825,1.5825,1.5825,1.5825,1.5825,1.5825,1.5825,1.5825,1.5825,1.5825,1.5825,1.5825,1.5825,1.5825,1.5825,1.5825,1.5896,1.5947,1.5835,1.5978,1.6132,1.6041,1.6056,1.6387,1.6105,1.5998,1.5992,1.5974,1.5873,1.5885,1.5885,1.5885,1.5885,1.5885,1.5885,1.5885,1.5885,1.5885,1.5885,1.5885,1.5885,1.5885,1.5885,1.5885,1.5885,1.5885,1.5885,1.5885,1.5885,1.5885,1.5885,1.5885,1.5779,1.5779,1.5702,1.5702,1.5618,1.5636,1.5534,1.5714,1.5885,1.5885,1.5885,1.5891,1.5809,1.572,1.5809,1.5885,1.5885,1.5885,1.5891,1.5797,1.5934,1.6103,1.6404,1.6564,1.6948,0.9145,0.9129,0.9153,0.9145,0.9251,0.9407,0.9485,0.9501,0.9637,0.9624,0.9874,1.0574,1.0942,1.1142,1.1945,1.2339,1.2619,1.2829,1.3113,1.3216,1.38,1.4094,1.419,1.5057,1.5051,1.5051,1.535,1.5064,1.4478,1.486,1.5242,1.5153,1.5057,1.5445,1.535,1.535,1.5635,1.5825,1.5825,1.5825,1.5825,1.5825,1.5825,1.5825,1.5825,1.5825,1.5825,1.5825,1.5825,1.5825,1.5825,1.5825,1.5825,1.5825,1.6139,1.6368,1.6467,1.6377,1.6613,1.6529,1.6428,1.6599,1.643,1.6318,1.6211,1.6105,1.5992,1.5885,1.5885,1.5885,1.5885,1.5885,1.5885,1.5885,1.5885,1.5885,1.5885,1.5885,1.5885,1.5885,1.5885,1.5885,1.5885,1.5885,1.5885,1.5885,1.5885,1.5885,1.5885,1.5885,1.5885,1.5885,1.5885,1.5885,1.5885,1.5885,1.5885,1.5885,1.5885,1.5885,1.5885,1.5885,1.5885,1.5897,1.5885,1.5885,1.5885,1.5885,1.5885,1.594,1.6006,1.6272,1.6604,1.6851,1.7074,1.0164,0.9766,0.9877,1.0131,1.0419,1.0147,1.0323,1.0618,1.0324,1.0455,1.0929,1.1298,1.1576,1.1941,1.2969,1.3521,1.3541,1.4017,1.4472,1.437,1.486,1.5153,1.5248,1.554,1.5825,1.5825,1.5825,1.5635,1.535,1.5445,1.5825,1.5825,1.5825,1.573,1.5825,1.5825,1.5825,1.5825,1.5825,1.5825,1.5825,1.5825,1.5825,1.5825,1.5825,1.5825,1.5825,1.5825,1.5825,1.5825,1.5825,1.5825,1.5825,1.5865,1.6086,1.662,1.6607,1.6724,1.7114,1.6951,1.6924,1.6922,1.6743,1.653,1.6524,1.6418,1.6311,1.6105,1.6105,1.6105,1.5992,1.5885,1.5885,1.5885,1.6099,1.5885,1.5885,1.5885,1.5885,1.5885,1.5885,1.5885,1.5885,1.5885,1.5885,1.5885,1.5885,1.5885,1.5885,1.5885,1.5885,1.5885,1.5885,1.5885,1.5885,1.5885,1.5885,1.5885,1.5885,1.5885,1.5885,1.5885,1.5885,1.5885,1.5885,1.5885,1.5885,1.5891,1.5897,1.5994,1.6103,1.6404,1.67,1.6917,1.7135,1.1417,1.0972,1.0875,1.1115,1.1612,1.1081,1.1171,1.1678,1.1336,1.145,1.196,1.2396,1.2614,1.3014,1.4099,1.4576,1.4396,1.5341,1.571,1.5825,1.5825,1.573,1.573,1.5825,1.5825,1.5825,1.5825,1.573,1.573,1.5825,1.5825,1.5825,1.5825,1.5825,1.5825,1.5825,1.5825,1.5825,1.5825,1.5825,1.5825,1.5825,1.5825,1.5825,1.5825,1.5825,1.5825,1.5825,1.5825,1.6204,1.592,1.6008,1.6567,1.67,1.6945,1.7598,1.786,1.8159,1.8163,1.7852,1.7415,1.7502,1.7779,1.7864,1.766,1.7351,1.7041,1.6942,1.6942,1.6836,1.6617,1.6823,1.6935,1.6829,1.6524,1.6205,1.6099,1.6199,1.6092,1.5885,1.5885,1.5885,1.5885,1.5885,1.5885,1.5885,1.5885,1.5885,1.5885,1.5885,1.5885,1.5885,1.5885,1.5885,1.5885,1.5885,1.5885,1.5885,1.5885,1.5885,1.5885,1.5885,1.5885,1.5885,1.5885,1.5885,1.5885,1.5897,1.5922,1.6097,1.6284,1.6513,1.6767,1.7002,1.7195,1.2413,1.3137,1.2049,1.1721,1.1807,1.1822,1.1802,1.2053,1.2371,1.2474,1.2703,1.3495,1.4502,1.5233,1.5321,1.5602,1.5569,1.5717,1.5825,1.5825,1.5825,1.5825,1.5825,1.5825,1.5825,1.5825,1.5825,1.5825,1.5825,1.5825,1.5825,1.5825,1.5825,1.5825,1.5825,1.5825,1.5825,1.5825,1.5825,1.5825,1.5825,1.5825,1.5832,1.5927,1.5825,1.5825,1.5825,1.6103,1.648,1.7131,1.6662,1.6899,1.7789,1.7851,1.8171,1.895,1.943,1.9737,1.9706,1.888,1.8276,1.8909,1.942,1.962,1.9317,1.8693,1.8387,1.8283,1.8283,1.8185,1.8387,1.87,1.8387,1.8073,1.766,1.7351,1.714,1.6717,1.6617,1.6092,1.6205,1.6617,1.6411,1.6518,1.6099,1.5992,1.5885,1.5885,1.5885,1.5885,1.5885,1.5885,1.5885,1.5885,1.5885,1.5885,1.5885,1.5885,1.5885,1.5885,1.5885,1.5885,1.5885,1.5992,1.6099,1.5992,1.6117,1.67,1.6908,1.6472,1.6465,1.6682,1.6942,1.7201,1.7334,1.4137,1.4587,1.4249,1.3867,1.3489,1.3426,1.3588,1.3799,1.375,1.3915,1.4128,1.4935,1.5272,1.5616,1.6067,1.6094,1.5899,1.5967,1.5906,1.5832,1.5825,1.5825,1.5825,1.5825,1.5825,1.5838,1.5832,1.5825,1.5825,1.6164,1.5832,1.5825,1.6062,1.5825,1.5825,1.5825,1.5825,1.5825,1.5825,1.5825,1.5825,1.5825,1.6109,1.6676,1.677,1.7131,1.7584,1.7677,1.7863,1.7971,1.7792,1.8365,1.909,1.8989,1.9414,2.0141,2.0603,2.0744,2.1009,2.0166,1.9849,2.0063,2.0562,2.0767,2.0767,2.0151,1.9834,1.9723,1.9612,1.962,1.9517,1.962,1.9517,1.931,1.9005,1.8693,1.8283,1.7857,1.7752,1.7654,1.7765,1.808,1.7667,1.7147,1.6624,1.6099,1.5992,1.5885,1.5885,1.5885,1.5885,1.5885,1.5885,1.6099,1.6099,1.5992,1.5992,1.6099,1.6199,1.6405,1.6511,1.5885,1.5992,1.6099,1.6636,1.6955,1.743,1.7849,1.7782,1.7098,1.6796,1.6833,1.7105,1.7615,1.7898,1.5218,1.5474,1.5705,1.5519,1.4972,1.4905,1.4932,1.5154,1.5023,1.519,1.5672,1.5892,1.5892,1.5936,1.6244,1.6411,1.6227,1.6223,1.6096,1.6021,1.5927,1.5927,1.592,1.613,1.6441,1.6388,1.6809,1.702,1.7457,1.7223,1.7449,1.7457,1.7099,1.6982,1.5825,1.5832,1.5832,1.5825,1.6109,1.6204,1.6298,1.6662,1.6936,1.7692,1.7785,1.7971,1.8419,1.8519,1.8875,1.9116,1.9196,1.952,2.003,2.038,2.066,2.1089,2.1478,2.1645,2.1719,2.1497,2.1395,2.1395,2.1903,2.2005,2.1802,2.1599,2.1183,2.1065,2.1065,2.0955,2.0759,2.1167,2.1057,2.0853,2.0444,2.0135,1.962,1.9206,1.931,1.931,1.942,1.9213,1.9005,1.8387,1.7457,1.6935,1.6736,1.6418,1.5885,1.5885,1.5885,1.5885,1.5885,1.6099,1.6318,1.663,1.6935,1.7759,1.7759,1.7654,1.7549,1.6935,1.7035,1.7759,1.8192,1.8338,1.8759,1.9211,1.8406,1.738,1.7477,1.7824,1.8231,1.8706,1.8945,1.5423,1.5504,1.6089,1.6082,1.5749,1.5944,1.5784,1.5528,1.612,1.6483,1.6642,1.672,1.6692,1.6657,1.6973,1.6965,1.675,1.6807,1.677,1.6676,1.6763,1.6298,1.648,1.6965,1.7631,1.8088,1.8491,1.9051,1.987,1.9598,1.9742,1.9846,1.9359,1.8636,1.6171,1.594,1.594,1.6021,1.6979,1.7268,1.7505,1.7963,1.8326,1.878,1.8788,1.898,1.9537,1.9455,1.987,2.0577,2.0069,2.0644,2.2097,2.2014,2.2249,2.3089,2.3529,2.3899,2.3954,2.3029,2.2619,2.2518,2.3029,2.3438,2.3646,2.3138,2.2426,2.2409,2.2417,2.2417,2.2627,2.292,2.2601,2.2291,2.1988,2.1684,2.1167,2.0955,2.1065,2.1057,2.0546,2.0033,2.0033,1.9723,1.8492,1.7877,1.747,1.7047,1.6617,1.6717,1.6929,1.7028,1.7134,1.7345,1.7667,1.7674,1.7989,1.8909,1.9213,1.8894,1.893,1.8974,1.9168,1.9635,1.9813,1.9904,2.0248,2.0498,1.9791,1.9224,1.8955,1.9193,1.9577,1.9747,1.9936,1.6932,1.6599,1.7046,1.7301,1.7359,1.7066,1.6641,1.6404,1.6714,1.7246,1.7692,1.7785,1.7642,1.7751,1.8386,1.8402,1.7713,1.8648,1.8603,1.8319,1.8241,1.8395,1.8411,1.8489,1.8994,1.9295,1.9878,2.0272,2.0545,2.0942,2.0795,2.0666,2.095,1.9886,1.9055,1.8682,1.8812,1.8502,1.873,1.8847,1.8542,1.8812,1.9288,2.0019,1.9936,2.032,2.1051,2.0746,2.1103,2.1915,2.131,2.1937,2.3085,2.2938,2.3277,2.3849,2.4143,2.4152,2.4161,2.3746,2.3646,2.3746,2.3854,2.4161,2.4053,2.3945,2.3646,2.3546,2.3447,2.3546,2.3746,2.3746,2.3637,2.3628,2.3429,2.3329,2.312,2.302,2.312,2.292,2.2501,2.1794,2.1591,2.1371,2.0341,1.9723,1.9524,1.9013,1.8582,1.8686,1.8998,1.8998,1.8998,1.9005,1.9117,1.9013,1.9324,2.0033,2.0033,1.962,1.9879,2.0664,2.0442,2.049,2.1044,2.1506,2.1658,2.1747,2.1666,2.1233,2.0838,2.0475,2.0521,2.0564,2.0571,1.7817,1.7489,1.7839,1.8197,1.8483,1.8049,1.7834,1.7948,1.8041,1.8402,1.8948,1.9055,1.8959,1.9019,1.9529,1.9884,1.8831,1.9472,1.9886,1.9712,1.9754,1.9512,1.9587,2.0222,2.0636,2.0874,2.1449,2.1882,2.2584,2.2443,2.2575,2.2593,2.2215,2.2188,2.159,2.1113,2.0238,2.0058,2.0215,2.0533,2.0475,2.0593,2.1046,2.1514,2.1724,2.1897,2.2474,2.2575,2.2465,2.2749,2.2923,2.2969,2.3419,2.3712,2.3859,2.4088,2.4161,2.4161,2.4161,2.4161,2.4053,2.4152,2.4161,2.4161,2.4161,2.4053,2.4152,2.4152,2.4161,2.4161,2.4161,2.4161,2.4161,2.4152,2.4152,2.4053,2.4053,2.3945,2.3845,2.3845,2.3746,2.3247,2.2937,2.282,2.2299,2.1887,2.1574,2.1057,2.0444,2.0341,2.0444,2.0341,2.0341,2.0135,2.0238,2.0451,2.0759,2.1269,2.1159,2.0955,2.1599,2.2376,2.186,2.1546,2.2232,2.2825,2.292,2.2963,2.284,2.2674,2.2394,2.2009,2.1657,2.1693,2.1842,1.8086,1.8066,1.8417,1.8793,1.9041,1.9093,1.9472,2.0099,1.9881,1.9941,2.0232,2.0232,2.0155,2.0172,2.0395,2.0361,2.0236,2.0361,2.0413,2.0451,2.0824,2.0463,2.0793,2.1569,2.2134,2.279,2.3248,2.3671,2.4965,2.4485,2.461,2.4906,2.4393,2.4296,2.3605,2.2752,2.1708,2.1709,2.1942,2.2155,2.2107,2.274,2.2825,2.3074,2.3121,2.3094,2.3354,2.3159,2.3084,2.3211,2.3308,2.3455,2.3684,2.3941,2.4079,2.4251,2.4161,2.4161,2.4161,2.4161,2.4161,2.4161,2.4161,2.4161,2.4161,2.4161,2.4161,2.4161,2.4161,2.4161,2.4161,2.4161,2.4161,2.4161,2.4161,2.4161,2.4161,2.4152,2.4152,2.4152,2.4152,2.3854,2.3854,2.3737,2.3329,2.3329,2.2811,2.24,2.1777,2.1261,2.1261,2.1159,2.1159,2.1057,2.1371,2.1785,2.2198,2.2601,2.2911,2.302,2.3664,2.37,2.3344,2.3134,2.3782,2.4026,2.3725,2.3868,2.4242,2.3919,2.3303,2.3169,2.2692,2.3444,2.3894,1.9608,1.9326,1.9361,1.963,2.0117,2.1053,2.097,2.0279,2.0112,2.0523,2.1248,2.1239,2.1123,2.102,2.1822,2.1581,2.1563,2.1697,2.2189,2.2316,2.2335,2.2535,2.2803,2.3213,2.3879,2.4126,2.4419,2.4639,2.4985,2.5188,2.5421,2.547,2.5421,2.543,2.5139,2.4667,2.3988,2.3592,2.3727,2.3701,2.3542,2.3786,2.383,2.3696,2.3877,2.3841,2.3832,2.357,2.3569,2.3975,2.3671,2.3639,2.3996,2.4097,2.4152,2.4152,2.4161,2.4161,2.4161,2.4161,2.4161,2.4161,2.4161,2.4161,2.4161,2.4161,2.4161,2.4161,2.4161,2.4161,2.4161,2.4161,2.4161,2.4161,2.4161,2.4161,2.4161,2.4161,2.4161,2.4161,2.4161,2.4161,2.4161,2.4152,2.3845,2.4053,2.3954,2.3429,2.302,2.2501,2.2291,2.219,2.2291,2.2391,2.2811,2.3329,2.3637,2.3945,2.4053,2.4062,2.3999,2.4045,2.4335,2.4308,2.4198,2.418,2.4235,2.4363,2.4473,2.4372,2.3899,2.3874,2.398,2.4491,2.5094,2.0399,2.0132,2.016,2.0386,2.091,2.1993,2.1872,2.1192,2.1257,2.1686,2.2236,2.2246,2.2193,2.2051,2.2659,2.2659,2.2119,2.2562,2.2872,2.2997,2.3721,2.3628,2.4023,2.4326,2.4545,2.4746,2.4785,2.4893,2.5134,2.5293,2.5537,2.5606,2.5732,2.5732,2.5606,2.545,2.5383,2.5121,2.5006,2.4966,2.4726,2.4506,2.4378,2.4117,2.4285,2.4371,2.4323,2.3975,2.4286,2.4519,2.3975,2.4078,2.4319,2.4328,2.4251,2.4251,2.4161,2.4161,2.4161,2.4161,2.4161,2.4251,2.4251,2.4161,2.4161,2.4161,2.4161,2.4161,2.4161,2.4161,2.4161,2.4161,2.4161,2.4161,2.4161,2.4161,2.4161,2.4161,2.4161,2.4161,2.4161,2.4161,2.4161,2.4161,2.4161,2.4161,2.4161,2.4053,2.3845,2.3637,2.3429,2.3429,2.3637,2.3845,2.4161,2.4161,2.4152,2.4152,2.4152,2.418,2.4216,2.4235,2.4262,2.4225,2.417,2.418,2.4198,2.418,2.4225,2.4189,2.4308,2.4316,2.4401,2.4756,2.5249,2.0799,2.0809,2.0712,2.081,2.1279,2.2144,2.2526,2.2614,2.2997,2.3222,2.3135,2.3047,2.294,2.2872,2.3038,2.3047,2.2775,2.3028,2.3144,2.3174,2.3828,2.4023,2.4092,2.4531,2.4629,2.4629,2.4722,2.4854,2.5218,2.5654,2.5958,2.5897,2.5917,2.6004,2.61,2.5732,2.5771,2.6001,2.5885,2.574,2.5596,2.5596,2.5594,2.5153,2.5156,2.5236,2.4985,2.4977,2.5121,2.4822,2.49,2.5073,2.5064,2.5015,2.4875,2.4913,2.5099,2.5011,2.5109,2.5118,2.4824,2.4726,2.444,2.4637,2.4735,2.435,2.4251,2.4161,2.4161,2.4161,2.4161,2.4161,2.4161,2.4161,2.4161,2.4161,2.4161,2.4161,2.4161,2.4161,2.4161,2.4161,2.4161,2.4161,2.4161,2.4161,2.4161,2.4161,2.4161,2.4161,2.4161,2.4161,2.4161,2.4161,2.4161,2.4161,2.4161,2.4161,2.4161,2.4161,2.4189,2.418,2.4161,2.4161,2.4161,2.4161,2.4161,2.4161,2.4225,2.4363,2.4519,2.4757,2.4996,2.5185,2.5404,2.2014,2.236,2.1756,2.1235,2.0987,2.2362,2.3074,2.3145,2.4567,2.4392,2.3309,2.3135,2.3222,2.3309,2.3387,2.3387,2.3309,2.3474,2.3135,2.3408,2.388,2.4227,2.4047,2.4614,2.4618,2.4375,2.4408,2.4945,2.5747,2.6279,2.6993,2.7714,2.7284,2.6829,2.6829,2.638,2.6284,2.6829,2.6829,2.6466,2.61,2.5793,2.56,2.5418,2.5275,2.5345,2.5408,2.5845,2.6084,2.6169,2.6907,2.7107,2.7044,2.7032,2.7063,2.6979,2.6693,2.6617,2.6532,2.635,2.635,2.634,2.6244,2.5868,2.5499,2.4637,2.4251,2.4251,2.435,2.435,2.435,2.435,2.435,2.435,2.4251,2.4251,2.4251,2.4161,2.4161,2.4161,2.4161,2.4161,2.4161,2.4161,2.4161,2.4161,2.4161,2.4161,2.4161,2.4161,2.4161,2.4161,2.4161,2.4161,2.4161,2.4161,2.4161,2.4161,2.4161,2.4161,2.4161,2.4161,2.4161,2.4161,2.4161,2.4198,2.4207,2.418,2.4271,2.4537,2.4821,2.5106,2.5436,2.5738,2.5812,2.2872,2.3043,2.28,2.2237,2.1952,2.3145,2.3695,2.3993,2.4951,2.505,2.4382,2.4317,2.4307,2.4307,2.4307,2.4231,2.4231,2.4317,2.4312,2.4204,2.4278,2.4646,2.4805,2.4972,2.5372,2.5283,2.5506,2.602,2.6737,2.7296,2.8011,2.8359,2.795,2.7798,2.7704,2.7284,2.7189,2.784,2.7819,2.7547,2.6873,2.6796,2.6556,2.6239,2.6372,2.6281,2.6365,2.6954,2.7346,2.7589,2.8006,2.8017,2.7985,2.7923,2.7923,2.7829,2.7735,2.784,2.7851,2.7757,2.7673,2.7568,2.7284,2.6628,2.6532,2.5858,2.5392,2.5392,2.5771,2.5868,2.5868,2.5868,2.5868,2.5868,2.5304,2.4922,2.4538,2.4161,2.4161,2.4161,2.4161,2.4161,2.4161,2.4161,2.4161,2.426,2.426,2.4415,2.4405,2.4796,2.4659,2.4542,2.4796,2.4415,2.4161,2.4161,2.4161,2.4161,2.4161,2.427,2.4279,2.426,2.4161,2.4396,2.4442,2.4308,2.4308,2.4308,2.4611,2.4959,2.5225,2.5482,2.5927,2.6328,2.6537,2.3588,2.3446,2.3663,2.3544,2.326,2.4139,2.4525,2.4613,2.5123,2.5566,2.5853,2.5886,2.5926,2.5808,2.5819,2.5819,2.5597,2.5144,2.5096,2.5031,2.5236,2.5125,2.5412,2.5946,2.6098,2.6411,2.6648,2.7336,2.8063,2.8484,2.8528,2.8363,2.8404,2.8657,2.869,2.856,2.8424,2.8587,2.8679,2.8815,2.858,2.828,2.7796,2.7887,2.8233,2.8288,2.8087,2.8173,2.8701,2.9039,2.9143,2.9235,2.9246,2.9154,2.905,2.8947,2.9039,2.8855,2.868,2.8691,2.8412,2.8132,2.7662,2.7558,2.7558,2.7284,2.6904,2.6723,2.7094,2.7094,2.7094,2.7094,2.7094,2.6999,2.6244,2.5586,2.5109,2.4655,2.4665,2.4684,2.474,2.4839,2.4815,2.4796,2.4786,2.4669,2.4669,2.4786,2.506,2.5746,2.6131,2.6003,2.6121,2.558,2.4532,2.4405,2.4523,2.4161,2.426,2.4279,2.4523,2.4914,2.4942,2.4796,2.4843,2.4927,2.4701,2.4537,2.4904,2.5506,2.6031,2.636,2.693,2.733,2.7431,2.4636,2.442,2.4525,2.4127,2.37,2.4786,2.5177,2.5258,2.6264,2.68,2.6647,2.6616,2.6403,2.5808,2.5819,2.5837,2.5957,2.5639,2.5262,2.5022,2.5418,2.53,2.5519,2.634,2.6264,2.6766,2.7478,2.7999,2.8763,2.9101,2.9593,2.998,2.8779,2.8695,2.8641,2.8656,2.8745,2.9162,2.9498,2.9564,2.9808,2.9415,2.8858,2.9069,2.9535,2.9335,2.9224,2.9258,2.9511,3.0021,3.0531,3.0722,3.0722,3.0644,3.0543,3.0351,3.0441,3.0351,3.017,3.0079,2.9897,2.9635,2.9349,2.9073,2.9073,2.9084,2.8609,2.8049,2.8049,2.7568,2.7568,2.7568,2.7474,2.7379,2.6904,2.6713,2.6426,2.643,2.651,2.6681,2.6871,2.712,2.7351,2.7242,2.7232,2.7212,2.7102,2.7212,2.6963,2.7351,2.7621,2.7481,2.7361,2.6003,2.4796,2.4923,2.4923,2.4532,2.4542,2.5324,2.5846,2.5993,2.5993,2.5993,2.5855,2.5794,2.5462,2.5616,2.5619,2.6305,2.6949,2.7437,2.7921,2.8447,2.878]},{"header":{"parameterUnit":"m.s-1","parameterCategory":1,"la1":31.0,"la2":29.5877,"lo1":-88.7671,"lo2":-86.6584,"dy":0.0162,"dx":0.0185,"nx":115,"ny":88,"refTime":"2024-04-10T06:00:00:Z","depth":0,"parameterNumber":3,"parameterNumberName":"V-component_of_WINDS"},"data":[0.0,0.0,0.0,0.0,0.0,0.0,0.0,0.0,0.0,0.0,0.0,0.0,0.0,0.0,0.0,0.0,0.0,0.0,0.0,0.0,0.0,0.0,0.0,0.0,0.0,0.0,0.0,0.0,0.0,0.0,0.0,0.0,0.0,0.0,0.0,0.0,0.0,0.0,0.0,0.0,0.0,0.0,0.0,0.0,0.0,0.0,0.0,0.0,0.0,0.0,0.0,0.0,0.0,0.0,0.0,0.0,0.0,0.0,0.0,0.0,0.0,0.0,0.0,0.0,0.0,0.0,0.0,0.0,0.0,0.0,0.0,0.0,0.0,0.0,0.0,0.0,0.0,0.0,0.0,0.0,0.0,0.0,0.0,0.0,0.0,0.0,0.0,0.0,0.0,0.0,0.0,0.0,0.0,0.0,0.0,0.0,0.0,0.0,0.0,0.0,0.0,0.0,0.0,0.0,0.0,0.0,0.0,0.0,0.0,0.0,0.0,0.0,0.0,0.0,0.0,0.0,0.0,0.0,0.0,0.0,0.0,0.0,0.0,0.0,0.0,0.0,0.0,0.0,0.0,0.0,0.0,0.0,0.0,0.0,0.0,0.0,0.0,0.0,0.0,0.0,0.0,0.0,0.0,0.0,0.0,0.0,0.0,0.0,0.0,0.0,0.0,0.0,0.0,0.0,0.0,0.0,0.0,0.0,0.0,0.0,0.0,0.0,0.0,0.0,0.0,0.0,0.0,0.0,0.0,0.0,0.0,0.0,0.0,0.0,0.0,0.0,0.0,0.0,0.0,0.0,0.0,0.0,0.0,0.0,0.0,0.0,0.0,0.0,0.0,0.0,0.0,0.0,0.0,0.0,0.0,0.0,0.0,0.0,0.0,0.0,0.0,0.0,0.0,0.0,0.0,0.0,0.0,0.0,0.0,0.0,0.0,0.0,0.0,0.0,0.0,0.0,0.0,0.0,0.0,0.0,0.0,0.0,0.0,0.0,0.0,0.0,0.0,0.0,0.0,0.0,0.0,0.0,0.0,0.0,0.0,0.0,0.0,0.0,0.0,0.0,0.0,0.0,0.0,0.0,0.0,0.0,0.0,0.0,0.0,0.0,0.0,0.0,0.0,0.0,0.0,0.0,0.0,0.0,0.0,0.0,0.0,0.0,0.0,0.0,0.0,0.0,0.0,0.0,0.0,0.0,0.0,0.0,0.0,0.0,0.0,0.0,0.0,0.0,0.0,0.0,0.0,0.0,0.0,0.0,0.0,0.0,0.0,0.0,0.0,0.0,0.0,0.0,0.0,0.0,0.0,0.0,0.0,0.0,0.0,0.0,0.0,0.0,0.0,0.0,0.0,0.0,0.0,0.0,0.0,0.0,0.0,0.0,0.0,0.0,0.0,0.0,0.0,0.0,0.0,0.0,0.0,0.0,0.0,0.0,0.0,0.0,0.0,0.0,0.0,0.0,0.0,0.0,0.0,0.0,0.0,0.0,0.0,0.0,0.0,0.0,0.0,0.0,0.0,0.0,0.0,0.0,0.0,0.0,0.0,0.0,0.0,0.0,0.0,0.0,0.0,0.0,0.0,0.0,0.0,0.0,0.0,0.0,0.0,0.0,0.0,0.0,0.0,0.0,0.0,0.0,0.0,0.0,0.0,0.0,0.0,0.0,0.0,0.0,0.0,0.0,0.0,0.0,0.0,0.0,0.0,0.0,0.0,0.0,0.0,0.0,0.0,0.0,0.0,0.0,0.0,0.0,0.0,0.0,0.0,0.0,0.0,0.0,0.0,0.0,0.0,0.0,0.0,0.0,0.0,0.0,0.0,0.0,0.0,0.0,0.0,0.0,0.0,0.0,0.0,0.0,0.0,0.0,0.0,0.0,0.0,0.0,0.0,0.0,0.0,0.0,0.0,0.0,0.0,0.0,0.0,0.0,0.0,0.0,0.0,0.0,0.0,0.0,0.0,0.0,0.0,0.0,0.0,0.0,0.0,0.0,0.0,0.0,0.0,0.0,0.0,0.0,0.0,0.0,0.0,0.0,0.0,0.0,0.0,0.0,0.0,0.0,0.0,0.0,0.0,0.0,0.0,0.0,0.0,0.0,0.0,0.0,0.0,0.0,0.0,0.0,0.0,0.0,0.0,0.0,0.0,0.0,0.0,0.0,0.0,0.0,0.0,0.0,0.0,0.0,0.0,0.0,0.0,0.0,0.0,0.0,0.0,0.0,0.0,0.0,0.0,0.0,0.0,0.0,0.0,0.0,0.0,0.0,0.0,0.0,0.0,0.0,0.0,0.0,0.0,0.0,0.0,0.0,0.0,0.0,0.0,0.0,0.0,0.0,0.0,0.0,0.0,0.0,0.0,0.0,0.0,0.0,0.0,0.0,0.0,0.0,0.0,0.0,0.0,0.0,0.0,0.0,0.0,0.0,0.0,0.0,0.0,0.0,0.0,0.0,0.0,0.0,0.0,0.0,0.0,0.0,0.0,0.0,0.0,0.0,0.0,0.0,0.0,0.0,0.0,0.0,0.0,0.0,0.0,0.0,0.0,0.0,0.0,0.0,0.0,0.0,0.0,0.0,0.0,0.0,0.0,0.0,0.0,0.0,0.0,0.0,0.0,0.0,0.0,0.0,0.0,0.0,0.0,0.0,0.0,0.0,0.0,0.0,0.0,0.0,0.0,0.0,0.0,0.0,0.0,0.0,0.0,0.0,0.0,0.0,0.0,0.0,0.0,0.0,0.0,0.0,0.0,0.0,0.0,0.0,0.0,0.0,0.0,0.0,0.0,0.0,0.0,0.0,0.0,0.0,0.0,0.0,0.0,0.0,0.0,0.0,0.0,0.0,0.0,0.0,0.0,0.0,0.0,0.0,0.0,0.0,0.0,0.0,0.0,0.0,0.0,0.0,0.0,0.0,0.0,0.0,0.0,0.0,0.0,0.0,0.0,0.0,0.0,0.0,0.0,0.0,0.0,0.0,0.0,0.0,0.0,0.0,0.0,0.0,0.0,0.0,0.0,0.0,0.0,0.0,0.0,0.0,0.0,0.0,0.0,0.0,0.0,0.0,0.0,0.0,0.0,0.0,0.0,0.0,0.0,0.0,0.0,0.0,0.0,0.0,0.0,0.0,0.0,0.0,0.0,0.0,0.0,0.0,0.0,0.0,0.0,0.0,0.0,0.0,0.0,0.0,0.0,0.0,0.0,0.0,0.0,0.0,0.0,0.0,0.0,0.0,0.0,0.0,0.0,0.0,0.0,0.0,0.0,0.0,0.0,0.0,0.0,0.0,0.0,0.0,0.0,0.0,0.0,0.0,0.0,0.0,0.0,0.0,0.0,0.0,0.0,0.0,0.0,0.0,0.0,0.0,0.0,0.0,0.0,0.0,0.0,0.0,0.0,0.0,0.0,0.0,0.0,0.0,0.0,0.0,0.0,0.0,0.0,0.0,0.0,0.0,0.0,0.0,0.0,0.0,0.0,0.0,0.0,0.0,0.0,0.0,0.0,0.0,0.0,0.0,0.0,0.0,0.0,0.0,0.0,0.0,0.0,0.0,0.0,0.0,0.0,0.0,0.0,0.0,0.0,0.0,0.0,0.0,0.0,0.0,0.0,0.0,0.0,0.0,0.0,0.0,0.0,0.0,0.0,0.0,0.0,0.0,0.0,0.0,0.0,0.0,0.0,0.0,0.0,0.0,0.0,0.0,0.0,0.0,0.0,0.0,0.0,0.0,0.0,0.0,0.0,0.0,0.0,0.0,0.0,0.0,0.0,0.0,0.0,0.0,0.0,0.0,0.0,0.0,0.0,0.0,0.0,0.0,0.0,0.0,0.0,0.0,0.0,0.0,0.0,0.0,0.0,0.0,0.0,0.0,0.0,0.0,0.0,0.0,0.0,0.0,0.0,0.0,0.0,0.0,0.0,0.0,0.0,0.0,0.0,0.0,0.0,0.0,0.0,0.0,0.0,0.0,0.0,0.0,0.0,0.0,0.0,0.0,0.0,0.0,0.0,0.0,0.0,0.0,0.0,0.0,0.0,0.0,0.0,0.0,0.0,0.0,0.0,0.0,0.0,0.0,0.0,0.0,0.0,0.0,0.0,0.0,0.0,0.0,0.0,0.0,0.0,0.0,0.0,0.0,0.0,0.0,0.0,0.0,0.0,0.0,0.0,0.0,0.0,0.0,0.0,0.0,0.0,0.0,0.0,0.0,0.0,0.0,0.0,0.0,0.0,0.0,0.0,0.0,0.0,0.0,0.0,0.0,0.0,0.0,0.0,0.0,-2.6508,0.0,0.0,0.0,0.0,0.0,0.0,0.0,0.0,0.0,0.0,0.0,0.0,0.0,0.0,0.0,0.0,0.0,0.0,0.0,0.0,0.0,0.0,0.0,0.0,0.0,0.0,0.0,0.0,0.0,0.0,0.0,0.0,0.0,0.0,0.0,0.0,0.0,0.0,0.0,0.0,0.0,0.0,0.0,0.0,0.0,0.0,0.0,0.0,0.0,0.0,0.0,0.0,0.0,0.0,0.0,0.0,0.0,0.0,0.0,0.0,0.0,0.0,0.0,0.0,0.0,0.0,0.0,0.0,0.0,0.0,0.0,0.0,0.0,0.0,0.0,0.0,0.0,0.0,0.0,0.0,0.0,0.0,0.0,0.0,0.0,0.0,0.0,0.0,0.0,0.0,0.0,0.0,0.0,0.0,0.0,0.0,0.0,0.0,0.0,0.0,0.0,0.0,0.0,0.0,0.0,0.0,0.0,0.0,0.0,0.0,-2.6521,-2.6521,-2.6521,-2.6521,-2.6508,0.0,0.0,0.0,0.0,0.0,0.0,0.0,0.0,0.0,0.0,0.0,0.0,0.0,0.0,0.0,0.0,0.0,0.0,0.0,0.0,0.0,0.0,0.0,0.0,0.0,0.0,0.0,0.0,0.0,0.0,0.0,0.0,0.0,0.0,0.0,0.0,0.0,0.0,0.0,0.0,0.0,0.0,0.0,0.0,0.0,0.0,0.0,0.0,0.0,0.0,0.0,0.0,0.0,0.0,0.0,0.0,0.0,0.0,0.0,0.0,0.0,0.0,0.0,0.0,0.0,0.0,0.0,0.0,0.0,0.0,0.0,0.0,0.0,0.0,0.0,0.0,0.0,0.0,0.0,0.0,0.0,0.0,0.0,0.0,0.0,0.0,0.0,0.0,0.0,0.0,0.0,0.0,0.0,0.0,0.0,0.0,0.0,0.0,0.0,0.0,0.0,0.0,0.0,0.0,0.0,0.0,0.0,0.0,0.0,0.0,0.0,0.0,-2.6602,-2.6408,-2.6236,0.0,0.0,0.0,0.0,0.0,0.0,0.0,0.0,0.0,0.0,0.0,0.0,0.0,0.0,0.0,0.0,0.0,0.0,0.0,0.0,0.0,0.0,0.0,0.0,0.0,0.0,0.0,0.0,0.0,0.0,0.0,0.0,0.0,0.0,0.0,0.0,0.0,0.0,0.0,0.0,0.0,0.0,0.0,0.0,0.0,0.0,0.0,0.0,0.0,0.0,0.0,0.0,0.0,0.0,0.0,0.0,0.0,0.0,0.0,0.0,0.0,0.0,0.0,0.0,0.0,0.0,0.0,0.0,0.0,0.0,0.0,0.0,0.0,0.0,0.0,0.0,0.0,0.0,0.0,0.0,0.0,0.0,0.0,0.0,0.0,0.0,0.0,0.0,0.0,0.0,0.0,0.0,0.0,0.0,0.0,0.0,0.0,0.0,0.0,0.0,0.0,0.0,0.0,0.0,0.0,0.0,0.0,0.0,0.0,0.0,-2.6615,-2.6926,-2.6739,0.0,-2.5331,0.0,0.0,0.0,0.0,0.0,0.0,0.0,0.0,0.0,0.0,0.0,0.0,0.0,0.0,0.0,0.0,0.0,0.0,0.0,0.0,0.0,0.0,0.0,0.0,0.0,0.0,0.0,0.0,0.0,0.0,0.0,0.0,0.0,0.0,0.0,0.0,0.0,0.0,0.0,0.0,0.0,0.0,0.0,0.0,0.0,0.0,0.0,0.0,0.0,0.0,0.0,0.0,0.0,0.0,0.0,0.0,0.0,0.0,0.0,0.0,0.0,0.0,0.0,0.0,0.0,0.0,0.0,0.0,0.0,0.0,0.0,0.0,0.0,0.0,0.0,0.0,0.0,0.0,0.0,0.0,0.0,0.0,0.0,0.0,0.0,0.0,0.0,0.0,0.0,0.0,0.0,0.0,0.0,0.0,0.0,0.0,0.0,0.0,0.0,0.0,0.0,0.0,0.0,0.0,0.0,0.0,0.0,0.0,0.0,0.0,-2.6752,-2.6994,-2.6918,-2.6501,0.0,0.0,0.0,0.0,0.0,0.0,0.0,0.0,0.0,0.0,0.0,0.0,0.0,0.0,0.0,0.0,0.0,0.0,0.0,0.0,0.0,0.0,0.0,0.0,0.0,0.0,0.0,0.0,0.0,0.0,0.0,0.0,0.0,0.0,0.0,0.0,0.0,0.0,0.0,0.0,0.0,0.0,0.0,0.0,0.0,0.0,0.0,0.0,0.0,0.0,0.0,0.0,0.0,0.0,0.0,0.0,0.0,0.0,0.0,0.0,0.0,0.0,0.0,0.0,0.0,0.0,0.0,0.0,0.0,0.0,0.0,0.0,0.0,0.0,0.0,0.0,0.0,0.0,0.0,0.0,0.0,0.0,0.0,0.0,0.0,0.0,0.0,0.0,0.0,0.0,0.0,0.0,0.0,0.0,0.0,0.0,0.0,0.0,0.0,0.0,0.0,0.0,0.0,0.0,0.0,0.0,0.0,0.0,0.0,0.0,-2.6714,-2.6807,-2.7105,-2.7087,-2.6778,-2.5975,0.0,0.0,0.0,0.0,0.0,0.0,0.0,0.0,0.0,0.0,0.0,0.0,0.0,0.0,0.0,0.0,0.0,0.0,0.0,0.0,0.0,0.0,0.0,0.0,0.0,0.0,0.0,0.0,0.0,0.0,0.0,0.0,0.0,0.0,0.0,0.0,0.0,0.0,0.0,0.0,0.0,0.0,0.0,0.0,0.0,0.0,0.0,0.0,0.0,0.0,0.0,0.0,0.0,0.0,0.0,0.0,0.0,0.0,0.0,0.0,0.0,0.0,0.0,0.0,0.0,0.0,0.0,0.0,0.0,0.0,0.0,0.0,0.0,0.0,0.0,0.0,0.0,0.0,0.0,0.0,0.0,0.0,0.0,0.0,0.0,0.0,0.0,0.0,0.0,0.0,0.0,0.0,0.0,0.0,0.0,0.0,0.0,0.0,0.0,0.0,0.0,0.0,0.0,0.0,0.0,0.0,0.0,0.0,-2.6943,-2.6794,-2.6918,-2.7335,-2.7377,-2.6857,0.0,0.0,0.0,0.0,0.0,0.0,0.0,0.0,0.0,0.0,0.0,0.0,0.0,0.0,0.0,0.0,0.0,0.0,0.0,0.0,0.0,0.0,0.0,0.0,0.0,0.0,0.0,0.0,0.0,0.0,0.0,0.0,0.0,0.0,0.0,0.0,0.0,0.0,0.0,0.0,0.0,0.0,0.0,0.0,0.0,0.0,0.0,0.0,0.0,0.0,0.0,0.0,0.0,0.0,0.0,0.0,0.0,0.0,0.0,0.0,0.0,0.0,0.0,0.0,0.0,0.0,0.0,0.0,0.0,0.0,0.0,0.0,0.0,0.0,0.0,0.0,0.0,0.0,0.0,0.0,0.0,0.0,0.0,0.0,0.0,0.0,0.0,0.0,0.0,0.0,0.0,0.0,0.0,0.0,0.0,0.0,0.0,0.0,0.0,0.0,0.0,0.0,0.0,0.0,0.0,0.0,0.0,0.0,0.0,-2.7024,-2.7456,-2.8091,-2.8853,-2.8661,-2.7898,0.0,0.0,0.0,0.0,0.0,0.0,0.0,0.0,0.0,0.0,0.0,0.0,0.0,0.0,0.0,0.0,0.0,0.0,0.0,0.0,0.0,0.0,0.0,0.0,0.0,0.0,0.0,0.0,0.0,0.0,0.0,0.0,0.0,0.0,0.0,0.0,0.0,0.0,0.0,0.0,0.0,0.0,0.0,0.0,0.0,0.0,0.0,0.0,0.0,0.0,0.0,0.0,0.0,0.0,0.0,0.0,0.0,0.0,0.0,0.0,0.0,0.0,0.0,0.0,0.0,0.0,0.0,0.0,0.0,0.0,0.0,0.0,0.0,0.0,0.0,0.0,0.0,0.0,0.0,0.0,0.0,0.0,0.0,0.0,0.0,0.0,0.0,0.0,0.0,0.0,0.0,0.0,0.0,0.0,0.0,0.0,0.0,0.0,0.0,0.0,0.0,0.0,0.0,0.0,0.0,0.0,0.0,0.0,0.0,-2.7335,0.0,-2.9071,-2.9498,-2.9254,-2.8483,0.0,0.0,0.0,0.0,0.0,0.0,0.0,0.0,0.0,0.0,0.0,0.0,0.0,0.0,0.0,0.0,0.0,0.0,0.0,0.0,0.0,0.0,0.0,0.0,0.0,0.0,0.0,0.0,0.0,0.0,0.0,0.0,0.0,0.0,0.0,0.0,0.0,0.0,0.0,0.0,0.0,0.0,0.0,0.0,0.0,0.0,0.0,0.0,0.0,0.0,0.0,0.0,0.0,0.0,0.0,0.0,0.0,0.0,0.0,0.0,0.0,0.0,0.0,0.0,0.0,0.0,0.0,0.0,0.0,0.0,0.0,0.0,0.0,0.0,0.0,0.0,0.0,0.0,0.0,0.0,0.0,0.0,0.0,0.0,0.0,0.0,0.0,0.0,0.0,0.0,0.0,0.0,0.0,0.0,0.0,0.0,0.0,0.0,0.0,0.0,0.0,0.0,0.0,0.0,0.0,0.0,0.0,0.0,-2.7188,-2.8052,-2.9226,-2.9645,-2.9162,-2.9116,-2.8514,0.0,0.0,0.0,0.0,0.0,0.0,0.0,0.0,0.0,0.0,0.0,0.0,0.0,0.0,0.0,0.0,0.0,0.0,0.0,0.0,0.0,0.0,0.0,0.0,0.0,0.0,0.0,0.0,0.0,0.0,0.0,0.0,0.0,0.0,0.0,0.0,0.0,0.0,0.0,0.0,0.0,0.0,0.0,0.0,0.0,0.0,0.0,0.0,0.0,0.0,0.0,0.0,0.0,0.0,0.0,0.0,0.0,0.0,0.0,0.0,0.0,0.0,0.0,0.0,0.0,0.0,0.0,0.0,0.0,0.0,0.0,0.0,0.0,0.0,0.0,0.0,0.0,0.0,0.0,0.0,0.0,0.0,0.0,0.0,0.0,0.0,0.0,0.0,0.0,0.0,0.0,0.0,0.0,0.0,0.0,0.0,0.0,0.0,0.0,0.0,0.0,0.0,0.0,0.0,0.0,0.0,0.0,0.0,0.0,-2.9744,-3.06,-3.1027,-3.074,-3.0725,-2.9786,0.0,0.0,0.0,0.0,0.0,0.0,0.0,0.0,0.0,0.0,0.0,0.0,0.0,0.0,0.0,0.0,0.0,0.0,0.0,0.0,0.0,0.0,0.0,0.0,0.0,0.0,0.0,0.0,0.0,0.0,0.0,0.0,0.0,0.0,0.0,0.0,0.0,0.0,0.0,0.0,0.0,0.0,0.0,0.0,0.0,0.0,0.0,0.0,0.0,0.0,0.0,0.0,0.0,0.0,0.0,0.0,0.0,0.0,0.0,0.0,0.0,0.0,0.0,0.0,0.0,0.0,0.0,0.0,0.0,0.0,0.0,0.0,0.0,0.0,0.0,0.0,0.0,0.0,0.0,0.0,0.0,0.0,0.0,0.0,0.0,0.0,0.0,0.0,0.0,0.0,0.0,0.0,0.0,0.0,0.0,0.0,0.0,0.0,0.0,0.0,0.0,0.0,0.0,0.0,0.0,0.0,0.0,0.0,0.0,-3.1875,-3.2213,-3.2321,-3.2266,-3.2019,-3.0968,-2.91,0.0,0.0,0.0,0.0,0.0,0.0,0.0,0.0,0.0,0.0,0.0,0.0,0.0,0.0,0.0,0.0,0.0,0.0,0.0,0.0,0.0,0.0,0.0,0.0,0.0,0.0,0.0,0.0,0.0,0.0,0.0,0.0,0.0,0.0,0.0,0.0,0.0,0.0,0.0,0.0,0.0,0.0,0.0,0.0,0.0,0.0,0.0,0.0,0.0,0.0,0.0,0.0,0.0,0.0,0.0,0.0,0.0,0.0,0.0,0.0,0.0,0.0,0.0,0.0,0.0,0.0,0.0,0.0,0.0,0.0,0.0,0.0,0.0,0.0,0.0,0.0,0.0,0.0,0.0,0.0,0.0,0.0,0.0,0.0,0.0,0.0,0.0,0.0,0.0,0.0,0.0,0.0,0.0,0.0,0.0,0.0,0.0,0.0,0.0,0.0,0.0,0.0,0.0,0.0,0.0,0.0,0.0,0.0,-3.4375,-3.395,-3.3718,-3.3682,-3.2984,-3.2024,0.0,0.0,0.0,0.0,0.0,0.0,0.0,0.0,0.0,0.0,0.0,0.0,0.0,0.0,0.0,0.0,0.0,0.0,0.0,0.0,0.0,0.0,0.0,0.0,0.0,0.0,0.0,0.0,0.0,0.0,0.0,0.0,0.0,0.0,0.0,0.0,0.0,0.0,0.0,0.0,0.0,0.0,0.0,0.0,0.0,0.0,0.0,0.0,0.0,0.0,0.0,0.0,0.0,0.0,0.0,0.0,0.0,0.0,0.0,0.0,0.0,0.0,0.0,0.0,0.0,0.0,0.0,0.0,0.0,0.0,0.0,0.0,0.0,0.0,0.0,0.0,0.0,0.0,0.0,0.0,0.0,0.0,0.0,0.0,0.0,0.0,0.0,0.0,0.0,0.0,0.0,0.0,0.0,0.0,0.0,0.0,0.0,0.0,0.0,0.0,0.0,0.0,0.0,0.0,0.0,0.0,0.0,0.0,0.0,-3.5371,-3.5983,-3.6129,-3.5685,-3.4688,-3.3354,0.0,0.0,0.0,0.0,0.0,0.0,0.0,0.0,0.0,0.0,0.0,0.0,0.0,0.0,0.0,0.0,0.0,0.0,0.0,0.0,0.0,0.0,0.0,0.0,0.0,0.0,0.0,0.0,0.0,0.0,0.0,0.0,0.0,0.0,0.0,0.0,0.0,0.0,0.0,0.0,0.0,0.0,0.0,0.0,0.0,0.0,0.0,0.0,0.0,0.0,0.0,0.0,0.0,0.0,0.0,0.0,0.0,0.0,0.0,0.0,0.0,0.0,0.0,0.0,0.0,0.0,0.0,0.0,0.0,0.0,0.0,0.0,0.0,0.0,0.0,0.0,0.0,0.0,0.0,0.0,0.0,0.0,0.0,0.0,0.0,0.0,0.0,0.0,0.0,0.0,0.0,0.0,0.0,0.0,0.0,0.0,0.0,0.0,0.0,0.0,0.0,0.0,0.0,0.0,0.0,0.0,0.0,0.0,-3.4318,-3.5722,-3.7403,-3.8044,-3.7692,-3.5858,-3.4147,0.0,0.0,0.0,0.0,0.0,0.0,0.0,0.0,0.0,0.0,0.0,0.0,0.0,0.0,0.0,0.0,0.0,0.0,0.0,0.0,0.0,0.0,0.0,0.0,0.0,0.0,0.0,0.0,0.0,0.0,0.0,0.0,0.0,0.0,0.0,0.0,0.0,0.0,0.0,0.0,0.0,0.0,0.0,0.0,0.0,0.0,0.0,0.0,0.0,0.0,0.0,0.0,0.0,0.0,0.0,0.0,0.0,0.0,0.0,0.0,0.0,0.0,0.0,0.0,0.0,0.0,0.0,0.0,0.0,0.0,0.0,0.0,0.0,0.0,0.0,0.0,0.0,0.0,0.0,0.0,0.0,0.0,0.0,0.0,0.0,0.0,0.0,0.0,0.0,0.0,0.0,0.0,0.0,0.0,0.0,0.0,0.0,0.0,0.0,0.0,0.0,0.0,0.0,0.0,0.0,0.0,0.0,0.0,-3.4634,-3.5867,-3.8162,-3.943,-3.9437,-3.6638,-3.4699,0.0,0.0,0.0,0.0,0.0,0.0,0.0,0.0,0.0,0.0,0.0,0.0,0.0,0.0,0.0,0.0,0.0,0.0,0.0,0.0,0.0,0.0,0.0,0.0,0.0,0.0,0.0,0.0,0.0,0.0,0.0,0.0,0.0,0.0,0.0,0.0,0.0,0.0,0.0,0.0,0.0,0.0,0.0,0.0,0.0,0.0,0.0,0.0,0.0,0.0,0.0,0.0,0.0,0.0,0.0,0.0,0.0,0.0,0.0,0.0,0.0,0.0,0.0,0.0,0.0,0.0,0.0,0.0,0.0,0.0,0.0,0.0,0.0,0.0,0.0,0.0,0.0,0.0,0.0,0.0,0.0,0.0,0.0,0.0,0.0,0.0,0.0,0.0,0.0,0.0,0.0,0.0,0.0,0.0,0.0,0.0,0.0,0.0,0.0,0.0,0.0,0.0,0.0,0.0,0.0,0.0,0.0,0.0,-3.5439,-3.7202,-3.82,-3.9134,-4.0127,-3.7802,-3.5998,0.0,0.0,0.0,0.0,0.0,0.0,0.0,0.0,0.0,0.0,0.0,0.0,0.0,0.0,0.0,0.0,0.0,0.0,0.0,0.0,0.0,0.0,0.0,0.0,0.0,0.0,0.0,0.0,0.0,0.0,0.0,0.0,0.0,0.0,0.0,0.0,0.0,0.0,0.0,0.0,0.0,0.0,0.0,0.0,0.0,0.0,0.0,0.0,-3.9803,0.0,0.0,0.0,0.0,0.0,0.0,0.0,0.0,0.0,0.0,0.0,0.0,0.0,0.0,0.0,0.0,0.0,0.0,0.0,0.0,0.0,0.0,0.0,0.0,0.0,0.0,0.0,0.0,0.0,0.0,0.0,0.0,0.0,0.0,0.0,0.0,0.0,0.0,0.0,0.0,0.0,0.0,0.0,0.0,0.0,0.0,0.0,0.0,0.0,0.0,0.0,0.0,0.0,0.0,0.0,0.0,0.0,0.0,0.0,-3.5493,-3.7054,-3.7796,-3.8569,-3.9345,-3.7969,-3.6562,0.0,0.0,0.0,0.0,0.0,0.0,0.0,0.0,0.0,0.0,0.0,0.0,0.0,0.0,0.0,0.0,0.0,0.0,0.0,0.0,0.0,0.0,0.0,0.0,0.0,0.0,0.0,0.0,0.0,0.0,0.0,0.0,0.0,0.0,0.0,0.0,0.0,0.0,0.0,0.0,0.0,0.0,0.0,0.0,0.0,0.0,0.0,0.0,0.0,0.0,0.0,0.0,0.0,0.0,0.0,0.0,0.0,0.0,0.0,0.0,0.0,0.0,0.0,0.0,0.0,0.0,0.0,0.0,0.0,0.0,0.0,0.0,0.0,0.0,0.0,0.0,0.0,0.0,0.0,0.0,0.0,0.0,0.0,0.0,0.0,0.0,0.0,0.0,0.0,0.0,0.0,0.0,0.0,0.0,0.0,0.0,0.0,0.0,0.0,0.0,0.0,0.0,0.0,0.0,0.0,0.0,0.0,-3.3671,-3.5498,-3.686,-3.7632,-3.8238,-3.86,-3.7997,-3.6891,-3.5371,0.0,0.0,0.0,0.0,0.0,0.0,0.0,0.0,0.0,0.0,0.0,0.0,0.0,0.0,0.0,0.0,0.0,0.0,0.0,0.0,0.0,0.0,0.0,0.0,0.0,0.0,0.0,0.0,0.0,0.0,0.0,0.0,0.0,0.0,0.0,0.0,0.0,0.0,-3.4565,-3.6178,0.0,0.0,0.0,0.0,0.0,0.0,0.0,0.0,-4.322,0.0,0.0,0.0,0.0,0.0,0.0,0.0,0.0,0.0,0.0,0.0,0.0,0.0,0.0,0.0,0.0,0.0,0.0,0.0,0.0,0.0,0.0,0.0,0.0,0.0,0.0,0.0,0.0,0.0,0.0,0.0,0.0,0.0,0.0,0.0,0.0,0.0,0.0,0.0,0.0,0.0,0.0,0.0,0.0,0.0,0.0,0.0,0.0,0.0,0.0,0.0,0.0,0.0,0.0,0.0,0.0,-3.3129,-3.4589,-3.6509,-3.8957,-3.8805,-3.8902,-3.9415,-3.8714,-3.7482,-3.5921,0.0,0.0,0.0,0.0,0.0,0.0,0.0,0.0,0.0,0.0,0.0,0.0,0.0,0.0,0.0,0.0,0.0,0.0,0.0,0.0,0.0,0.0,0.0,0.0,0.0,0.0,0.0,0.0,0.0,0.0,0.0,0.0,0.0,0.0,0.0,0.0,0.0,0.0,0.0,-3.8738,-3.9535,0.0,0.0,0.0,0.0,0.0,0.0,0.0,0.0,-4.432,0.0,0.0,0.0,0.0,0.0,0.0,0.0,0.0,0.0,0.0,0.0,0.0,0.0,0.0,0.0,0.0,0.0,0.0,0.0,0.0,0.0,0.0,0.0,0.0,0.0,0.0,0.0,0.0,0.0,0.0,0.0,0.0,0.0,0.0,0.0,0.0,0.0,0.0,0.0,0.0,0.0,0.0,0.0,0.0,0.0,0.0,0.0,0.0,0.0,0.0,0.0,0.0,0.0,0.0,0.0,-3.2953,-3.4755,-3.6653,-3.8648,-3.8521,-3.881,-3.9714,-3.8702,-3.748,0.0,0.0,0.0,0.0,0.0,0.0,0.0,0.0,0.0,0.0,0.0,0.0,0.0,0.0,0.0,0.0,0.0,0.0,0.0,0.0,0.0,0.0,0.0,0.0,0.0,0.0,0.0,0.0,0.0,0.0,0.0,0.0,0.0,0.0,0.0,0.0,0.0,0.0,0.0,0.0,-3.9964,-4.113,-4.3576,0.0,0.0,0.0,0.0,0.0,0.0,-4.5189,-4.4645,0.0,0.0,0.0,0.0,0.0,0.0,0.0,0.0,0.0,0.0,0.0,0.0,0.0,0.0,0.0,0.0,0.0,0.0,0.0,0.0,0.0,0.0,0.0,0.0,0.0,0.0,0.0,0.0,0.0,0.0,0.0,0.0,0.0,0.0,0.0,0.0,0.0,0.0,0.0,0.0,0.0,0.0,0.0,0.0,0.0,0.0,0.0,0.0,0.0,0.0,0.0,0.0,0.0,0.0,0.0,-3.2609,-3.4759,-3.6738,-3.8304,-3.814,-3.8629,-3.9935,-3.8488,-3.7203,0.0,0.0,0.0,0.0,0.0,0.0,0.0,0.0,0.0,0.0,0.0,0.0,0.0,0.0,0.0,0.0,0.0,0.0,0.0,0.0,0.0,0.0,0.0,0.0,0.0,0.0,0.0,0.0,0.0,0.0,0.0,0.0,0.0,0.0,0.0,0.0,0.0,0.0,0.0,0.0,0.0,-4.2303,-4.4557,-4.3698,0.0,0.0,0.0,0.0,-4.6287,-4.5969,0.0,0.0,0.0,0.0,0.0,0.0,0.0,0.0,0.0,0.0,0.0,0.0,0.0,0.0,0.0,0.0,0.0,0.0,0.0,0.0,0.0,0.0,0.0,0.0,0.0,0.0,0.0,0.0,0.0,0.0,0.0,0.0,0.0,0.0,0.0,0.0,0.0,0.0,0.0,0.0,0.0,0.0,0.0,0.0,0.0,0.0,0.0,0.0,0.0,0.0,0.0,0.0,0.0,0.0,0.0,0.0,-3.3206,-3.4955,-3.7129,-3.9473,-3.8504,-3.882,-4.059,-3.8106,-3.653,0.0,0.0,0.0,0.0,0.0,0.0,0.0,0.0,0.0,0.0,0.0,0.0,0.0,0.0,0.0,0.0,0.0,0.0,0.0,0.0,0.0,0.0,0.0,0.0,0.0,0.0,0.0,0.0,0.0,0.0,0.0,0.0,0.0,0.0,0.0,0.0,0.0,0.0,0.0,0.0,0.0,-4.291,-4.5955,-4.5046,-4.4592,0.0,0.0,-4.7374,-4.7652,-4.8826,0.0,0.0,0.0,0.0,0.0,0.0,0.0,0.0,0.0,0.0,0.0,0.0,0.0,0.0,0.0,0.0,0.0,0.0,0.0,0.0,0.0,0.0,0.0,0.0,0.0,0.0,0.0,0.0,0.0,0.0,0.0,0.0,0.0,0.0,0.0,0.0,0.0,0.0,0.0,0.0,0.0,0.0,0.0,0.0,0.0,0.0,0.0,0.0,0.0,0.0,0.0,0.0,0.0,0.0,0.0,-3.2321,-3.3217,-3.5194,-3.7038,-3.8625,-3.8048,-3.8406,-3.9797,-3.7882,-3.635,0.0,0.0,0.0,0.0,0.0,0.0,0.0,0.0,0.0,0.0,0.0,0.0,0.0,0.0,0.0,0.0,0.0,0.0,0.0,0.0,0.0,0.0,0.0,0.0,0.0,0.0,0.0,0.0,0.0,0.0,0.0,0.0,0.0,0.0,0.0,0.0,0.0,0.0,0.0,0.0,0.0,0.0,-4.5875,-4.5943,0.0,0.0,0.0,-4.7572,-4.8031,0.0,0.0,0.0,0.0,0.0,0.0,0.0,0.0,0.0,0.0,0.0,0.0,0.0,0.0,0.0,0.0,0.0,0.0,0.0,0.0,0.0,0.0,0.0,0.0,0.0,0.0,0.0,0.0,0.0,0.0,0.0,0.0,0.0,0.0,0.0,0.0,0.0,0.0,0.0,0.0,0.0,0.0,0.0,0.0,0.0,0.0,0.0,0.0,0.0,0.0,0.0,0.0,0.0,0.0,0.0,0.0,0.0,-3.3363,-3.5531,-3.7266,-3.8339,-3.8056,-3.8447,-3.9629,-3.7888,0.0,0.0,0.0,0.0,0.0,0.0,0.0,0.0,0.0,0.0,0.0,0.0,0.0,0.0,0.0,0.0,0.0,0.0,0.0,0.0,0.0,0.0,0.0,0.0,0.0,0.0,0.0,-2.8152,0.0,0.0,0.0,0.0,0.0,0.0,0.0,0.0,0.0,0.0,0.0,0.0,0.0,0.0,-4.4763,-4.6382,-4.6721,-4.7375,0.0,0.0,-4.7822,-4.8348,-4.878,-4.8672,0.0,0.0,0.0,0.0,0.0,0.0,0.0,0.0,0.0,0.0,0.0,0.0,0.0,0.0,0.0,0.0,0.0,0.0,0.0,0.0,0.0,0.0,0.0,0.0,0.0,0.0,0.0,0.0,0.0,0.0,0.0,0.0,0.0,0.0,0.0,0.0,0.0,0.0,0.0,0.0,0.0,0.0,0.0,0.0,0.0,0.0,0.0,0.0,0.0,0.0,0.0,0.0,0.0,0.0,-3.3354,-3.406,-3.6075,-3.8125,-4.0021,-3.9036,-3.9372,-4.1304,-3.8146,-3.6158,0.0,0.0,0.0,0.0,0.0,0.0,0.0,0.0,0.0,0.0,0.0,0.0,0.0,0.0,0.0,0.0,0.0,0.0,0.0,0.0,0.0,0.0,0.0,0.0,0.0,0.0,0.0,0.0,0.0,0.0,0.0,0.0,0.0,0.0,0.0,0.0,0.0,0.0,0.0,0.0,0.0,-4.4381,-4.828,-4.7579,-4.7764,0.0,-4.984,-4.8996,-4.9194,-5.0391,-5.0142,-4.6795,0.0,0.0,0.0,0.0,0.0,0.0,0.0,0.0,0.0,0.0,0.0,0.0,0.0,0.0,0.0,0.0,0.0,0.0,0.0,0.0,0.0,0.0,0.0,0.0,0.0,0.0,0.0,0.0,0.0,0.0,0.0,0.0,0.0,0.0,0.0,0.0,0.0,0.0,0.0,0.0,0.0,0.0,0.0,0.0,0.0,0.0,0.0,0.0,0.0,0.0,0.0,0.0,0.0,-3.3442,-3.4309,-3.6487,-3.8312,-3.9607,-3.9641,-4.0018,-4.089,-3.9537,-3.7835,0.0,0.0,0.0,0.0,0.0,0.0,0.0,0.0,0.0,0.0,0.0,0.0,0.0,0.0,0.0,0.0,0.0,0.0,0.0,0.0,0.0,0.0,0.0,0.0,0.0,0.0,0.0,0.0,-3.1166,-3.1886,-3.2207,0.0,0.0,0.0,0.0,0.0,0.0,0.0,0.0,0.0,0.0,-4.6095,-4.8107,-4.8375,0.0,0.0,-5.0176,-4.9443,-4.9924,-5.0553,-5.0405,-4.866,-4.7922,0.0,0.0,0.0,0.0,0.0,0.0,0.0,0.0,0.0,0.0,0.0,0.0,0.0,0.0,0.0,0.0,0.0,0.0,0.0,0.0,0.0,0.0,0.0,0.0,0.0,0.0,0.0,0.0,0.0,0.0,0.0,0.0,0.0,0.0,0.0,0.0,0.0,0.0,0.0,0.0,0.0,0.0,0.0,0.0,0.0,0.0,0.0,0.0,0.0,0.0,0.0,0.0,-3.3615,-3.473,-3.6962,-3.8722,-3.9944,-4.0571,-4.0953,-4.1165,-4.0633,-3.9103,0.0,0.0,0.0,0.0,0.0,0.0,0.0,0.0,0.0,0.0,0.0,0.0,0.0,0.0,0.0,0.0,0.0,0.0,0.0,0.0,0.0,0.0,0.0,0.0,0.0,0.0,0.0,0.0,-3.2653,-3.324,-3.3064,0.0,0.0,0.0,0.0,0.0,0.0,0.0,0.0,0.0,0.0,-4.7323,-4.8305,-4.9041,-4.9826,-5.1017,-5.0298,-4.9856,-5.0496,-5.0678,-5.054,-4.9794,0.0,0.0,0.0,0.0,0.0,0.0,0.0,0.0,0.0,0.0,0.0,0.0,0.0,0.0,0.0,0.0,0.0,0.0,0.0,0.0,0.0,0.0,0.0,0.0,0.0,0.0,0.0,-2.8395,0.0,0.0,-2.8777,0.0,0.0,0.0,0.0,0.0,0.0,0.0,0.0,0.0,0.0,0.0,0.0,0.0,0.0,0.0,0.0,0.0,0.0,0.0,0.0,0.0,0.0,-3.3969,-3.5557,-3.7533,-3.9522,-4.1468,-4.1954,-4.2314,-4.2674,-4.1305,-3.9516,-3.7422,0.0,0.0,0.0,0.0,0.0,0.0,0.0,0.0,0.0,0.0,0.0,0.0,0.0,0.0,0.0,0.0,0.0,0.0,0.0,0.0,0.0,0.0,0.0,0.0,0.0,0.0,-3.3322,-3.3587,-3.365,0.0,0.0,0.0,0.0,0.0,0.0,0.0,0.0,0.0,-4.3567,-4.5702,-4.7638,-4.9306,-4.9548,-4.9957,-5.0835,-5.0447,-5.0255,-5.0823,-5.0865,-5.0558,0.0,0.0,0.0,0.0,0.0,0.0,0.0,0.0,0.0,0.0,0.0,0.0,0.0,0.0,0.0,0.0,0.0,0.0,0.0,0.0,0.0,0.0,0.0,0.0,0.0,0.0,0.0,-3.1634,-3.2735,0.0,0.0,0.0,0.0,0.0,0.0,0.0,0.0,0.0,0.0,0.0,-3.484,-3.5688,0.0,0.0,0.0,0.0,0.0,0.0,0.0,0.0,0.0,0.0,0.0,0.0,-3.4101,-3.5903,-3.7385,-3.9276,-4.1516,-4.2247,-4.2674,-4.2779,-4.2303,-4.0589,-3.75,0.0,0.0,0.0,0.0,0.0,0.0,0.0,0.0,0.0,0.0,0.0,0.0,0.0,0.0,0.0,0.0,0.0,0.0,0.0,0.0,0.0,0.0,0.0,0.0,0.0,-3.548,0.0,0.0,0.0,0.0,0.0,0.0,0.0,0.0,0.0,0.0,0.0,-4.2309,-4.4207,-4.6174,-4.8096,-4.9927,-5.0308,-5.0693,0.0,0.0,0.0,0.0,0.0,0.0,0.0,0.0,0.0,0.0,0.0,0.0,0.0,0.0,-5.2196,-4.8937,-4.875,-4.9135,-4.9135,0.0,0.0,0.0,0.0,0.0,0.0,0.0,0.0,0.0,0.0,0.0,0.0,0.0,0.0,-3.464,0.0,-3.5475,0.0,0.0,0.0,0.0,0.0,0.0,0.0,0.0,-3.6505,-3.7148,-3.7417,-3.8205,-3.8474,0.0,-3.8222,-3.7484,0.0,0.0,0.0,0.0,0.0,0.0,0.0,0.0,-3.4696,-3.6307,-3.7776,-3.9488,-4.1378,-4.2214,-4.26,-4.2481,-4.1855,-4.0391,-3.805,-3.6208,-3.475,0.0,0.0,0.0,0.0,0.0,0.0,0.0,0.0,0.0,0.0,0.0,0.0,0.0,0.0,0.0,0.0,0.0,0.0,0.0,0.0,0.0,0.0,0.0,-3.6413,0.0,0.0,0.0,0.0,0.0,0.0,0.0,0.0,0.0,-4.0178,-4.1853,-4.3954,-4.6041,-4.751,-4.8836,-5.0349,0.0,0.0,0.0,0.0,0.0,0.0,0.0,-5.191,-5.1732,-5.1879,-5.2126,-5.2661,-5.3825,-5.4755,-5.503,0.0,0.0,-5.1694,-5.1269,-5.1431,-5.1491,-5.1171,-5.1094,-5.1926,-5.1661,-5.1383,0.0,0.0,0.0,0.0,0.0,0.0,0.0,0.0,-3.6423,-3.6486,0.0,-3.6624,0.0,0.0,0.0,0.0,-3.5747,-3.6494,0.0,0.0,-3.8928,-3.9781,-4.0488,-4.056,-4.065,-4.0771,-4.0823,-4.0821,-4.0547,-3.7045,0.0,0.0,0.0,0.0,0.0,0.0,-3.5708,-3.6789,-3.8712,-4.0176,-4.1079,-4.1857,-4.2132,-4.1916,-4.0186,-3.9203,-3.9082,-3.7396,-3.5974,-3.511,-3.4552,0.0,0.0,0.0,0.0,0.0,0.0,0.0,0.0,0.0,0.0,0.0,0.0,0.0,0.0,0.0,0.0,0.0,0.0,0.0,0.0,-3.6088,0.0,0.0,0.0,0.0,0.0,0.0,0.0,0.0,0.0,0.0,-4.3924,-4.4593,-4.6167,-4.8888,0.0,0.0,0.0,0.0,-5.1597,-5.114,-5.1174,-5.1414,-5.1782,-5.2131,-5.2518,-5.2919,0.0,0.0,-5.4533,-5.5332,-5.5632,-5.4944,-5.6057,-5.6871,-5.5983,-5.5143,-5.4759,-5.4812,-5.4758,-5.4968,-5.5174,-5.4988,-5.5025,-4.0099,0.0,0.0,0.0,0.0,-3.824,-3.9151,-4.0647,-4.057,-4.0823,-4.1306,-4.0607,0.0,0.0,0.0,0.0,0.0,0.0,-3.8897,-3.9962,-4.0197,-4.083,-4.1815,-4.2396,-4.2677,-4.2723,-4.3332,-4.3013,-4.183,-4.0176,-3.8646,-3.7189,0.0,0.0,0.0,0.0,-3.6232,-3.798,-3.8658,-3.9648,-4.1067,-4.1326,-4.168,-4.2167,-4.1113,-4.0446,-4.0289,-3.9788,-3.8662,-3.6961,-3.6051,0.0,0.0,0.0,0.0,0.0,0.0,0.0,0.0,0.0,0.0,0.0,0.0,0.0,0.0,0.0,0.0,0.0,0.0,0.0,-3.6394,-3.7865,-3.8619,0.0,0.0,0.0,0.0,0.0,0.0,0.0,0.0,0.0,-4.6265,-4.6051,-4.6355,0.0,0.0,-4.9341,-5.0424,-5.1006,-5.1517,-5.2177,-5.2045,0.0,-5.2822,-5.3023,-5.3143,-5.3263,-5.3545,-5.4055,-5.4929,-5.5398,-5.5846,-5.6272,-5.6776,-5.7037,-5.6955,-5.6762,-5.6453,-5.6088,-5.5977,-5.6033,-5.627,-5.6359,-5.6312,-4.3529,-4.2252,-4.0635,-4.0191,-4.0557,-4.0863,-4.1719,-4.2873,-4.3037,-4.32,-4.3345,-4.2867,-4.1887,-4.0589,-3.9289,0.0,0.0,0.0,-3.9881,-4.0849,-4.0868,-4.1387,-4.2295,-4.2806,-4.3223,-4.3526,-4.3715,-4.345,-4.2749,-4.1677,-4.0589,-3.9417,0.0,0.0,-3.7017,-3.6877,-3.7463,-3.8747,-3.9185,-3.9834,-4.0844,-4.109,-4.1452,-4.1931,-4.1727,-4.1533,-4.1434,-4.1429,-4.0616,-3.8951,-3.7942,-3.6693,0.0,0.0,0.0,0.0,0.0,0.0,0.0,0.0,0.0,0.0,0.0,-3.3193,-3.4229,0.0,0.0,0.0,-3.6239,-3.6612,-3.7674,-3.8806,0.0,0.0,0.0,0.0,0.0,0.0,0.0,-4.5102,-4.5988,-4.6807,-4.7733,-4.7434,-4.7545,-4.8722,-4.8918,-4.9359,-5.0525,0.0,-5.1323,-5.1998,-5.186,-5.189,-5.2352,-5.2525,-5.2752,-5.3256,-5.4037,-5.4689,-5.5248,-5.5767,-5.6243,-5.6583,-5.688,-5.7059,-5.696,-5.7248,-5.731,-5.6519,-5.6384,-5.6484,-5.6696,-5.6727,-5.6675,-4.5842,-4.554,-4.2247,-4.1368,-4.2189,-4.2989,-4.3686,-4.4249,-4.4248,-4.4097,-4.3895,-4.3792,-4.2878,-4.1321,-4.0519,0.0,-4.0072,-4.0133,-4.0589,-4.1266,-4.1209,-4.1548,-4.2268,-4.2344,-4.2762,-4.3464,-4.2876,-4.2895,-4.3373,-4.2028,-4.1231,-4.0978,-3.8781,-3.7661,-3.7757,-3.8592,-3.9063,-3.9193,-4.0038,-4.0489,-4.0508,-4.1032,-4.134,-4.1443,-4.2028,-4.237,-4.2424,-4.2424,-4.1893,-4.0741,-3.9701,-3.8226,-3.6232,0.0,0.0,0.0,0.0,0.0,0.0,0.0,0.0,0.0,0.0,0.0,0.0,0.0,0.0,-3.7772,-3.7745,0.0,-3.9405,-3.9301,0.0,0.0,0.0,-4.3018,-4.508,-4.5337,-4.5915,-4.7314,0.0,0.0,-4.8531,-4.8623,-4.9178,-5.0693,-4.9926,-4.9625,-5.0745,-5.0988,-5.11,-5.1304,-5.125,-5.1287,-5.1769,-5.1912,-5.2383,-5.3348,-5.4604,-5.5469,-5.5597,-5.6124,-5.6436,-5.6028,-5.6468,-5.6841,-5.6435,-5.7027,-5.7347,-5.6415,-5.652,-5.6709,-5.6709,-5.6869,-5.7002,-4.4826,-4.4236,-4.4015,-4.4374,-4.5084,-4.5244,-4.5391,-4.5553,-4.5553,-4.5449,-4.5271,-4.466,-4.3775,-4.2717,-4.2505,-4.2409,-4.2376,-4.2412,-4.2508,-4.2646,-4.203,-4.1802,-4.2016,-4.2667,-4.3071,-4.3321,-4.4399,-4.4323,-4.3211,-4.2829,-4.1967,-4.0682,-4.0049,-3.971,-3.9566,-3.9256,-3.9438,-4.0169,-4.0392,-4.0489,-4.0489,-4.0649,-4.1037,-4.169,-4.185,-4.2163,-4.2598,-4.2656,-4.1762,-3.9908,-3.8989,-3.7573,-3.5459,-3.4577,0.0,0.0,0.0,0.0,0.0,0.0,0.0,0.0,0.0,-3.5173,-3.6542,0.0,-3.7398,0.0,-3.8581,-3.9387,-4.0458,-4.1026,0.0,0.0,-4.3573,-4.471,-4.5772,-4.647,-4.7242,-4.8199,-4.8346,-4.8473,-4.8872,-4.8906,-4.9142,-4.9772,-4.9766,-4.9804,-5.0045,-5.102,-5.1907,-5.2446,-5.2892,-5.3509,-5.3917,-5.4268,-5.4296,-5.4683,-5.5072,-5.5347,-5.5347,-5.5534,-5.5689,-5.5662,-5.5801,-5.593,-5.597,-5.615,-5.6207,-5.6109,-5.7453,-5.8457,-5.7305,-5.7921,-5.8671,-4.4711,-4.4325,-4.4797,-4.5226,-4.5605,-4.5558,-4.5706,-4.6044,-4.6044,-4.6003,-4.5902,-4.5007,-4.4322,-4.3766,-4.341,-4.3221,-4.3226,-4.3221,-4.3221,-4.3173,-4.2729,-4.2536,-4.2541,-4.3067,-4.3492,-4.3863,-4.4388,-4.4338,-4.3766,-4.3343,-4.246,-4.1135,-4.1135,-4.0877,-4.0339,-3.9931,-3.9999,-4.0489,-4.0489,-4.0489,-4.0508,-4.0873,-4.1286,-4.1702,-4.2063,-4.2373,-4.2657,-4.2656,-4.2031,-4.0728,-3.9895,-3.869,-3.698,-3.6139,-3.5422,0.0,0.0,0.0,0.0,0.0,0.0,0.0,0.0,0.0,0.0,0.0,-3.8925,-3.94,-3.994,-4.061,-4.1526,-4.2022,-4.2607,-4.349,-4.4709,-4.5867,-4.6765,-4.7615,-4.8354,-4.8922,-4.9012,-4.9046,-4.923,-4.9211,-4.9321,-4.9596,-4.9721,-4.9954,-5.0324,-5.0767,-5.1404,-5.2712,-5.2901,-5.3154,-5.3981,-5.4115,-5.4293,-5.4661,-5.5049,-5.5303,-5.5303,-5.5308,-5.5355,-5.5566,-5.5607,-5.5649,-5.5769,-5.5845,-5.5901,-5.6132,-5.7385,-5.8023,-5.6831,-5.7255,-5.7756,-4.4763,-4.4689,-4.4901,-4.4941,-4.4824,-4.4648,-4.5046,-4.5774,-4.5657,-4.5696,-4.5729,-4.4901,-4.4597,-4.4669,-4.3974,-4.3626,-4.3588,-4.3578,-4.352,-4.34,-4.3458,-4.3434,-4.3322,-4.3382,-4.386,-4.4659,-4.3871,-4.3873,-4.4572,-4.3775,-4.2946,-4.2144,-4.2101,-4.1624,-4.0735,-4.0693,-4.0635,-4.0489,-4.0489,-4.0489,-4.0508,-4.1223,-4.1564,-4.1475,-4.2087,-4.2374,-4.2271,-4.2271,-4.2085,-4.165,-4.0985,-4.0009,-3.8728,-3.7968,-3.7201,0.0,-3.6279,0.0,0.0,0.0,0.0,0.0,0.0,0.0,0.0,-3.9937,-4.0449,-4.1397,-4.1545,-4.1915,-4.263,-4.2797,-4.3426,-4.4846,-4.5716,-4.665,-4.7723,-4.8576,-4.9179,-4.9478,-4.9509,-4.9509,-4.9509,-4.9521,-4.9615,-4.9768,-4.9822,-5.0218,-5.0943,-5.062,-5.0856,-5.2394,-5.2139,-5.2401,-5.2924,-5.3018,-5.3286,-5.4101,-5.4776,-5.527,-5.5429,-5.5467,-5.5489,-5.5671,-5.573,-5.575,-5.5845,-5.5952,-5.6036,-5.6071,-5.6844,-5.7135,-5.6263,-5.621,-5.6019,-4.3476,-4.3026,-4.4433,-4.4609,-4.3887,-4.3164,-4.3359,-4.4117,-4.3414,-4.3473,-4.4034,-4.383,-4.4496,-4.5728,-4.5626,-4.5548,-4.5554,-4.5548,-4.5167,-4.4515,-4.4515,-4.4129,-4.3494,-4.3463,-4.3938,-4.4737,-4.4545,-4.4529,-4.4694,-4.45,-4.3968,-4.3134,-4.3111,-4.2653,-4.1763,0.0,0.0,0.0,-4.0489,-4.0489,-4.0489,-4.0564,-4.0575,-4.054,-4.054,0.0,-4.0498,-4.0519,-4.0152,-3.9312,-3.9078,0.0,0.0,0.0,0.0,0.0,0.0,0.0,0.0,0.0,0.0,0.0,-3.915,-3.973,-4.0025,-4.0634,-4.1385,-4.2179,-4.2913,-4.3452,-4.3776,-4.4402,-4.4948,-4.5514,-4.6319,-4.7173,-4.804,-4.8884,-4.9427,-4.949,-4.9509,-4.949,-4.9521,-4.9644,-4.9768,-4.9811,-5.0012,-5.0531,-5.15,-5.1444,-5.1561,-5.195,-5.2512,-5.3103,-5.3348,-5.3351,-5.3563,-5.4501,-5.4839,-5.5226,-5.5807,-5.6033,-5.6102,-5.6156,-5.617,-5.617,-5.6185,-5.6232,-5.6232,-5.6246,-5.6414,-5.6473,-5.6276,-5.6762,-5.7247,-4.3583,-4.3691,-4.4121,-4.3828,0.0,-4.1719,-4.1172,-4.1211,-4.1641,-4.2461,-4.3594,-4.3573,-4.4506,-4.6113,-4.6113,-4.6113,-4.6113,-4.6113,-4.5861,-4.5462,-4.548,-4.526,-4.4851,-4.4874,-4.5112,-4.5542,-4.548,-4.5455,-4.5429,-4.5415,-4.4719,-4.3458,-4.385,-4.3151,-4.1443,-4.1369,-4.1073,-4.0504,-4.0489,-4.0681,-4.1123,-4.1097,-4.1011,-4.0941,-4.0845,0.0,0.0,0.0,0.0,0.0,0.0,0.0,0.0,-3.7597,0.0,-3.8432,-3.8215,-3.7973,-3.7912,-3.8763,-3.9264,-3.9256,-4.0775,-4.166,-4.1526,-4.1994,-4.2797,-4.3942,-4.4494,-4.4934,-4.5473,-4.5896,-4.6169,-4.6344,-4.7087,-4.7763,-4.8224,-4.9077,-4.9636,-4.9665,-4.9778,-4.986,-4.986,-4.9929,-5.0043,-5.0183,-5.0298,-5.0641,-5.1201,-5.126,-5.1357,-5.1874,-5.2442,-5.3062,-5.3421,-5.316,-5.3252,-5.4089,-5.4679,-5.5081,-5.5508,-5.5987,-5.6311,-5.6311,-5.6311,-5.6311,-5.6311,-5.6311,-5.6311,-5.6311,-5.6311,-5.6311,-5.6311,-5.666,-5.6971,-4.4175,-4.4831,-4.414,-4.3281,-4.2266,-4.0605,-3.9316,-3.8476,0.0,0.0,0.0,-4.3398,-4.4403,-4.6117,-4.6137,-4.6137,-4.6137,-4.6117,-4.6137,-4.6131,-4.6192,-4.6224,-4.6227,-4.612,-4.6152,-4.6289,-4.6074,-4.5995,-4.5995,-4.5937,-4.5111,-4.3721,-4.4202,-4.3344,-4.1171,-4.0784,-4.0602,-4.0504,-4.0489,-4.0854,-4.1546,-4.1533,-4.1485,-4.138,-4.1342,-4.0903,-4.0041,-4.0022,-4.0059,-4.0131,-3.9353,-3.9458,-4.0616,-3.9896,-3.9993,-4.1219,-4.0859,-4.0281,-3.9794,-4.048,-4.0746,-4.0253,-4.2262,-4.3427,-4.3278,-4.3558,-4.4271,-4.5604,-4.596,-4.6373,-4.6955,-4.7162,-4.7248,-4.7306,-4.7889,-4.8332,-4.8578,-4.9286,-4.9884,-4.991,-5.0043,-5.0206,-5.0183,-5.023,-5.0342,-5.0547,-5.0606,-5.0718,-5.0858,-5.0829,-5.1026,-5.1741,-5.1982,-5.2317,-5.2812,-5.2607,-5.2589,-5.3586,-5.4317,-5.4841,-5.5262,-5.5806,-5.6233,-5.6311,-5.6311,-5.6311,-5.6291,-5.6136,-5.6136,-5.6253,-5.6019,-5.5903,-5.6039,-5.6078,-5.6136,-4.4659,-4.4874,-4.4758,-4.3808,-4.2285,-4.0605,-3.8965,-3.7578,-3.8555,-4.0312,-4.2539,-4.2578,-4.3945,-4.6268,-4.6268,-4.6267,-4.6268,-4.6268,-4.6286,-4.6286,-4.6282,-4.628,-4.6261,-4.5526,-4.5566,-4.6191,-4.5538,-4.5177,-4.516,-4.5163,-4.4635,-4.3774,-4.3782,-4.3187,-4.1936,-4.1016,-4.0519,-4.0489,-4.0489,-4.0546,-4.0662,-4.0567,-4.0516,-4.048,-4.0349,-4.0176,-4.0022,-4.0062,-4.0424,-4.1149,-4.1011,-4.0919,-4.0939,-4.0679,-4.0555,-4.0588,-4.0598,-4.083,-4.1409,-4.1667,-4.2085,-4.275,-4.3745,-4.4318,-4.4318,-4.4965,-4.5453,-4.5754,-4.6974,-4.7594,-4.7143,-4.765,-4.8144,-4.8359,-4.848,-4.8882,-4.9714,-4.9997,-5.0159,-5.0159,-5.0183,-5.023,-5.0275,-5.0425,-5.0567,-5.0625,-5.0736,-5.089,-5.0941,-5.0906,-5.0929,-5.1111,-5.1179,-5.1271,-5.1552,-5.143,-5.202,-5.3443,-5.3825,-5.4504,-5.5728,-5.6117,-5.6253,-5.6253,-5.6272,-5.6291,-5.6233,-5.567,-5.5612,-5.5961,-5.5262,-5.4543,-5.5145,-5.5301,-5.5495,-4.5007,-4.5467,-4.5053,-4.3913,-4.2226,-4.0117,-3.9023,-3.875,-3.9121,-4.0449,-4.2305,-4.2383,-4.3848,-4.6211,-4.6289,-4.6289,-4.6289,-4.6289,-4.6289,-4.6289,-4.6289,-4.6289,-4.6269,-4.5898,-4.5917,-4.6221,-4.5411,-4.5015,-4.4976,-4.4535,-4.3854,-4.3012,-4.249,-4.2152,-4.1996,-4.1087,-4.0579,-4.0504,-4.0489,-4.0719,-4.12,-4.1135,-4.1102,-4.1102,-4.1011,-4.0727,-4.0267,-4.0304,-4.0494,-4.0896,-4.0348,-4.0405,-4.1157,-4.092,-4.1083,-4.1847,-4.1913,-4.2081,-4.2455,-4.2612,-4.305,-4.3895,-4.4289,-4.4702,-4.5115,-4.5491,-4.6073,-4.6936,-4.7781,-4.8321,-4.8485,-4.8853,-4.9172,-4.9461,-4.9466,-4.9687,-5.0107,-5.0342,-5.0425,-5.0425,-5.0529,-5.0625,-5.0625,-5.0771,-5.0841,-5.0822,-5.0874,-5.0906,-5.0956,-5.0941,-5.0921,-5.1005,-5.102,-5.1053,-5.1073,-5.1474,-5.2064,-5.29,-5.3779,-5.4588,-5.554,-5.589,-5.6026,-5.5728,-5.5961,-5.6058,-5.5767,-5.5301,-5.5262,-5.534,-5.5087,-5.4679,-5.4932,-5.534,-5.5825,-4.4968,-4.546,-4.5036,-4.3899,-4.2207,-3.9883,-3.9375,-4.0137,-3.998,-4.0742,-4.207,-4.25,-4.3828,-4.5625,-4.5898,-4.6016,-4.6016,-4.6016,-4.6113,-4.6289,-4.6289,-4.6289,-4.6289,-4.6289,-4.6306,-4.6186,-4.5405,-4.4898,-4.4624,-4.3824,-4.2962,-4.2089,-4.1324,-4.1177,-4.1692,-4.1001,-4.0621,-4.0504,-4.0489,-4.0816,-4.147,-4.1508,-4.1508,-4.1508,-4.1489,-4.1181,-4.0546,-4.0489,-4.0585,-4.0739,-4.0049,-4.0251,-4.1552,-4.1306,-4.1625,-4.284,-4.2988,-4.3079,-4.3305,-4.3456,-4.3839,-4.4439,-4.4496,-4.4834,-4.5585,-4.5904,-4.6599,-4.7932,-4.8434,-4.8938,-4.9559,-4.9819,-5.0012,-5.0252,-5.0275,-5.0281,-5.0344,-5.0567,-5.0663,-5.0681,-5.0858,-5.0956,-5.0971,-5.102,-5.1005,-5.0956,-5.0956,-5.0941,-5.0941,-5.0921,-5.0975,-5.1005,-5.1053,-5.1053,-5.1058,-5.1499,-5.2012,-5.2311,-5.3562,-5.4483,-5.5009,-5.5669,-5.596,-5.5599,-5.5864,-5.6039,-5.5456,-5.5126,-5.5165,-5.532,-5.4971,-5.4679,-5.4951,-5.5204,-5.5864,-4.4369,-4.3974,-4.457,-4.3942,-4.2305,-4.0547,-4.0312,-4.0957,-4.0254,-4.041,-4.1543,-4.291,-4.3672,-4.4023,-4.4785,-4.5156,-4.5137,-4.5117,-4.5527,-4.6211,-4.6289,-4.6289,-4.6289,-4.6289,-4.6305,-4.6167,-4.5366,-4.4527,-4.3801,-4.2942,-4.2065,-4.1208,-4.0859,-4.0776,-4.0804,-4.0617,-4.0523,-4.0489,-4.0489,-4.0546,-4.0585,-4.0604,-4.0639,-4.0604,-4.0623,-4.0585,-4.0489,-4.0489,-4.0873,-4.1585,-4.153,-4.1831,-4.2392,-4.2275,-4.2233,-4.2394,-4.2733,-4.3303,-4.4158,-4.4327,-4.4402,-4.4496,-4.4533,-4.4871,-4.5641,-4.6448,-4.7237,-4.8112,-4.9079,-4.9616,-4.9811,-5.0019,-5.0275,-5.0527,-5.0548,-5.0625,-5.0752,-5.0858,-5.0874,-5.0874,-5.089,-5.0906,-5.0921,-5.0921,-5.0921,-5.0941,-5.099,-5.1005,-5.099,-5.1005,-5.102,-5.0986,-5.1005,-5.1044,-5.1044,-5.1044,-5.1717,-5.2317,-5.315,-5.4168,-5.5007,-5.5655,-5.6135,-5.578,-5.6123,-5.6181,-5.5909,-5.5612,-5.5223,-5.532,-5.4835,-5.4096,-5.466,-5.4699,-5.4873,-4.3854,-4.3639,-4.3986,-4.3777,-4.3027,-4.1875,-4.1875,-4.2558,-4.1758,-4.1855,-4.2676,-4.3418,-4.3437,-4.3027,-4.4355,-4.4726,-4.4277,-4.4766,-4.5176,-4.5566,-4.6035,-4.6288,-4.63,-4.63,-4.6039,-4.55,-4.4641,-4.3762,-4.29,-4.2022,-4.1312,-4.0869,-4.0742,-4.0655,-4.0593,-4.0515,-4.0489,-4.0489,-4.0489,-4.0489,-4.0489,-4.0489,-4.0489,-4.0489,-4.0489,-4.0489,-4.0489,-4.0489,-4.0662,-4.1008,-4.1027,-4.1149,-4.1372,-4.1628,-4.2001,-4.2512,-4.3454,-4.4175,-4.4595,-4.4551,-4.4496,-4.4496,-4.4965,-4.5359,-4.5716,-4.6899,-4.7856,-4.8254,-4.9183,-4.9838,-5.0019,-5.0275,-5.0547,-5.0717,-5.0771,-5.0805,-5.089,-5.0906,-5.0906,-5.0906,-5.0921,-5.0956,-5.0956,-5.0956,-5.0956,-5.0956,-5.0971,-5.0971,-5.0956,-5.0956,-5.0956,-5.1014,-5.1362,-5.144,-5.1188,-5.1924,-5.252,-5.3135,-5.4184,-5.5246,-5.5482,-5.5831,-5.6024,-5.5583,-5.5849,-5.5888,-5.5467,-5.4827,-5.4336,-5.466,-5.4601,-5.396,-5.4835,-5.5126,-5.5592,-4.307,-4.2994,-4.3402,-4.3802,-4.3964,-4.3124,-4.2988,-4.3183,-4.2421,-4.2285,-4.2675,-4.3125,-4.2715,-4.2051,-4.3516,-4.4043,-4.3808,-4.4355,-4.4921,-4.535,-4.6033,-4.6301,-4.629,-4.6303,-4.5851,-4.4972,-4.4133,-4.3115,-4.208,-4.1305,-4.084,-4.0699,-4.0655,-4.0607,-4.0504,-4.0489,-4.0489,-4.0489,-4.0489,-4.0489,-4.0489,-4.0489,-4.0489,-4.0489,-4.0489,-4.0489,-4.0489,-4.0489,-4.0489,-4.0489,-4.0489,-4.0489,-4.0527,-4.1072,-4.1876,-4.2883,-4.395,-4.46,-4.4751,-4.4667,-4.456,-4.4571,-4.5247,-4.5679,-4.596,-4.7218,-4.8119,-4.8281,-4.9183,-4.9891,-5.0164,-5.0488,-5.0736,-5.089,-5.0906,-5.0906,-5.0906,-5.0906,-5.0906,-5.0906,-5.0941,-5.0971,-5.0971,-5.099,-5.1005,-5.0956,-5.0937,-5.0906,-5.0906,-5.0906,-5.0906,-5.0925,-5.1467,-5.1621,-5.1409,-5.2376,-5.3378,-5.382,-5.4655,-5.5465,-5.5781,-5.5746,-5.5707,-5.5244,-5.5462,-5.5327,-5.4818,-5.4061,-5.395,-5.4012,-5.4058,-5.4207,-5.4834,-5.5624,-5.611,-4.1927,-4.1522,-4.2995,-4.4091,-4.4819,-4.3921,-4.3178,-4.2593,-4.1636,-4.0853,-4.0698,-4.1874,-4.1582,-4.0351,-4.2012,-4.2969,-4.3594,-4.3769,-4.4646,-4.5997,-4.6248,-4.6293,-4.63,-4.629,-4.5831,-4.4871,-4.4087,-4.2802,-4.1182,-4.0829,-4.0706,-4.0674,-4.0593,-4.0523,-4.0489,-4.0489,-4.0489,-4.0489,-4.0489,-4.0489,-4.0489,-4.0489,-4.0489,-4.0489,-4.0489,-4.0489,-4.0489,-4.0489,-4.0489,-4.0489,-4.0489,-4.0489,-4.0569,-4.1128,-4.216,-4.3399,-4.3937,-4.4315,-4.4663,-4.4732,-4.47,-4.4655,-4.5359,-4.5735,-4.5923,-4.7368,-4.8232,-4.8194,-4.9183,-4.991,-5.0206,-5.0567,-5.0839,-5.089,-5.0906,-5.0906,-5.0906,-5.0906,-5.0906,-5.0906,-5.0906,-5.0925,-5.0906,-5.0956,-5.0956,-5.0941,-5.0956,-5.0971,-5.0925,-5.0906,-5.0925,-5.1022,-5.1177,-5.1293,-5.2047,-5.284,-5.3382,-5.392,-5.4578,-5.4984,-5.4881,-5.4839,-5.4851,-5.4691,-5.4401,-5.4129,-5.3931,-5.4066,-5.4415,-5.4566,-5.4624,-5.4851,-5.489,-5.5632,-5.6097,-4.1382,-4.1214,-4.238,-4.3063,-4.3283,-4.2993,-4.3012,-4.3149,-4.2307,-4.2114,-4.229,-4.2392,-4.2064,-4.154,-4.2126,-4.2572,-4.2919,-4.3432,-4.435,-4.5456,-4.6033,-4.6303,-4.629,-4.6284,-4.5484,-4.4211,-4.3777,-4.2649,-4.0975,-4.073,-4.0675,-4.0574,-4.0554,-4.0489,-4.0489,-4.0489,-4.0489,-4.0489,-4.0489,-4.0489,-4.0489,-4.0489,-4.0489,-4.0489,-4.0489,-4.0489,-4.0489,-4.0489,-4.0489,-4.0489,-4.0489,-4.0691,-4.1147,-4.2298,-4.3292,-4.3982,-4.4397,-4.4661,-4.4781,-4.4674,-4.4758,-4.5208,-4.6025,-4.6523,-4.6805,-4.8007,-4.8795,-4.8536,-4.9183,-4.9872,-5.0183,-5.0508,-5.0771,-5.0855,-5.0906,-5.0906,-5.0906,-5.0906,-5.0906,-5.0906,-5.0906,-5.0906,-5.0906,-5.0921,-5.0921,-5.0906,-5.0941,-5.0941,-5.0925,-5.0906,-5.1061,-5.1679,-5.2221,-5.2859,-5.3749,-5.3517,-5.3672,-5.4368,-5.4948,-5.5064,-5.5062,-5.4672,-5.4591,-5.3972,-5.3503,-5.3464,-5.3484,-5.3576,-5.4061,-5.4332,-5.4463,-5.4866,-5.49,-5.5602,-5.6009,-4.1264,-4.1596,-4.2142,-4.2396,-4.2396,-4.2396,-4.2555,-4.2809,-4.2243,-4.2477,-4.3043,-4.2653,-4.2385,-4.2446,-4.263,-4.2596,-4.247,-4.3297,-4.4298,-4.5297,-4.5694,-4.5933,-4.6098,-4.5922,-4.5007,-4.3588,-4.2883,-4.2034,-4.117,-4.0791,-4.0728,-4.0927,-4.0642,-4.0489,-4.0489,-4.0489,-4.0489,-4.0489,-4.0489,-4.0489,-4.0489,-4.0489,-4.0489,-4.0489,-4.0489,-4.0489,-4.0489,-4.0489,-4.0642,-4.0854,-4.0844,-4.1203,-4.2202,-4.327,-4.4115,-4.4537,-4.4876,-4.4919,-4.4776,-4.4576,-4.4806,-4.5514,-4.6416,-4.7027,-4.7414,-4.8652,-4.9077,-4.895,-4.92,-4.9814,-5.0062,-5.0317,-5.0587,-5.0822,-5.0906,-5.0906,-5.0906,-5.0906,-5.0906,-5.0906,-5.0906,-5.0906,-5.0906,-5.0906,-5.0906,-5.0906,-5.0906,-5.0906,-5.0906,-5.0925,-5.1215,-5.2028,-5.255,-5.3382,-5.4039,-5.3923,-5.4194,-5.4871,-5.4774,-5.4967,-5.4774,-5.4407,-5.3904,-5.3285,-5.3014,-5.3072,-5.3127,-5.3182,-5.3452,-5.3817,-5.432,-5.4839,-5.511,-5.5552,-5.592,-4.1576,-4.2201,-4.2396,-4.2298,-4.2279,-4.2259,-4.1888,-4.1439,-4.1303,-4.1869,-4.2669,-4.249,-4.249,-4.2541,-4.3143,-4.3074,-4.2558,-4.3319,-4.4523,-4.5726,-4.5282,-4.5373,-4.5872,-4.5201,-4.4375,-4.3364,-4.1695,-4.1274,-4.1731,-4.108,-4.1024,-4.147,-4.0854,-4.0546,-4.0546,-4.0566,-4.0489,-4.0489,-4.0489,-4.0489,-4.0489,-4.0489,-4.0489,-4.0489,-4.0489,-4.0527,-4.0546,-4.0527,-4.0873,-4.1588,-4.1415,-4.2163,-4.3307,-4.384,-4.4281,-4.4953,-4.5203,-4.4988,-4.4572,-4.4538,-4.4815,-4.5597,-4.6382,-4.7229,-4.8109,-4.894,-4.9421,-4.9396,-4.9446,-4.9604,-4.9803,-5.0043,-5.0385,-5.0786,-5.089,-5.0906,-5.0906,-5.0906,-5.0906,-5.0906,-5.0906,-5.0906,-5.0906,-5.0906,-5.0906,-5.0906,-5.0906,-5.0983,-5.1099,-5.1138,-5.137,-5.2086,-5.2685,-5.3362,-5.3826,-5.4213,-5.4793,-5.5219,-5.4793,-5.4581,-5.402,-5.3594,-5.2917,-5.2298,-5.1892,-5.1989,-5.3246,-5.3378,-5.3804,-5.4191,-5.4578,-5.5004,-5.533,-5.5697,-5.5855,-4.1264,-4.1498,-4.1498,-4.1498,-4.1498,-4.1498,-4.1635,-4.1967,-4.1986,-4.2494,-4.3173,-4.3183,-4.2875,-4.274,-4.3642,-4.35,-4.2352,-4.3622,-4.4645,-4.5104,-4.5386,-4.5629,-4.5686,-4.5045,-4.4198,-4.333,-4.2662,-4.2125,-4.1821,-4.1501,-4.1585,-4.1585,-4.0931,-4.0854,-4.1258,-4.0816,-4.0489,-4.0489,-4.0489,-4.0489,-4.0489,-4.0489,-4.0489,-4.0489,-4.0489,-4.0758,-4.1316,-4.0816,-4.095,-4.1761,-4.1032,-4.1245,-4.262,-4.371,-4.4423,-4.4834,-4.4776,-4.465,-4.4484,-4.4411,-4.4913,-4.596,-4.6601,-4.7436,-4.8613,-4.9094,-4.9345,-4.9358,-4.934,-4.9457,-4.9749,-4.9865,-5.0121,-5.0625,-5.0805,-5.089,-5.0906,-5.0906,-5.0906,-5.0906,-5.0906,-5.0906,-5.0906,-5.0906,-5.0906,-5.0906,-5.0906,-5.1041,-5.1602,-5.1621,-5.2453,-5.3614,-5.3556,-5.3227,-5.3807,-5.3904,-5.3904,-5.4233,-5.4039,-5.3826,-5.3304,-5.2743,-5.2047,-5.1776,-5.1312,-5.1738,-5.2956,-5.3672,-5.4097,-5.4793,-5.5393,-5.5606,-5.5644,-5.578,-5.5954,-4.1108,-4.1108,-4.1108,-4.1108,-4.1108,-4.1108,-4.14,-4.1866,-4.1894,-4.2392,-4.3007,-4.3013,-4.2899,-4.298,-4.4014,-4.3776,-4.2787,-4.4233,-4.4828,-4.4647,-4.5084,-4.5498,-4.5557,-4.4608,-4.3621,-4.2753,-4.2283,-4.222,-4.2277,-4.1643,-4.147,-4.1604,-4.0931,-4.0719,-4.1239,-4.0796,-4.0489,-4.0489,-4.0489,-4.0489,-4.0489,-4.0489,-4.0489,-4.0489,-4.0489,-4.0758,-4.1258,-4.0982,-4.1389,-4.22,-4.174,-4.181,-4.2648,-4.3476,-4.4146,-4.4535,-4.4493,-4.4374,-4.4298,-4.4524,-4.514,-4.6313,-4.6898,-4.7676,-4.8866,-4.9164,-4.9211,-4.9244,-4.9276,-4.9334,-4.9558,-4.9712,-4.9917,-5.023,-5.0587,-5.0805,-5.0874,-5.0906,-5.0906,-5.0906,-5.0906,-5.0906,-5.0906,-5.0906,-5.0906,-5.0906,-5.0925,-5.1235,-5.1834,-5.1834,-5.2859,-5.3536,-5.3265,-5.3343,-5.3962,-5.3691,-5.3072,-5.3053,-5.3053,-5.2879,-5.2569,-5.2047,-5.1428,-5.1989,-5.1873,-5.2724,-5.3865,-5.4058,-5.4426,-5.5277,-5.5993,-5.5935,-5.5857,-5.5896,-5.6012,-4.1244,-4.1186,-4.1182,-4.1222,-4.1199,-4.1117,-4.125,-4.1347,-4.1323,-4.1844,-4.2364,-4.276,-4.2869,-4.346,-4.4247,-4.4123,-4.3593,-4.4758,-4.504,-4.4572,-4.4669,-4.5051,-4.5189,-4.4229,-4.3304,-4.231,-4.1659,-4.1854,-4.2854,-4.1835,-4.1046,-4.1662,-4.1066,-4.0604,-4.0777,-4.0566,-4.0489,-4.0508,-4.0508,-4.0508,-4.0508,-4.062,-4.0623,-4.0646,-4.0732,-4.0888,-4.1176,-4.1456,-4.216,-4.3378,-4.2924,-4.2754,-4.3013,-4.3144,-4.3586,-4.4299,-4.4374,-4.4325,-4.4321,-4.4798,-4.5653,-4.6601,-4.7192,-4.8096,-4.871,-4.8907,-4.8922,-4.8973,-4.9123,-4.9197,-4.9308,-4.9469,-4.9637,-4.9749,-5.0233,-5.0625,-5.0839,-5.0874,-5.0874,-5.089,-5.0906,-5.0906,-5.0906,-5.0906,-5.0906,-5.0906,-5.0925,-5.1331,-5.1815,-5.197,-5.2066,-5.2414,-5.2898,-5.2898,-5.3343,-5.3169,-5.2569,-5.2298,-5.2472,-5.2705,-5.2472,-5.1989,-5.1796,-5.2298,-5.2801,-5.373,-5.431,-5.4465,-5.4871,-5.5625,-5.5973,-5.5993,-5.5937,-5.5842,-5.5764,-4.2588,-4.2076,-4.2003,-4.1953,-4.1805,-4.1201,-4.1638,-4.2688,-4.2741,-4.2751,-4.3267,-4.4347,-4.4053,-4.3479,-4.4654,-4.4537,-4.3885,-4.487,-4.5124,-4.4509,-4.5043,-4.4963,-4.4872,-4.4874,-4.4393,-4.3643,-4.3624,-4.3835,-4.3181,-4.3066,-4.2681,-4.1797,-4.1607,-4.145,-4.1393,-4.0873,-4.0511,-4.0499,-4.0518,-4.054,-4.06,-4.1088,-4.1377,-4.1411,-4.1719,-4.2248,-4.2849,-4.2815,-4.2184,-4.158,-4.209,-4.22,-4.2099,-4.2518,-4.3152,-4.3897,-4.4102,-4.4389,-4.4835,-4.5175,-4.5955,-4.7125,-4.7103,-4.7215,-4.7977,-4.8103,-4.8118,-4.8245,-4.8688,-4.915,-4.9197,-4.9289,-4.9427,-4.9655,-5.0012,-5.0363,-5.0587,-5.0682,-5.0736,-5.0855,-5.0874,-5.0874,-5.089,-5.089,-5.089,-5.089,-5.0983,-5.1215,-5.1796,-5.195,-5.197,-5.2569,-5.2917,-5.2589,-5.2434,-5.2356,-5.2086,-5.1699,-5.2105,-5.3033,-5.2898,-5.2724,-5.2821,-5.3207,-5.3517,-5.4271,-5.4542,-5.4735,-5.5374,-5.5821,-5.5784,-5.5708,-5.5574,-5.5479,-5.5325,-4.3033,-4.2305,-4.2552,-4.2469,-4.2129,-4.1898,-4.2227,-4.2779,-4.3152,-4.3044,-4.3085,-4.4023,-4.4257,-4.3763,-4.4603,-4.478,-4.4301,-4.5143,-4.5278,-4.5028,-4.5318,-4.4876,-4.4259,-4.4624,-4.4605,-4.3912,-4.4299,-4.4109,-4.3667,-4.3726,-4.315,-4.2497,-4.2266,-4.2266,-4.2283,-4.1843,-4.15,-4.1543,-4.1505,-4.1487,-4.1508,-4.1824,-4.1735,-4.1743,-4.204,-4.2699,-4.3271,-4.2878,-4.1902,-4.095,-4.1025,-4.125,-4.1155,-4.1516,-4.2314,-4.3336,-4.3503,-4.3856,-4.4692,-4.5342,-4.6215,-4.6995,-4.6958,-4.746,-4.7961,-4.7943,-4.7772,-4.8327,-4.8754,-4.8993,-4.9064,-4.9131,-4.9244,-4.9396,-4.9655,-4.9943,-5.0259,-5.0363,-5.0427,-5.0529,-5.0606,-5.0681,-5.0754,-5.0771,-5.0841,-5.0874,-5.0906,-5.1389,-5.195,-5.1873,-5.1876,-5.2324,-5.2495,-5.2128,-5.2189,-5.2247,-5.2485,-5.2041,-5.2103,-5.3028,-5.3179,-5.3235,-5.3694,-5.3984,-5.4293,-5.4525,-5.4665,-5.4859,-5.5225,-5.5479,-5.5459,-5.5075,-5.4708,-5.4587,-5.4511,-4.3132,-4.2384,-4.3055,-4.2904,-4.2458,-4.2879,-4.2815,-4.2505,-4.3043,-4.2825,-4.2453,-4.2934,-4.3843,-4.4211,-4.4516,-4.4842,-4.5399,-4.5473,-4.553,-4.5454,-4.5417,-4.4783,-4.3705,-4.432,-4.4301,-4.3782,-4.3344,-4.3728,-4.3979,-4.3559,-4.3156,-4.2963,-4.2945,-4.2868,-4.2656,-4.2676,-4.2831,-4.2525,-4.2544,-4.2527,-4.2508,-4.2545,-4.2374,-4.193,-4.229,-4.2548,-4.2659,-4.2247,-4.1425,-4.0367,-4.0362,-4.0606,-4.0595,-4.0736,-4.1441,-4.2742,-4.3225,-4.3522,-4.4376,-4.5788,-4.6643,-4.7014,-4.7497,-4.7961,-4.8277,-4.7887,-4.772,-4.8426,-4.876,-4.876,-4.8943,-4.9015,-4.9116,-4.9179,-4.9193,-4.937,-4.97,-4.993,-5.0043,-5.0073,-5.014,-5.0278,-5.0427,-5.0528,-5.0567,-5.051,-5.0586,-5.0837,-5.1164,-5.1068,-5.1259,-5.1678,-5.1677,-5.1518,-5.1846,-5.2215,-5.2588,-5.2705,-5.2645,-5.3087,-5.3263,-5.3533,-5.4244,-5.459,-5.413,-5.4168,-5.4574,-5.4824,-5.4863,-5.459,-5.4199,-5.3648,-5.3173,-5.3249,-5.3219,-4.4712,-4.3912,-4.4018,-4.3955,-4.3732,-4.3217,-4.3263,-4.3686,-4.388,-4.3478,-4.3134,-4.4192,-4.4537,-4.425,-4.4825,-4.5285,-4.54,-4.5457,-4.5457,-4.5438,-4.5438,-4.4901,-4.4268,-4.4747,-4.4997,-4.4767,-4.4825,-4.4652,-4.4384,-4.4499,-4.4173,-4.3176,-4.3617,-4.3291,-4.2371,-4.2852,-4.2545,-4.2144,-4.2527,-4.2811,-4.2762,-4.3115,-4.3104,-4.2711,-4.3184,-4.3095,-4.2567,-4.2345,-4.1896,-4.1114,-4.0609,-4.0866,-4.16,-4.1464,-4.1976,-4.3101,-4.367,-4.4302,-4.5639,-4.6234,-4.7051,-4.7999,-4.7813,-4.7776,-4.7831,-4.733,-4.7274,-4.7776,-4.798,-4.837,-4.8816,-4.8909,-4.8943,-4.8978,-4.9012,-4.9027,-4.9169,-4.9491,-4.973,-4.9879,-4.9936,-4.9992,-5.0059,-5.0083,-5.013,-5.0134,-5.0176,-5.021,-5.0275,-5.0339,-5.0617,-5.1048,-5.1125,-5.1125,-5.1703,-5.2125,-5.2523,-5.2746,-5.2794,-5.2866,-5.3069,-5.3149,-5.3577,-5.3629,-5.3483,-5.3717,-5.3999,-5.3621,-5.3422,-5.314,-5.2919,-5.2539,-5.2227,-5.2123,-5.2134,-4.5089,-4.436,-4.4626,-4.4534,-4.419,-4.4059,-4.4058,-4.4192,-4.4614,-4.425,-4.3829,-4.4844,-4.5131,-4.4767,-4.5189,-4.54,-4.5419,-4.5419,-4.5419,-4.5419,-4.54,-4.515,-4.4881,-4.5035,-4.5227,-4.4978,-4.5227,-4.5074,-4.4997,-4.5054,-4.4901,-4.4174,-4.4498,-4.4247,-4.3365,-4.3535,-4.3523,-4.3179,-4.3297,-4.345,-4.3428,-4.3572,-4.363,-4.3263,-4.3317,-4.3014,-4.2923,-4.2938,-4.2717,-4.222,-4.159,-4.1322,-4.1822,-4.1687,-4.2143,-4.3076,-4.3423,-4.4233,-4.5472,-4.6345,-4.7014,-4.824,-4.7924,-4.8036,-4.7961,-4.7534,-4.7516,-4.8036,-4.8333,-4.85,-4.8834,-4.889,-4.889,-4.889,-4.889,-4.889,-4.8959,-4.9193,-4.9396,-4.9502,-4.9531,-4.9627,-4.9692,-4.97,-4.9841,-4.9942,-4.9973,-5.0011,-5.0035,-5.0102,-5.0083,-5.0363,-5.0554,-5.0883,-5.1526,-5.2016,-5.2392,-5.2495,-5.2425,-5.2475,-5.2577,-5.2577,-5.257,-5.2589,-5.266,-5.2806,-5.2952,-5.2482,-5.2045,-5.1847,-5.1668,-5.1452,-5.1281,-5.1141,-5.1212,-4.5035,-4.4421,-4.5052,-4.4857,-4.438,-4.4953,-4.4838,-4.4418,-4.5033,-4.486,-4.4457,-4.5091,-4.532,-4.5298,-4.532,-4.5379,-4.5379,-4.538,-4.5361,-4.5379,-4.5277,-4.518,-4.508,-4.5017,-4.4865,-4.4343,-4.4914,-4.5182,-4.518,-4.5213,-4.4973,-4.5118,-4.5115,-4.4581,-4.4521,-4.4675,-4.4298,-4.3853,-4.4041,-4.4167,-4.413,-4.4018,-4.3789,-4.3439,-4.3051,-4.3015,-4.3259,-4.3403,-4.3406,-4.3442,-4.2837,-4.2224,-4.1788,-4.1538,-4.1883,-4.2865,-4.3249,-4.4207,-4.5533,-4.6364,-4.7107,-4.7794,-4.7924,-4.8203,-4.8519,-4.8166,-4.8091,-4.8481,-4.8797,-4.8797,-4.889,-4.889,-4.889,-4.889,-4.889,-4.889,-4.8909,-4.8996,-4.9098,-4.9098,-4.9206,-4.9277,-4.937,-4.9431,-4.958,-4.9709,-4.9743,-4.977,-4.977,-4.977,-4.9736,-4.999,-5.0301,-5.0548,-5.1133,-5.1273,-5.1726,-5.1481,-5.1498,-5.1584,-5.1574,-5.125,-5.1088,-5.1736,-5.1934,-5.183,-5.1623,-5.1215,-5.0862,-5.0644,-5.0508,-5.0397,-5.0271,-5.0131,-5.0594,-4.5243,-4.5128,-4.5241,-4.5201,-4.5086,-4.5239,-4.5201,-4.5125,-4.5222,-4.5241,-4.5105,-4.5241,-4.5317,-4.5317,-4.5297,-4.5317,-4.5277,-4.5237,-4.5237,-4.5194,-4.5065,-4.491,-4.4868,-4.4726,-4.4511,-4.4492,-4.4732,-4.4887,-4.4843,-4.4676,-4.4669,-4.4617,-4.4617,-4.4301,-4.3966,-4.3987,-4.411,-4.3727,-4.4008,-4.4184,-4.4095,-4.3957,-4.383,-4.3511,-4.324,-4.3296,-4.3387,-4.3479,-4.3479,-4.3461,-4.3369,-4.322,-4.2904,-4.2492,-4.2742,-4.3453,-4.4036,-4.4735,-4.6042,-4.6906,-4.7813,-4.8481,-4.863,-4.8649,-4.8667,-4.8277,-4.8277,-4.8612,-4.889,-4.889,-4.889,-4.889,-4.889,-4.889,-4.889,-4.889,-4.8909,-4.8943,-4.8962,-4.8962,-4.8978,-4.8993,-4.9108,-4.9174,-4.9214,-4.9302,-4.9302,-4.9283,-4.9302,-4.929,-4.9265,-4.9659,-5.0139,-5.0383,-5.0734,-5.0621,-5.0642,-5.0033,-4.9912,-4.9912,-4.9842,-4.9467,-4.9608,-5.0472,-5.0454,-5.0014,-4.9837,-4.9907,-4.9851,-4.9725,-4.9571,-4.9452,-4.9937,-5.0405,-5.1301,-4.5029,-4.4704,-4.5086,-4.5048,-4.4762,-4.5105,-4.5277,-4.5277,-4.5277,-4.5277,-4.5277,-4.5277,-4.5277,-4.5277,-4.5277,-4.5194,-4.5045,-4.4881,-4.4838,-4.4789,-4.4669,-4.4599,-4.4599,-4.4438,-4.4411,-4.4383,-4.443,-4.4484,-4.4572,-4.4465,-4.4355,-4.443,-4.4402,-4.4093,-4.3762,-4.3986,-4.383,-4.3515,-4.3726,-4.3886,-4.3781,-4.3738,-4.3638,-4.356,-4.3479,-4.3479,-4.3479,-4.3479,-4.3479,-4.3479,-4.3479,-4.3479,-4.3385,-4.3327,-4.3361,-4.4128,-4.4417,-4.5223,-4.6385,-4.7101,-4.7466,-4.8635,-4.8855,-4.889,-4.8834,-4.8612,-4.85,-4.876,-4.889,-4.889,-4.889,-4.889,-4.889,-4.889,-4.889,-4.889,-4.889,-4.889,-4.889,-4.889,-4.8925,-4.8925,-4.8925,-4.8959,-4.8925,-4.889,-4.889,-4.889,-4.889,-4.8925,-4.9012,-4.921,-4.9636,-4.9781,-4.9968,-4.9968,-4.9917,-4.9288,-4.889,-4.889,-4.889,-4.8927,-4.9071,-4.9538,-4.9161,-4.8909,-4.8999,-4.9374,-4.9123,-4.8996,-4.9145,-4.9424,-5.0149,-5.0858,-5.1732,-4.438,-4.3825,-4.4513,-4.4399,-4.3959,-4.4685,-4.501,-4.5048,-4.522,-4.5277,-4.5297,-4.5235,-4.5173,-4.5173,-4.5087,-4.4953,-4.4701,-4.4511,-4.4484,-4.4457,-4.4346,-4.4318,-4.4318,-4.4242,-4.4154,-4.4084,-4.4011,-4.403,-4.4231,-4.4184,-4.4184,-4.4143,-4.4202,-4.4132,-4.3905,-4.3855,-4.3716,-4.3582,-4.3479,-4.3479,-4.3479,-4.3479,-4.3479,-4.3479,-4.3479,-4.3479,-4.3479,-4.3479,-4.3479,-4.3479,-4.3479,-4.3479,-4.3479,-4.3479,-4.3973,-4.4722,-4.441,-4.5436,-4.6521,-4.7254,-4.764,-4.8621,-4.8839,-4.8874,-4.8855,-4.88,-4.8853,-4.889,-4.889,-4.889,-4.889,-4.889,-4.889,-4.889,-4.889,-4.889,-4.889,-4.889,-4.889,-4.889,-4.889,-4.889,-4.889,-4.889,-4.889,-4.889,-4.889,-4.889,-4.889,-4.889,-4.8925,-4.8925,-4.9052,-4.9052,-4.9161,-4.9216,-4.9269,-4.9089,-4.889,-4.889,-4.889,-4.8909,-4.9018,-4.9108,-4.9018,-4.889,-4.889,-4.889,-4.8909,-4.898,-4.9039,-4.9559,-5.0488,-5.136,-5.2159,-4.3023,-4.2947,-4.3061,-4.3023,-4.306,-4.3786,-4.4149,-4.4225,-4.4855,-4.5277,-4.5004,-4.4905,-4.4716,-4.4687,-4.458,-4.4493,-4.4373,-4.4374,-4.427,-4.426,-4.4102,-4.403,-4.3999,-4.373,-4.3712,-4.3712,-4.3649,-4.3749,-4.3905,-4.3777,-4.3646,-4.3697,-4.373,-4.3615,-4.3649,-4.3649,-4.3548,-4.3479,-4.3479,-4.3479,-4.3479,-4.3479,-4.3479,-4.3479,-4.3479,-4.3479,-4.3479,-4.3479,-4.3479,-4.3479,-4.3479,-4.3479,-4.3479,-4.3479,-4.4342,-4.5277,-4.5864,-4.6248,-4.7242,-4.7665,-4.805,-4.8549,-4.8751,-4.8768,-4.8804,-4.8839,-4.8855,-4.889,-4.889,-4.889,-4.889,-4.889,-4.889,-4.889,-4.889,-4.889,-4.889,-4.889,-4.889,-4.889,-4.889,-4.889,-4.889,-4.889,-4.889,-4.889,-4.889,-4.889,-4.889,-4.889,-4.889,-4.889,-4.889,-4.889,-4.889,-4.889,-4.889,-4.889,-4.889,-4.889,-4.889,-4.889,-4.889,-4.8927,-4.889,-4.889,-4.889,-4.889,-4.889,-4.9057,-4.9262,-5.0079,-5.1101,-5.1862,-5.2549,-4.0764,-4.1884,-4.236,-4.2199,-4.1787,-4.2677,-4.2997,-4.2985,-4.3418,-4.3548,-4.3431,-4.3296,-4.3202,-4.3427,-4.3784,-4.3882,-4.361,-4.3788,-4.3886,-4.3899,-4.3777,-4.3697,-4.3664,-4.3582,-4.3479,-4.3479,-4.3479,-4.3548,-4.3649,-4.3615,-4.3479,-4.3479,-4.3479,-4.3513,-4.3479,-4.3479,-4.3479,-4.3479,-4.3479,-4.3479,-4.3479,-4.3479,-4.3479,-4.3479,-4.3479,-4.3479,-4.3479,-4.3479,-4.3479,-4.3479,-4.3479,-4.3479,-4.3479,-4.3589,-4.4195,-4.5663,-4.5938,-4.6581,-4.7665,-4.7868,-4.8126,-4.8458,-4.8624,-4.8697,-4.8678,-4.8714,-4.875,-4.8839,-4.8839,-4.8839,-4.8855,-4.889,-4.889,-4.889,-4.882,-4.889,-4.889,-4.889,-4.889,-4.889,-4.889,-4.889,-4.889,-4.889,-4.889,-4.889,-4.889,-4.889,-4.889,-4.889,-4.889,-4.889,-4.889,-4.889,-4.889,-4.889,-4.889,-4.889,-4.889,-4.889,-4.889,-4.889,-4.889,-4.889,-4.889,-4.889,-4.889,-4.8909,-4.8927,-4.9224,-4.9559,-5.0488,-5.1398,-5.2067,-5.2735,-3.9171,-4.0594,-4.1307,-4.1122,-4.0497,-4.1717,-4.2057,-4.1757,-4.268,-4.2731,-4.2408,-4.2527,-4.2585,-4.2567,-4.3392,-4.3564,-4.3026,-4.3321,-4.3458,-4.3479,-4.3479,-4.3513,-4.3513,-4.3479,-4.3479,-4.3479,-4.3479,-4.3513,-4.3513,-4.3479,-4.3479,-4.3479,-4.3479,-4.3479,-4.3479,-4.3479,-4.3479,-4.3479,-4.3479,-4.3479,-4.3479,-4.3479,-4.3479,-4.3479,-4.3479,-4.3479,-4.3479,-4.3479,-4.3479,-4.3339,-4.3444,-4.3391,-4.316,-4.3506,-4.4144,-4.5253,-4.5633,-4.6397,-4.7317,-4.7748,-4.7847,-4.8086,-4.8192,-4.8098,-4.8194,-4.8327,-4.8458,-4.8514,-4.8514,-4.855,-4.8605,-4.8513,-4.8495,-4.8532,-4.8678,-4.8785,-4.882,-4.8767,-4.8802,-4.889,-4.889,-4.889,-4.889,-4.889,-4.889,-4.889,-4.889,-4.889,-4.889,-4.889,-4.889,-4.889,-4.889,-4.889,-4.889,-4.889,-4.889,-4.889,-4.889,-4.889,-4.889,-4.889,-4.889,-4.889,-4.889,-4.889,-4.889,-4.8927,-4.9002,-4.954,-5.0116,-5.0822,-5.1602,-5.2327,-5.2921,-3.9072,-3.8979,-3.941,-3.957,-3.9544,-4.1229,-4.1499,-4.102,-4.3144,-4.3501,-4.2885,-4.3461,-4.3341,-4.3317,-4.3266,-4.3456,-4.3364,-4.3477,-4.3479,-4.3479,-4.3479,-4.3479,-4.3479,-4.3479,-4.3479,-4.3479,-4.3479,-4.3479,-4.3479,-4.3479,-4.3479,-4.3479,-4.3479,-4.3479,-4.3479,-4.3479,-4.3479,-4.3479,-4.3479,-4.3479,-4.3479,-4.3479,-4.3497,-4.3463,-4.3479,-4.3479,-4.3479,-4.3356,-4.3214,-4.2939,-4.3124,-4.3178,-4.2946,-4.3364,-4.414,-4.4916,-4.5497,-4.6216,-4.6993,-4.7625,-4.7922,-4.7697,-4.747,-4.7367,-4.7512,-4.7761,-4.7901,-4.7941,-4.7941,-4.7999,-4.7901,-4.7779,-4.7901,-4.802,-4.8194,-4.8327,-4.8402,-4.855,-4.8605,-4.8802,-4.8785,-4.8605,-4.8695,-4.866,-4.882,-4.8855,-4.889,-4.889,-4.889,-4.889,-4.889,-4.889,-4.889,-4.889,-4.889,-4.889,-4.889,-4.889,-4.889,-4.889,-4.889,-4.889,-4.889,-4.8855,-4.882,-4.8855,-4.8876,-4.8845,-4.9104,-4.9952,-5.0673,-5.1342,-5.2141,-5.294,-5.3348,-3.8065,-3.8501,-3.9148,-3.916,-3.8899,-4.0715,-4.0908,-4.0362,-4.1698,-4.2198,-4.1921,-4.247,-4.2537,-4.2328,-4.2973,-4.3047,-4.2807,-4.3281,-4.3408,-4.3497,-4.3479,-4.3479,-4.3479,-4.3479,-4.3479,-4.3516,-4.3497,-4.3479,-4.3479,-4.3521,-4.3497,-4.3479,-4.3538,-4.3479,-4.3479,-4.3479,-4.3479,-4.3479,-4.3479,-4.3479,-4.3479,-4.3479,-4.3375,-4.316,-4.3123,-4.2939,-4.2714,-4.2675,-4.2598,-4.2595,-4.2691,-4.2745,-4.2876,-4.3411,-4.4121,-4.4973,-4.5472,-4.6051,-4.6639,-4.7222,-4.7335,-4.7266,-4.7008,-4.6918,-4.6918,-4.7186,-4.7299,-4.7324,-4.7349,-4.7367,-4.7409,-4.7367,-4.7409,-4.7494,-4.7638,-4.7761,-4.7941,-4.808,-4.8119,-4.8176,-4.8155,-4.8038,-4.8212,-4.8421,-4.8623,-4.882,-4.8855,-4.889,-4.889,-4.889,-4.889,-4.889,-4.889,-4.882,-4.882,-4.8855,-4.8855,-4.882,-4.8767,-4.8677,-4.8641,-4.889,-4.8855,-4.882,-4.866,-4.855,-4.8548,-4.8708,-4.9189,-5.0009,-5.0935,-5.1806,-5.2642,-5.342,-5.3491,-3.7667,-3.8301,-3.9365,-3.9397,-3.9002,-4.0675,-4.0749,-3.9999,-4.1277,-4.1735,-4.164,-4.2225,-4.2225,-4.2063,-4.2594,-4.3032,-4.283,-4.3103,-4.3338,-4.3428,-4.3463,-4.3463,-4.3444,-4.3429,-4.3396,-4.3541,-4.3506,-4.3487,-4.3756,-4.3722,-4.3737,-4.3756,-4.3687,-4.367,-4.3479,-4.3497,-4.3497,-4.3479,-4.3375,-4.3339,-4.3304,-4.3124,-4.2995,-4.2711,-4.2673,-4.2595,-4.236,-4.2338,-4.2394,-4.2436,-4.2614,-4.2832,-4.32,-4.3704,-4.4306,-4.4968,-4.5541,-4.5894,-4.6312,-4.6631,-4.6678,-4.6678,-4.6442,-4.6394,-4.6489,-4.6584,-4.6753,-4.6763,-4.6763,-4.6791,-4.69,-4.6717,-4.6746,-4.6837,-4.7017,-4.715,-4.7367,-4.7536,-4.7494,-4.7494,-4.747,-4.7554,-4.7638,-4.7901,-4.8289,-4.8495,-4.8605,-4.8714,-4.889,-4.889,-4.889,-4.889,-4.889,-4.882,-4.8768,-4.8642,-4.8495,-4.8137,-4.8137,-4.8176,-4.8214,-4.8495,-4.844,-4.8137,-4.8017,-4.8087,-4.8239,-4.846,-4.923,-5.0119,-5.1118,-5.2135,-5.2573,-5.3193,-5.313,-3.8174,-3.8373,-3.9822,-4.0056,-3.9726,-4.1265,-4.1118,-4.019,-4.1993,-4.2941,-4.2796,-4.2996,-4.2923,-4.2832,-4.2813,-4.2795,-4.2796,-4.2941,-4.3123,-4.316,-4.3105,-4.3304,-4.3214,-4.3068,-4.3095,-4.3668,-4.3562,-4.3555,-4.411,-4.4018,-4.4082,-4.4057,-4.3996,-4.3904,-4.3539,-4.3499,-4.3499,-4.3428,-4.3104,-4.301,-4.2788,-4.2577,-4.24,-4.218,-4.2198,-4.2133,-4.2136,-4.1959,-4.2131,-4.266,-4.2793,-4.3039,-4.3367,-4.4152,-4.4624,-4.4591,-4.5199,-4.5425,-4.5528,-4.5938,-4.6119,-4.6168,-4.5938,-4.5752,-4.5667,-4.5905,-4.6235,-4.62,-4.6217,-4.6217,-4.6137,-4.597,-4.6084,-4.6213,-4.6358,-4.6501,-4.6717,-4.6791,-4.6763,-4.6746,-4.6972,-4.7194,-4.7194,-4.7324,-4.786,-4.8135,-4.8326,-4.8476,-4.8605,-4.855,-4.8477,-4.8421,-4.8384,-4.8309,-4.8212,-4.8231,-4.8114,-4.7697,-4.7554,-4.7661,-4.7752,-4.7861,-4.7741,-4.7403,-4.754,-4.7757,-4.7993,-4.829,-4.8985,-4.9755,-5.1381,-5.2375,-5.2712,-5.2816,-5.2619,-3.7807,-3.8636,-3.9677,-4.0269,-4.0648,-4.1976,-4.1978,-4.1379,-4.2432,-4.2956,-4.2711,-4.2673,-4.233,-4.2073,-4.2034,-4.2069,-4.1983,-4.2132,-4.2279,-4.2382,-4.2458,-4.2306,-4.2342,-4.2521,-4.2662,-4.3084,-4.3119,-4.3474,-4.4058,-4.4152,-4.4092,-4.4067,-4.417,-4.4146,-4.4086,-4.4012,-4.3786,-4.3324,-4.3077,-4.2834,-4.2391,-4.2251,-4.2079,-4.1736,-4.1797,-4.1894,-4.1992,-4.1838,-4.2096,-4.278,-4.2975,-4.3054,-4.3646,-4.4538,-4.4714,-4.4854,-4.5406,-4.5423,-4.5441,-4.5615,-4.5667,-4.5615,-4.5581,-4.5441,-4.5476,-4.5511,-4.5667,-4.5718,-4.577,-4.5718,-4.5615,-4.5615,-4.5649,-4.5632,-4.5735,-4.5786,-4.587,-4.592,-4.587,-4.597,-4.6133,-4.6472,-4.6566,-4.6624,-4.7062,-4.7324,-4.7428,-4.7656,-4.7783,-4.7743,-4.762,-4.762,-4.762,-4.7638,-4.7614,-4.7656,-4.753,-4.7194,-4.7194,-4.7367,-4.7407,-4.7241,-4.7295,-4.7125,-4.7265,-4.7464,-4.7524,-4.772,-4.8378,-4.9421,-5.0308,-5.132,-5.1764,-5.1873,-5.1891,-3.7355,-3.8155,-3.8919,-3.97,-4.0557,-4.2009,-4.2271,-4.1776,-4.1992,-4.2069,-4.2062,-4.2056,-4.1843,-4.1493,-4.1407,-4.1454,-4.1321,-4.152,-4.1692,-4.1796,-4.2121,-4.2083,-4.2005,-4.2159,-4.2783,-4.3037,-4.3255,-4.365,-4.4324,-4.4286,-4.4307,-4.4341,-4.4314,-4.4502,-4.4513,-4.4265,-4.3899,-4.3509,-4.335,-4.3049,-4.2687,-4.2457,-4.2212,-4.1997,-4.1955,-4.2064,-4.2046,-4.2014,-4.2029,-4.2785,-4.3113,-4.3199,-4.4044,-4.4596,-4.4872,-4.5303,-4.5441,-4.5441,-4.5441,-4.5441,-4.5476,-4.5423,-4.5441,-4.5441,-4.5441,-4.5476,-4.5423,-4.5423,-4.5441,-4.5441,-4.5441,-4.5441,-4.5441,-4.5423,-4.5423,-4.5476,-4.5476,-4.5511,-4.5563,-4.5563,-4.5615,-4.5871,-4.6005,-4.602,-4.6231,-4.6406,-4.6531,-4.6746,-4.7017,-4.7062,-4.7017,-4.7062,-4.7062,-4.715,-4.7106,-4.7035,-4.69,-4.6671,-4.6699,-4.6791,-4.6584,-4.6389,-4.6613,-4.6737,-4.661,-4.654,-4.6733,-4.7081,-4.7618,-4.7805,-4.8024,-4.9144,-5.0408,-5.0796,-5.0838,-3.6878,-3.704,-3.776,-3.8532,-3.9476,-4.118,-4.1757,-4.1438,-4.0762,-4.0884,-4.1481,-4.1481,-4.1323,-4.1358,-4.1358,-4.1288,-4.1262,-4.1288,-4.1393,-4.17,-4.1995,-4.1955,-4.2163,-4.2561,-4.2975,-4.3316,-4.3493,-4.3597,-4.4579,-4.4399,-4.4397,-4.4702,-4.4694,-4.4747,-4.463,-4.4414,-4.402,-4.378,-4.3533,-4.3249,-4.2923,-4.2768,-4.2479,-4.2277,-4.2363,-4.2533,-4.2569,-4.2653,-4.2961,-4.3424,-4.3837,-4.4113,-4.4544,-4.5027,-4.5285,-4.5371,-4.5441,-4.5441,-4.5441,-4.5441,-4.5441,-4.5441,-4.5441,-4.5441,-4.5441,-4.5441,-4.5441,-4.5441,-4.5441,-4.5441,-4.5441,-4.5441,-4.5441,-4.5441,-4.5441,-4.5441,-4.5441,-4.5423,-4.5423,-4.5423,-4.5423,-4.5581,-4.5581,-4.5598,-4.5786,-4.5786,-4.6003,-4.6182,-4.6436,-4.6653,-4.6653,-4.6699,-4.6699,-4.6746,-4.6624,-4.6454,-4.628,-4.6084,-4.5953,-4.592,-4.5702,-4.5771,-4.6063,-4.6147,-4.5684,-4.5667,-4.6066,-4.6343,-4.6568,-4.6691,-4.6739,-4.7503,-4.8941,-4.9429,-4.9538,-3.6492,-3.7324,-3.7592,-3.8113,-3.8851,-3.9595,-4.0498,-4.1349,-4.1236,-4.1163,-4.1036,-4.1019,-4.0793,-4.0164,-4.0401,-4.0375,-4.0341,-4.038,-4.0446,-4.0888,-4.1567,-4.1503,-4.178,-4.2312,-4.2859,-4.3079,-4.3161,-4.3328,-4.3715,-4.3847,-4.4253,-4.4563,-4.4703,-4.472,-4.4661,-4.45,-4.4181,-4.3907,-4.37,-4.3426,-4.3134,-4.2911,-4.2551,-4.2313,-4.2636,-4.2791,-4.2774,-4.2963,-4.3409,-4.4388,-4.4285,-4.4458,-4.513,-4.532,-4.5423,-4.5423,-4.5441,-4.5441,-4.5441,-4.5441,-4.5441,-4.5441,-4.5441,-4.5441,-4.5441,-4.5441,-4.5441,-4.5441,-4.5441,-4.5441,-4.5441,-4.5441,-4.5441,-4.5441,-4.5441,-4.5441,-4.5441,-4.5441,-4.5441,-4.5441,-4.5441,-4.5441,-4.5441,-4.5423,-4.5563,-4.5476,-4.5528,-4.5735,-4.592,-4.6133,-4.6213,-4.6262,-4.6213,-4.6165,-4.6003,-4.5786,-4.5649,-4.5511,-4.5476,-4.5493,-4.5615,-4.5701,-4.5768,-4.5717,-4.551,-4.5475,-4.5579,-4.582,-4.6027,-4.5837,-4.591,-4.6604,-4.7317,-4.8066,-4.8722,-3.6055,-3.6696,-3.6747,-3.7158,-3.7917,-3.8676,-3.9662,-4.0493,-4.0834,-4.0784,-4.0531,-4.0549,-4.0243,-3.9987,-4.005,-4.005,-3.9904,-4.0082,-4.0221,-4.0442,-4.1085,-4.1341,-4.161,-4.2134,-4.2729,-4.2861,-4.2929,-4.3115,-4.3314,-4.3809,-4.4231,-4.4575,-4.457,-4.457,-4.4575,-4.4529,-4.441,-4.4177,-4.3973,-4.3681,-4.3481,-4.3314,-4.287,-4.2411,-4.2923,-4.3076,-4.2991,-4.3253,-4.404,-4.4692,-4.4388,-4.4577,-4.5024,-4.5041,-4.5371,-4.5371,-4.5441,-4.5441,-4.5441,-4.5441,-4.5441,-4.5371,-4.5371,-4.5441,-4.5441,-4.5441,-4.5441,-4.5441,-4.5441,-4.5441,-4.5441,-4.5441,-4.5441,-4.5441,-4.5441,-4.5441,-4.5441,-4.5441,-4.5441,-4.5441,-4.5441,-4.5441,-4.5441,-4.5441,-4.5441,-4.5441,-4.5441,-4.5476,-4.5563,-4.5649,-4.5735,-4.5735,-4.5649,-4.5563,-4.5441,-4.5441,-4.5423,-4.5423,-4.5423,-4.5475,-4.5544,-4.5579,-4.563,-4.5561,-4.5458,-4.5475,-4.551,-4.5475,-4.5561,-4.5492,-4.5717,-4.6463,-4.7124,-4.7555,-4.8245,-3.5487,-3.5503,-3.5515,-3.6045,-3.6857,-3.8162,-3.8821,-3.8973,-3.9631,-4.002,-4.007,-4.0121,-4.0137,-4.0018,-4.0104,-4.0121,-4.0051,-4.0087,-4.0087,-4.0138,-4.1271,-4.161,-4.1728,-4.2489,-4.2658,-4.2658,-4.2605,-4.2618,-4.3242,-4.3553,-4.3849,-4.4406,-4.444,-4.4367,-4.431,-4.457,-4.4412,-4.4142,-4.4164,-4.4136,-4.4333,-4.4333,-4.4108,-4.3348,-4.3572,-4.3931,-4.3715,-4.3922,-4.4402,-4.4323,-4.4235,-4.4317,-4.43,-4.4439,-4.4875,-4.4944,-4.4818,-4.4889,-4.4835,-4.4852,-4.5015,-4.5069,-4.5247,-4.514,-4.5086,-4.5318,-4.5371,-4.5441,-4.5441,-4.5441,-4.5441,-4.5441,-4.5441,-4.5441,-4.5441,-4.5441,-4.5441,-4.5441,-4.5441,-4.5441,-4.5441,-4.5441,-4.5441,-4.5441,-4.5441,-4.5441,-4.5441,-4.5441,-4.5441,-4.5441,-4.5441,-4.5441,-4.5441,-4.5441,-4.5441,-4.5441,-4.5441,-4.5441,-4.5441,-4.5441,-4.5492,-4.5475,-4.5441,-4.5441,-4.5441,-4.5441,-4.5441,-4.5441,-4.5561,-4.582,-4.6113,-4.6562,-4.701,-4.7617,-4.8031,-3.4723,-3.4431,-3.4816,-3.5341,-3.5987,-3.7034,-3.7469,-3.7586,-3.8377,-3.9226,-3.9969,-4.007,-4.002,-3.9969,-3.9901,-3.9901,-3.9969,-3.985,-4.007,-4.0138,-4.0948,-4.1129,-4.1235,-4.1786,-4.2213,-4.2219,-4.2064,-4.193,-4.2222,-4.2675,-4.2989,-4.3087,-4.3453,-4.3781,-4.3781,-4.4121,-4.4179,-4.3781,-4.3781,-4.4047,-4.431,-4.3788,-4.3244,-4.2512,-4.2483,-4.2601,-4.2495,-4.2802,-4.3411,-4.3769,-4.3481,-4.338,-4.328,-4.3472,-4.3522,-4.3597,-4.3773,-4.3864,-4.3939,-4.4071,-4.4071,-4.4054,-4.4112,-4.4356,-4.4614,-4.514,-4.5371,-4.5371,-4.5318,-4.5318,-4.5318,-4.5318,-4.5318,-4.5318,-4.5371,-4.5371,-4.5371,-4.5441,-4.5441,-4.5441,-4.5441,-4.5441,-4.5441,-4.5441,-4.5441,-4.5441,-4.5441,-4.5441,-4.5441,-4.5441,-4.5441,-4.5441,-4.5441,-4.5441,-4.5441,-4.5441,-4.5441,-4.5441,-4.5441,-4.5441,-4.5441,-4.5441,-4.5441,-4.5441,-4.5441,-4.551,-4.5527,-4.5475,-4.5648,-4.6148,-4.6682,-4.7217,-4.7838,-4.8407,-4.8545,-3.407,-3.4002,-3.461,-3.4905,-3.5131,-3.6156,-3.6662,-3.6771,-3.7519,-3.839,-3.9209,-3.9295,-3.9279,-3.9279,-3.9279,-3.9348,-3.9348,-3.9295,-3.8907,-3.9113,-3.9618,-3.9827,-4.028,-4.075,-4.0801,-4.0857,-4.1017,-4.104,-4.1369,-4.2032,-4.2521,-4.2242,-4.2631,-4.301,-4.307,-4.3453,-4.3512,-4.3075,-4.3043,-4.324,-4.3639,-4.2883,-4.2088,-4.1387,-4.1395,-4.1453,-4.1585,-4.1904,-4.2719,-4.3098,-4.2921,-4.2937,-4.2888,-4.2998,-4.2998,-4.3059,-4.312,-4.3075,-4.3092,-4.3152,-4.3229,-4.3273,-4.3453,-4.3881,-4.3939,-4.4339,-4.4652,-4.4652,-4.4412,-4.4356,-4.4356,-4.4356,-4.4356,-4.4356,-4.4725,-4.4961,-4.5194,-4.5441,-4.5441,-4.5441,-4.5441,-4.5441,-4.5441,-4.5441,-4.5441,-4.5388,-4.5388,-4.5438,-4.5421,-4.5432,-4.5417,-4.5436,-4.5432,-4.5438,-4.5441,-4.5441,-4.5441,-4.5441,-4.5441,-4.5405,-4.5422,-4.5388,-4.5441,-4.5404,-4.549,-4.5717,-4.5717,-4.5717,-4.6286,-4.6941,-4.7441,-4.7924,-4.8506,-4.8999,-4.9131,-3.3531,-3.3797,-3.443,-3.4417,-3.4161,-3.5287,-3.5851,-3.598,-3.6554,-3.7198,-3.7617,-3.7665,-3.7899,-3.8262,-3.8278,-3.8278,-3.8309,-3.8351,-3.7916,-3.7818,-3.8127,-3.8504,-3.876,-3.9016,-3.943,-3.9903,-4.0261,-4.0718,-4.1216,-4.1639,-4.1703,-4.1461,-4.1717,-4.2088,-4.2137,-4.2342,-4.234,-4.2183,-4.212,-4.2122,-4.1975,-4.173,-4.1209,-4.0958,-4.0887,-4.0968,-4.1058,-4.1378,-4.2153,-4.2252,-4.2205,-4.2141,-4.2157,-4.2221,-4.2269,-4.2316,-4.2252,-4.2379,-4.252,-4.2537,-4.2724,-4.2909,-4.3213,-4.3257,-4.3257,-4.3453,-4.3689,-4.3823,-4.3571,-4.3571,-4.3571,-4.3571,-4.3571,-4.363,-4.4112,-4.4541,-4.4835,-4.5174,-4.5192,-4.5226,-4.5329,-4.5275,-4.5466,-4.5432,-4.5414,-4.5434,-4.5434,-4.5414,-4.5443,-4.5507,-4.549,-4.5496,-4.5473,-4.5443,-4.5419,-4.5421,-4.5402,-4.5441,-4.5388,-4.5422,-4.5402,-4.5412,-4.5463,-4.5432,-4.5517,-4.5672,-4.5971,-4.6148,-4.6837,-4.7468,-4.7695,-4.8049,-4.8582,-4.9052,-4.9488,-3.2841,-3.3002,-3.3143,-3.3361,-3.369,-3.4115,-3.4337,-3.4447,-3.4696,-3.4926,-3.5361,-3.5482,-3.6174,-3.8262,-3.8278,-3.8125,-3.7592,-3.748,-3.7452,-3.7449,-3.7157,-3.7332,-3.7656,-3.7969,-3.8755,-3.9311,-3.9794,-4.036,-4.0324,-4.061,-4.0544,-3.9966,-3.9976,-4.0229,-4.0339,-4.0735,-4.1435,-4.1263,-4.0975,-4.0879,-4.0653,-4.0673,-4.1023,-4.0753,-4.0465,-4.0562,-4.0594,-4.0642,-4.1182,-4.132,-4.126,-4.1142,-4.1142,-4.1225,-4.1276,-4.1393,-4.1327,-4.1393,-4.1525,-4.1591,-4.1722,-4.1933,-4.211,-4.2301,-4.2301,-4.2317,-4.2615,-4.2986,-4.2986,-4.3273,-4.3273,-4.3273,-4.3333,-4.3393,-4.3689,-4.3806,-4.398,-4.4205,-4.4339,-4.4624,-4.4943,-4.5135,-4.552,-4.5563,-4.5546,-4.5513,-4.5555,-4.5513,-4.5547,-4.552,-4.5517,-4.5511,-4.5537,-4.5496,-4.5432,-4.5429,-4.5429,-4.5419,-4.5436,-4.5452,-4.545,-4.5479,-4.5479,-4.5479,-4.5467,-4.5592,-4.5935,-4.6452,-4.694,-4.7455,-4.7631,-4.8005,-4.8606,-4.9024,-4.935]}]]